<?xml version="1.0" encoding="UTF-8" standalone="no" ?>
<gpx xmlns="http://www.topografix.com/GPX/1/1" xmlns:xsi="http://www.w3.org/2001/XMLSchema-instance" xsi:schemaLocation="http://www.topografix.com/GPX/1/1 http://www.topografix.com/GPX/1/1/gpx.xsd" version="1.1" creator="VisuGPX - https://www.visugpx.com">
  <metadata>
    <name>Le causse d\'Aumelas</name>
    <desc><![CDATA[Le causse d\'Aumelas depuis Cournonterral par les randonneurs de l\'ANR Montpellier le jeudi 10 février 2013.]]></desc>
  </metadata>
  <wpt lat="43.56465" lon="3.70401">
    <ele>87</ele>
  </wpt>
  <trk>
    <name><![CDATA[Le causse d\'Aumelas_1]]></name>
    <trkseg>
      <trkpt lat="43.56465" lon="3.70401">
        <ele>87</ele>
        <time>2013-01-10T07:43:33Z</time>
      </trkpt>
      <trkpt lat="43.5647" lon="3.70392">
        <ele>87</ele>
        <time>2013-01-10T07:43:49Z</time>
      </trkpt>
      <trkpt lat="43.56462" lon="3.70395">
        <ele>87</ele>
        <time>2013-01-10T07:46:00Z</time>
      </trkpt>
      <trkpt lat="43.5647" lon="3.70392">
        <ele>87</ele>
        <time>2013-01-10T07:46:22Z</time>
      </trkpt>
      <trkpt lat="43.56462" lon="3.70395">
        <ele>87</ele>
        <time>2013-01-10T07:49:45Z</time>
      </trkpt>
      <trkpt lat="43.56467" lon="3.70384">
        <ele>87</ele>
        <time>2013-01-10T07:49:59Z</time>
      </trkpt>
      <trkpt lat="43.56472" lon="3.70374">
        <ele>93</ele>
        <time>2013-01-10T07:50:06Z</time>
      </trkpt>
      <trkpt lat="43.56478" lon="3.70364">
        <ele>93</ele>
        <time>2013-01-10T07:50:12Z</time>
      </trkpt>
      <trkpt lat="43.56483" lon="3.70354">
        <ele>93</ele>
        <time>2013-01-10T07:50:18Z</time>
      </trkpt>
      <trkpt lat="43.56487" lon="3.70342">
        <ele>93</ele>
        <time>2013-01-10T07:50:32Z</time>
      </trkpt>
      <trkpt lat="43.56482" lon="3.70353">
        <ele>93</ele>
        <time>2013-01-10T07:53:15Z</time>
      </trkpt>
      <trkpt lat="43.56475" lon="3.70362">
        <ele>93</ele>
        <time>2013-01-10T07:53:21Z</time>
      </trkpt>
      <trkpt lat="43.5647" lon="3.70372">
        <ele>93</ele>
        <time>2013-01-10T07:53:26Z</time>
      </trkpt>
      <trkpt lat="43.56465" lon="3.70383">
        <ele>93</ele>
        <time>2013-01-10T07:53:32Z</time>
      </trkpt>
      <trkpt lat="43.56459" lon="3.70393">
        <ele>93</ele>
        <time>2013-01-10T07:53:38Z</time>
      </trkpt>
      <trkpt lat="43.56453" lon="3.70403">
        <ele>93</ele>
        <time>2013-01-10T07:53:48Z</time>
      </trkpt>
      <trkpt lat="43.56463" lon="3.70399">
        <ele>93</ele>
        <time>2013-01-10T07:54:39Z</time>
      </trkpt>
      <trkpt lat="43.56471" lon="3.70394">
        <ele>93</ele>
        <time>2013-01-10T07:54:49Z</time>
      </trkpt>
      <trkpt lat="43.56463" lon="3.70391">
        <ele>93</ele>
        <time>2013-01-10T07:57:07Z</time>
      </trkpt>
      <trkpt lat="43.56453" lon="3.70387">
        <ele>93</ele>
        <time>2013-01-10T07:58:32Z</time>
      </trkpt>
      <trkpt lat="43.56461" lon="3.70394">
        <ele>93</ele>
        <time>2013-01-10T07:59:36Z</time>
      </trkpt>
      <trkpt lat="43.5647" lon="3.70392">
        <ele>93</ele>
        <time>2013-01-10T08:00:48Z</time>
      </trkpt>
      <trkpt lat="43.56462" lon="3.70395">
        <ele>93</ele>
        <time>2013-01-10T08:01:22Z</time>
      </trkpt>
      <trkpt lat="43.56466" lon="3.70384">
        <ele>93</ele>
        <time>2013-01-10T08:01:53Z</time>
      </trkpt>
      <trkpt lat="43.56472" lon="3.70374">
        <ele>93</ele>
        <time>2013-01-10T08:02:11Z</time>
      </trkpt>
      <trkpt lat="43.56478" lon="3.70364">
        <ele>93</ele>
        <time>2013-01-10T08:02:19Z</time>
      </trkpt>
      <trkpt lat="43.56484" lon="3.70355">
        <ele>93</ele>
        <time>2013-01-10T08:02:26Z</time>
      </trkpt>
      <trkpt lat="43.56491" lon="3.70345">
        <ele>93</ele>
        <time>2013-01-10T08:02:34Z</time>
      </trkpt>
      <trkpt lat="43.56497" lon="3.70336">
        <ele>93</ele>
        <time>2013-01-10T08:02:42Z</time>
      </trkpt>
      <trkpt lat="43.56504" lon="3.70326">
        <ele>93</ele>
        <time>2013-01-10T08:02:50Z</time>
      </trkpt>
      <trkpt lat="43.56508" lon="3.70315">
        <ele>93</ele>
        <time>2013-01-10T08:02:58Z</time>
      </trkpt>
      <trkpt lat="43.56515" lon="3.70304">
        <ele>93</ele>
        <time>2013-01-10T08:03:07Z</time>
      </trkpt>
      <trkpt lat="43.56522" lon="3.70295">
        <ele>93</ele>
        <time>2013-01-10T08:03:15Z</time>
      </trkpt>
      <trkpt lat="43.56529" lon="3.70286">
        <ele>93</ele>
        <time>2013-01-10T08:03:25Z</time>
      </trkpt>
      <trkpt lat="43.56535" lon="3.70277">
        <ele>98</ele>
        <time>2013-01-10T08:03:38Z</time>
      </trkpt>
      <trkpt lat="43.56542" lon="3.70267">
        <ele>98</ele>
        <time>2013-01-10T08:03:46Z</time>
      </trkpt>
      <trkpt lat="43.56549" lon="3.70258">
        <ele>98</ele>
        <time>2013-01-10T08:03:54Z</time>
      </trkpt>
      <trkpt lat="43.56555" lon="3.70247">
        <ele>98</ele>
        <time>2013-01-10T08:04:03Z</time>
      </trkpt>
      <trkpt lat="43.56562" lon="3.70237">
        <ele>98</ele>
        <time>2013-01-10T08:04:11Z</time>
      </trkpt>
      <trkpt lat="43.56568" lon="3.70226">
        <ele>98</ele>
        <time>2013-01-10T08:04:19Z</time>
      </trkpt>
      <trkpt lat="43.56574" lon="3.70217">
        <ele>98</ele>
        <time>2013-01-10T08:04:27Z</time>
      </trkpt>
      <trkpt lat="43.5658" lon="3.70207">
        <ele>98</ele>
        <time>2013-01-10T08:04:35Z</time>
      </trkpt>
      <trkpt lat="43.56586" lon="3.70198">
        <ele>98</ele>
        <time>2013-01-10T08:04:45Z</time>
      </trkpt>
      <trkpt lat="43.56591" lon="3.70188">
        <ele>98</ele>
        <time>2013-01-10T08:04:53Z</time>
      </trkpt>
      <trkpt lat="43.56598" lon="3.70178">
        <ele>98</ele>
        <time>2013-01-10T08:05:01Z</time>
      </trkpt>
      <trkpt lat="43.56603" lon="3.70168">
        <ele>103</ele>
        <time>2013-01-10T08:05:09Z</time>
      </trkpt>
      <trkpt lat="43.56608" lon="3.70158">
        <ele>103</ele>
        <time>2013-01-10T08:05:17Z</time>
      </trkpt>
      <trkpt lat="43.56615" lon="3.70147">
        <ele>103</ele>
        <time>2013-01-10T08:05:26Z</time>
      </trkpt>
      <trkpt lat="43.56621" lon="3.70136">
        <ele>103</ele>
        <time>2013-01-10T08:05:34Z</time>
      </trkpt>
      <trkpt lat="43.56627" lon="3.70126">
        <ele>103</ele>
        <time>2013-01-10T08:05:42Z</time>
      </trkpt>
      <trkpt lat="43.56632" lon="3.70115">
        <ele>103</ele>
        <time>2013-01-10T08:05:51Z</time>
      </trkpt>
      <trkpt lat="43.56639" lon="3.70106">
        <ele>103</ele>
        <time>2013-01-10T08:05:59Z</time>
      </trkpt>
      <trkpt lat="43.56645" lon="3.70096">
        <ele>103</ele>
        <time>2013-01-10T08:06:07Z</time>
      </trkpt>
      <trkpt lat="43.56651" lon="3.70086">
        <ele>103</ele>
        <time>2013-01-10T08:06:15Z</time>
      </trkpt>
      <trkpt lat="43.56657" lon="3.70076">
        <ele>103</ele>
        <time>2013-01-10T08:06:23Z</time>
      </trkpt>
      <trkpt lat="43.56662" lon="3.70066">
        <ele>103</ele>
        <time>2013-01-10T08:06:31Z</time>
      </trkpt>
      <trkpt lat="43.56668" lon="3.70056">
        <ele>103</ele>
        <time>2013-01-10T08:06:39Z</time>
      </trkpt>
      <trkpt lat="43.56675" lon="3.70046">
        <ele>103</ele>
        <time>2013-01-10T08:06:47Z</time>
      </trkpt>
      <trkpt lat="43.56681" lon="3.70037">
        <ele>103</ele>
        <time>2013-01-10T08:06:54Z</time>
      </trkpt>
      <trkpt lat="43.56687" lon="3.70026">
        <ele>109</ele>
        <time>2013-01-10T08:07:02Z</time>
      </trkpt>
      <trkpt lat="43.56692" lon="3.70013">
        <ele>109</ele>
        <time>2013-01-10T08:07:11Z</time>
      </trkpt>
      <trkpt lat="43.56694" lon="3.70001">
        <ele>109</ele>
        <time>2013-01-10T08:07:19Z</time>
      </trkpt>
      <trkpt lat="43.56697" lon="3.69989">
        <ele>109</ele>
        <time>2013-01-10T08:07:28Z</time>
      </trkpt>
      <trkpt lat="43.56699" lon="3.69977">
        <ele>109</ele>
        <time>2013-01-10T08:07:35Z</time>
      </trkpt>
      <trkpt lat="43.56701" lon="3.69963">
        <ele>109</ele>
        <time>2013-01-10T08:07:43Z</time>
      </trkpt>
      <trkpt lat="43.56702" lon="3.6995">
        <ele>109</ele>
        <time>2013-01-10T08:07:50Z</time>
      </trkpt>
      <trkpt lat="43.56703" lon="3.69937">
        <ele>109</ele>
        <time>2013-01-10T08:07:57Z</time>
      </trkpt>
      <trkpt lat="43.56704" lon="3.69924">
        <ele>109</ele>
        <time>2013-01-10T08:08:04Z</time>
      </trkpt>
      <trkpt lat="43.56704" lon="3.69912">
        <ele>109</ele>
        <time>2013-01-10T08:08:11Z</time>
      </trkpt>
      <trkpt lat="43.56702" lon="3.69899">
        <ele>109</ele>
        <time>2013-01-10T08:08:18Z</time>
      </trkpt>
      <trkpt lat="43.56698" lon="3.69888">
        <ele>109</ele>
        <time>2013-01-10T08:08:25Z</time>
      </trkpt>
      <trkpt lat="43.56694" lon="3.69876">
        <ele>109</ele>
        <time>2013-01-10T08:08:32Z</time>
      </trkpt>
      <trkpt lat="43.56693" lon="3.69863">
        <ele>109</ele>
        <time>2013-01-10T08:08:39Z</time>
      </trkpt>
      <trkpt lat="43.56694" lon="3.69851">
        <ele>109</ele>
        <time>2013-01-10T08:08:46Z</time>
      </trkpt>
      <trkpt lat="43.56698" lon="3.69838">
        <ele>109</ele>
        <time>2013-01-10T08:08:54Z</time>
      </trkpt>
      <trkpt lat="43.56702" lon="3.69826">
        <ele>109</ele>
        <time>2013-01-10T08:09:01Z</time>
      </trkpt>
      <trkpt lat="43.56706" lon="3.69815">
        <ele>109</ele>
        <time>2013-01-10T08:09:08Z</time>
      </trkpt>
      <trkpt lat="43.56709" lon="3.69802">
        <ele>109</ele>
        <time>2013-01-10T08:09:15Z</time>
      </trkpt>
      <trkpt lat="43.56712" lon="3.6979">
        <ele>109</ele>
        <time>2013-01-10T08:09:23Z</time>
      </trkpt>
      <trkpt lat="43.56717" lon="3.69778">
        <ele>109</ele>
        <time>2013-01-10T08:09:31Z</time>
      </trkpt>
      <trkpt lat="43.5672" lon="3.69765">
        <ele>109</ele>
        <time>2013-01-10T08:09:39Z</time>
      </trkpt>
      <trkpt lat="43.56723" lon="3.69753">
        <ele>114</ele>
        <time>2013-01-10T08:09:47Z</time>
      </trkpt>
      <trkpt lat="43.56725" lon="3.69741">
        <ele>114</ele>
        <time>2013-01-10T08:09:54Z</time>
      </trkpt>
      <trkpt lat="43.56727" lon="3.69728">
        <ele>114</ele>
        <time>2013-01-10T08:10:02Z</time>
      </trkpt>
      <trkpt lat="43.56729" lon="3.69715">
        <ele>114</ele>
        <time>2013-01-10T08:10:09Z</time>
      </trkpt>
      <trkpt lat="43.56732" lon="3.69702">
        <ele>114</ele>
        <time>2013-01-10T08:10:17Z</time>
      </trkpt>
      <trkpt lat="43.56734" lon="3.69689">
        <ele>114</ele>
        <time>2013-01-10T08:10:25Z</time>
      </trkpt>
      <trkpt lat="43.56736" lon="3.69677">
        <ele>114</ele>
        <time>2013-01-10T08:10:33Z</time>
      </trkpt>
      <trkpt lat="43.56738" lon="3.69664">
        <ele>114</ele>
        <time>2013-01-10T08:10:41Z</time>
      </trkpt>
      <trkpt lat="43.56741" lon="3.69652">
        <ele>114</ele>
        <time>2013-01-10T08:10:49Z</time>
      </trkpt>
      <trkpt lat="43.56746" lon="3.69641">
        <ele>114</ele>
        <time>2013-01-10T08:10:57Z</time>
      </trkpt>
      <trkpt lat="43.56753" lon="3.69631">
        <ele>114</ele>
        <time>2013-01-10T08:11:05Z</time>
      </trkpt>
      <trkpt lat="43.56761" lon="3.69625">
        <ele>114</ele>
        <time>2013-01-10T08:12:09Z</time>
      </trkpt>
      <trkpt lat="43.56752" lon="3.69629">
        <ele>114</ele>
        <time>2013-01-10T08:13:32Z</time>
      </trkpt>
      <trkpt lat="43.56747" lon="3.69641">
        <ele>114</ele>
        <time>2013-01-10T08:13:49Z</time>
      </trkpt>
      <trkpt lat="43.56743" lon="3.69651">
        <ele>114</ele>
        <time>2013-01-10T08:13:57Z</time>
      </trkpt>
      <trkpt lat="43.56747" lon="3.6964">
        <ele>114</ele>
        <time>2013-01-10T08:14:57Z</time>
      </trkpt>
      <trkpt lat="43.56753" lon="3.6963">
        <ele>114</ele>
        <time>2013-01-10T08:15:05Z</time>
      </trkpt>
      <trkpt lat="43.56758" lon="3.69619">
        <ele>114</ele>
        <time>2013-01-10T08:15:12Z</time>
      </trkpt>
      <trkpt lat="43.56762" lon="3.69606">
        <ele>114</ele>
        <time>2013-01-10T08:15:20Z</time>
      </trkpt>
      <trkpt lat="43.56762" lon="3.69594">
        <ele>114</ele>
        <time>2013-01-10T08:15:28Z</time>
      </trkpt>
      <trkpt lat="43.56761" lon="3.6958">
        <ele>114</ele>
        <time>2013-01-10T08:15:36Z</time>
      </trkpt>
      <trkpt lat="43.5676" lon="3.69567">
        <ele>114</ele>
        <time>2013-01-10T08:15:44Z</time>
      </trkpt>
      <trkpt lat="43.56759" lon="3.69554">
        <ele>114</ele>
        <time>2013-01-10T08:15:52Z</time>
      </trkpt>
      <trkpt lat="43.56759" lon="3.69541">
        <ele>114</ele>
        <time>2013-01-10T08:16:00Z</time>
      </trkpt>
      <trkpt lat="43.56761" lon="3.69528">
        <ele>114</ele>
        <time>2013-01-10T08:16:08Z</time>
      </trkpt>
      <trkpt lat="43.56765" lon="3.69517">
        <ele>114</ele>
        <time>2013-01-10T08:16:16Z</time>
      </trkpt>
      <trkpt lat="43.56768" lon="3.69504">
        <ele>119</ele>
        <time>2013-01-10T08:16:24Z</time>
      </trkpt>
      <trkpt lat="43.56772" lon="3.69492">
        <ele>119</ele>
        <time>2013-01-10T08:16:32Z</time>
      </trkpt>
      <trkpt lat="43.56775" lon="3.6948">
        <ele>119</ele>
        <time>2013-01-10T08:16:40Z</time>
      </trkpt>
      <trkpt lat="43.5678" lon="3.69469">
        <ele>119</ele>
        <time>2013-01-10T08:16:48Z</time>
      </trkpt>
      <trkpt lat="43.56785" lon="3.69458">
        <ele>119</ele>
        <time>2013-01-10T08:16:56Z</time>
      </trkpt>
      <trkpt lat="43.5679" lon="3.69447">
        <ele>119</ele>
        <time>2013-01-10T08:17:04Z</time>
      </trkpt>
      <trkpt lat="43.56796" lon="3.69437">
        <ele>119</ele>
        <time>2013-01-10T08:17:12Z</time>
      </trkpt>
      <trkpt lat="43.56802" lon="3.69427">
        <ele>119</ele>
        <time>2013-01-10T08:17:20Z</time>
      </trkpt>
      <trkpt lat="43.56808" lon="3.69417">
        <ele>119</ele>
        <time>2013-01-10T08:17:28Z</time>
      </trkpt>
      <trkpt lat="43.56815" lon="3.69408">
        <ele>119</ele>
        <time>2013-01-10T08:17:36Z</time>
      </trkpt>
      <trkpt lat="43.56823" lon="3.69401">
        <ele>119</ele>
        <time>2013-01-10T08:17:44Z</time>
      </trkpt>
      <trkpt lat="43.5683" lon="3.6939">
        <ele>119</ele>
        <time>2013-01-10T08:17:53Z</time>
      </trkpt>
      <trkpt lat="43.56836" lon="3.6938">
        <ele>119</ele>
        <time>2013-01-10T08:18:02Z</time>
      </trkpt>
      <trkpt lat="43.56842" lon="3.69369">
        <ele>119</ele>
        <time>2013-01-10T08:18:10Z</time>
      </trkpt>
      <trkpt lat="43.56849" lon="3.69359">
        <ele>119</ele>
        <time>2013-01-10T08:18:20Z</time>
      </trkpt>
      <trkpt lat="43.56856" lon="3.69351">
        <ele>124</ele>
        <time>2013-01-10T08:18:28Z</time>
      </trkpt>
      <trkpt lat="43.56863" lon="3.69341">
        <ele>124</ele>
        <time>2013-01-10T08:18:37Z</time>
      </trkpt>
      <trkpt lat="43.5687" lon="3.69332">
        <ele>124</ele>
        <time>2013-01-10T08:18:45Z</time>
      </trkpt>
      <trkpt lat="43.56876" lon="3.69322">
        <ele>124</ele>
        <time>2013-01-10T08:18:53Z</time>
      </trkpt>
      <trkpt lat="43.56882" lon="3.69311">
        <ele>124</ele>
        <time>2013-01-10T08:19:01Z</time>
      </trkpt>
      <trkpt lat="43.56887" lon="3.693">
        <ele>124</ele>
        <time>2013-01-10T08:19:09Z</time>
      </trkpt>
      <trkpt lat="43.56892" lon="3.69288">
        <ele>124</ele>
        <time>2013-01-10T08:19:17Z</time>
      </trkpt>
      <trkpt lat="43.56897" lon="3.69279">
        <ele>124</ele>
        <time>2013-01-10T08:19:24Z</time>
      </trkpt>
      <trkpt lat="43.56902" lon="3.69266">
        <ele>124</ele>
        <time>2013-01-10T08:19:34Z</time>
      </trkpt>
      <trkpt lat="43.56906" lon="3.69255">
        <ele>124</ele>
        <time>2013-01-10T08:19:44Z</time>
      </trkpt>
      <trkpt lat="43.56911" lon="3.69245">
        <ele>124</ele>
        <time>2013-01-10T08:19:53Z</time>
      </trkpt>
      <trkpt lat="43.56917" lon="3.69235">
        <ele>124</ele>
        <time>2013-01-10T08:20:01Z</time>
      </trkpt>
      <trkpt lat="43.56923" lon="3.69226">
        <ele>124</ele>
        <time>2013-01-10T08:20:09Z</time>
      </trkpt>
      <trkpt lat="43.5693" lon="3.69217">
        <ele>124</ele>
        <time>2013-01-10T08:20:18Z</time>
      </trkpt>
      <trkpt lat="43.56937" lon="3.69208">
        <ele>124</ele>
        <time>2013-01-10T08:20:26Z</time>
      </trkpt>
      <trkpt lat="43.56945" lon="3.69199">
        <ele>124</ele>
        <time>2013-01-10T08:20:34Z</time>
      </trkpt>
      <trkpt lat="43.56951" lon="3.6919">
        <ele>124</ele>
        <time>2013-01-10T08:20:42Z</time>
      </trkpt>
      <trkpt lat="43.56958" lon="3.69181">
        <ele>124</ele>
        <time>2013-01-10T08:20:50Z</time>
      </trkpt>
      <trkpt lat="43.56964" lon="3.69171">
        <ele>124</ele>
        <time>2013-01-10T08:20:58Z</time>
      </trkpt>
      <trkpt lat="43.56969" lon="3.69161">
        <ele>124</ele>
        <time>2013-01-10T08:21:06Z</time>
      </trkpt>
      <trkpt lat="43.56973" lon="3.69148">
        <ele>124</ele>
        <time>2013-01-10T08:21:14Z</time>
      </trkpt>
      <trkpt lat="43.56975" lon="3.69136">
        <ele>124</ele>
        <time>2013-01-10T08:21:22Z</time>
      </trkpt>
      <trkpt lat="43.56978" lon="3.69124">
        <ele>124</ele>
        <time>2013-01-10T08:21:30Z</time>
      </trkpt>
      <trkpt lat="43.56983" lon="3.69113">
        <ele>130</ele>
        <time>2013-01-10T08:21:37Z</time>
      </trkpt>
      <trkpt lat="43.56987" lon="3.69103">
        <ele>130</ele>
        <time>2013-01-10T08:21:44Z</time>
      </trkpt>
      <trkpt lat="43.5699" lon="3.6909">
        <ele>130</ele>
        <time>2013-01-10T08:21:52Z</time>
      </trkpt>
      <trkpt lat="43.56993" lon="3.69077">
        <ele>130</ele>
        <time>2013-01-10T08:22:01Z</time>
      </trkpt>
      <trkpt lat="43.56998" lon="3.69067">
        <ele>130</ele>
        <time>2013-01-10T08:22:08Z</time>
      </trkpt>
      <trkpt lat="43.57" lon="3.69055">
        <ele>130</ele>
        <time>2013-01-10T08:22:16Z</time>
      </trkpt>
      <trkpt lat="43.57003" lon="3.69042">
        <ele>130</ele>
        <time>2013-01-10T08:22:23Z</time>
      </trkpt>
      <trkpt lat="43.57007" lon="3.69031">
        <ele>130</ele>
        <time>2013-01-10T08:22:31Z</time>
      </trkpt>
      <trkpt lat="43.57009" lon="3.69018">
        <ele>130</ele>
        <time>2013-01-10T08:22:39Z</time>
      </trkpt>
      <trkpt lat="43.57011" lon="3.69006">
        <ele>130</ele>
        <time>2013-01-10T08:22:48Z</time>
      </trkpt>
      <trkpt lat="43.57013" lon="3.68993">
        <ele>130</ele>
        <time>2013-01-10T08:22:57Z</time>
      </trkpt>
      <trkpt lat="43.57016" lon="3.68979">
        <ele>130</ele>
        <time>2013-01-10T08:23:05Z</time>
      </trkpt>
      <trkpt lat="43.57018" lon="3.68967">
        <ele>130</ele>
        <time>2013-01-10T08:23:13Z</time>
      </trkpt>
      <trkpt lat="43.57019" lon="3.68953">
        <ele>130</ele>
        <time>2013-01-10T08:23:21Z</time>
      </trkpt>
      <trkpt lat="43.57021" lon="3.6894">
        <ele>130</ele>
        <time>2013-01-10T08:23:29Z</time>
      </trkpt>
      <trkpt lat="43.57024" lon="3.68928">
        <ele>130</ele>
        <time>2013-01-10T08:23:36Z</time>
      </trkpt>
      <trkpt lat="43.57027" lon="3.68917">
        <ele>130</ele>
        <time>2013-01-10T08:23:43Z</time>
      </trkpt>
      <trkpt lat="43.57029" lon="3.68904">
        <ele>130</ele>
        <time>2013-01-10T08:23:51Z</time>
      </trkpt>
      <trkpt lat="43.57032" lon="3.68891">
        <ele>130</ele>
        <time>2013-01-10T08:23:59Z</time>
      </trkpt>
      <trkpt lat="43.57034" lon="3.68877">
        <ele>130</ele>
        <time>2013-01-10T08:24:07Z</time>
      </trkpt>
      <trkpt lat="43.57035" lon="3.68864">
        <ele>130</ele>
        <time>2013-01-10T08:24:15Z</time>
      </trkpt>
      <trkpt lat="43.57037" lon="3.68852">
        <ele>130</ele>
        <time>2013-01-10T08:24:23Z</time>
      </trkpt>
      <trkpt lat="43.57039" lon="3.68839">
        <ele>130</ele>
        <time>2013-01-10T08:24:31Z</time>
      </trkpt>
      <trkpt lat="43.57043" lon="3.68827">
        <ele>135</ele>
        <time>2013-01-10T08:24:39Z</time>
      </trkpt>
      <trkpt lat="43.57045" lon="3.68815">
        <ele>135</ele>
        <time>2013-01-10T08:24:46Z</time>
      </trkpt>
      <trkpt lat="43.57047" lon="3.68802">
        <ele>135</ele>
        <time>2013-01-10T08:24:54Z</time>
      </trkpt>
      <trkpt lat="43.57049" lon="3.6879">
        <ele>135</ele>
        <time>2013-01-10T08:25:10Z</time>
      </trkpt>
      <trkpt lat="43.57054" lon="3.68777">
        <ele>135</ele>
        <time>2013-01-10T08:25:18Z</time>
      </trkpt>
      <trkpt lat="43.57056" lon="3.68765">
        <ele>135</ele>
        <time>2013-01-10T08:25:26Z</time>
      </trkpt>
      <trkpt lat="43.5706" lon="3.68753">
        <ele>135</ele>
        <time>2013-01-10T08:25:35Z</time>
      </trkpt>
      <trkpt lat="43.57062" lon="3.68741">
        <ele>135</ele>
        <time>2013-01-10T08:25:43Z</time>
      </trkpt>
      <trkpt lat="43.57065" lon="3.68729">
        <ele>135</ele>
        <time>2013-01-10T08:25:51Z</time>
      </trkpt>
      <trkpt lat="43.57067" lon="3.68715">
        <ele>135</ele>
        <time>2013-01-10T08:25:59Z</time>
      </trkpt>
      <trkpt lat="43.57068" lon="3.68703">
        <ele>141</ele>
        <time>2013-01-10T08:26:07Z</time>
      </trkpt>
      <trkpt lat="43.57069" lon="3.68689">
        <ele>141</ele>
        <time>2013-01-10T08:26:16Z</time>
      </trkpt>
      <trkpt lat="43.57069" lon="3.68676">
        <ele>141</ele>
        <time>2013-01-10T08:26:26Z</time>
      </trkpt>
      <trkpt lat="43.57069" lon="3.68662">
        <ele>141</ele>
        <time>2013-01-10T08:26:34Z</time>
      </trkpt>
      <trkpt lat="43.57071" lon="3.68649">
        <ele>141</ele>
        <time>2013-01-10T08:26:42Z</time>
      </trkpt>
      <trkpt lat="43.57073" lon="3.68636">
        <ele>141</ele>
        <time>2013-01-10T08:26:51Z</time>
      </trkpt>
      <trkpt lat="43.57075" lon="3.68624">
        <ele>141</ele>
        <time>2013-01-10T08:26:59Z</time>
      </trkpt>
      <trkpt lat="43.57075" lon="3.68611">
        <ele>141</ele>
        <time>2013-01-10T08:27:08Z</time>
      </trkpt>
      <trkpt lat="43.57076" lon="3.68598">
        <ele>141</ele>
        <time>2013-01-10T08:27:16Z</time>
      </trkpt>
      <trkpt lat="43.57078" lon="3.68585">
        <ele>141</ele>
        <time>2013-01-10T08:27:23Z</time>
      </trkpt>
      <trkpt lat="43.5708" lon="3.68573">
        <ele>141</ele>
        <time>2013-01-10T08:27:30Z</time>
      </trkpt>
      <trkpt lat="43.57082" lon="3.6856">
        <ele>141</ele>
        <time>2013-01-10T08:27:38Z</time>
      </trkpt>
      <trkpt lat="43.5708" lon="3.68546">
        <ele>141</ele>
        <time>2013-01-10T08:27:47Z</time>
      </trkpt>
      <trkpt lat="43.57077" lon="3.68535">
        <ele>141</ele>
        <time>2013-01-10T08:27:55Z</time>
      </trkpt>
      <trkpt lat="43.57077" lon="3.68522">
        <ele>141</ele>
        <time>2013-01-10T08:28:04Z</time>
      </trkpt>
      <trkpt lat="43.5708" lon="3.68511">
        <ele>141</ele>
        <time>2013-01-10T08:28:12Z</time>
      </trkpt>
      <trkpt lat="43.57083" lon="3.68499">
        <ele>141</ele>
        <time>2013-01-10T08:28:19Z</time>
      </trkpt>
      <trkpt lat="43.57088" lon="3.68488">
        <ele>141</ele>
        <time>2013-01-10T08:28:27Z</time>
      </trkpt>
      <trkpt lat="43.57089" lon="3.68475">
        <ele>141</ele>
        <time>2013-01-10T08:28:40Z</time>
      </trkpt>
      <trkpt lat="43.57088" lon="3.68461">
        <ele>141</ele>
        <time>2013-01-10T08:28:49Z</time>
      </trkpt>
      <trkpt lat="43.57086" lon="3.68449">
        <ele>141</ele>
        <time>2013-01-10T08:29:00Z</time>
      </trkpt>
      <trkpt lat="43.57079" lon="3.6844">
        <ele>141</ele>
        <time>2013-01-10T08:29:09Z</time>
      </trkpt>
      <trkpt lat="43.57071" lon="3.68433">
        <ele>141</ele>
        <time>2013-01-10T08:29:17Z</time>
      </trkpt>
      <trkpt lat="43.57062" lon="3.68431">
        <ele>135</ele>
        <time>2013-01-10T08:29:25Z</time>
      </trkpt>
      <trkpt lat="43.57054" lon="3.68439">
        <ele>135</ele>
        <time>2013-01-10T08:29:33Z</time>
      </trkpt>
      <trkpt lat="43.57046" lon="3.68444">
        <ele>135</ele>
        <time>2013-01-10T08:29:40Z</time>
      </trkpt>
      <trkpt lat="43.57037" lon="3.68444">
        <ele>135</ele>
        <time>2013-01-10T08:29:48Z</time>
      </trkpt>
      <trkpt lat="43.57028" lon="3.68449">
        <ele>135</ele>
        <time>2013-01-10T08:29:56Z</time>
      </trkpt>
      <trkpt lat="43.57037" lon="3.68446">
        <ele>135</ele>
        <time>2013-01-10T08:31:06Z</time>
      </trkpt>
      <trkpt lat="43.57046" lon="3.68448">
        <ele>135</ele>
        <time>2013-01-10T08:31:23Z</time>
      </trkpt>
      <trkpt lat="43.57052" lon="3.68439">
        <ele>135</ele>
        <time>2013-01-10T08:31:32Z</time>
      </trkpt>
      <trkpt lat="43.57062" lon="3.68432">
        <ele>135</ele>
        <time>2013-01-10T08:31:42Z</time>
      </trkpt>
      <trkpt lat="43.57071" lon="3.68433">
        <ele>135</ele>
        <time>2013-01-10T08:31:51Z</time>
      </trkpt>
      <trkpt lat="43.57079" lon="3.68441">
        <ele>135</ele>
        <time>2013-01-10T08:32:05Z</time>
      </trkpt>
      <trkpt lat="43.57086" lon="3.68449">
        <ele>135</ele>
        <time>2013-01-10T08:32:13Z</time>
      </trkpt>
      <trkpt lat="43.57088" lon="3.68462">
        <ele>135</ele>
        <time>2013-01-10T08:32:21Z</time>
      </trkpt>
      <trkpt lat="43.5709" lon="3.68475">
        <ele>142</ele>
        <time>2013-01-10T08:32:35Z</time>
      </trkpt>
      <trkpt lat="43.57085" lon="3.68486">
        <ele>142</ele>
        <time>2013-01-10T08:32:46Z</time>
      </trkpt>
      <trkpt lat="43.5708" lon="3.68497">
        <ele>142</ele>
        <time>2013-01-10T08:32:57Z</time>
      </trkpt>
      <trkpt lat="43.57077" lon="3.68509">
        <ele>147</ele>
        <time>2013-01-10T08:33:08Z</time>
      </trkpt>
      <trkpt lat="43.57075" lon="3.68521">
        <ele>147</ele>
        <time>2013-01-10T08:33:18Z</time>
      </trkpt>
      <trkpt lat="43.57073" lon="3.68534">
        <ele>147</ele>
        <time>2013-01-10T08:33:27Z</time>
      </trkpt>
      <trkpt lat="43.57075" lon="3.68546">
        <ele>147</ele>
        <time>2013-01-10T08:33:37Z</time>
      </trkpt>
      <trkpt lat="43.57077" lon="3.68559">
        <ele>147</ele>
        <time>2013-01-10T08:33:45Z</time>
      </trkpt>
      <trkpt lat="43.57075" lon="3.68572">
        <ele>147</ele>
        <time>2013-01-10T08:33:52Z</time>
      </trkpt>
      <trkpt lat="43.57079" lon="3.6856">
        <ele>142</ele>
        <time>2013-01-10T08:34:18Z</time>
      </trkpt>
      <trkpt lat="43.57079" lon="3.68547">
        <ele>142</ele>
        <time>2013-01-10T08:34:52Z</time>
      </trkpt>
      <trkpt lat="43.57085" lon="3.68537">
        <ele>142</ele>
        <time>2013-01-10T08:35:08Z</time>
      </trkpt>
      <trkpt lat="43.5709" lon="3.68525">
        <ele>142</ele>
        <time>2013-01-10T08:35:16Z</time>
      </trkpt>
      <trkpt lat="43.57093" lon="3.68513">
        <ele>142</ele>
        <time>2013-01-10T08:35:23Z</time>
      </trkpt>
      <trkpt lat="43.57097" lon="3.68502">
        <ele>142</ele>
        <time>2013-01-10T08:35:30Z</time>
      </trkpt>
      <trkpt lat="43.57098" lon="3.6849">
        <ele>142</ele>
        <time>2013-01-10T08:37:04Z</time>
      </trkpt>
      <trkpt lat="43.57093" lon="3.6848">
        <ele>142</ele>
        <time>2013-01-10T08:37:36Z</time>
      </trkpt>
      <trkpt lat="43.57098" lon="3.6847">
        <ele>142</ele>
        <time>2013-01-10T08:37:57Z</time>
      </trkpt>
      <trkpt lat="43.57107" lon="3.68464">
        <ele>142</ele>
        <time>2013-01-10T08:38:11Z</time>
      </trkpt>
      <trkpt lat="43.57114" lon="3.68457">
        <ele>142</ele>
        <time>2013-01-10T08:38:24Z</time>
      </trkpt>
      <trkpt lat="43.5712" lon="3.68446">
        <ele>142</ele>
        <time>2013-01-10T08:38:37Z</time>
      </trkpt>
      <trkpt lat="43.57125" lon="3.68436">
        <ele>142</ele>
        <time>2013-01-10T08:38:51Z</time>
      </trkpt>
      <trkpt lat="43.57126" lon="3.68423">
        <ele>142</ele>
        <time>2013-01-10T08:39:07Z</time>
      </trkpt>
      <trkpt lat="43.57131" lon="3.68412">
        <ele>142</ele>
        <time>2013-01-10T08:39:15Z</time>
      </trkpt>
      <trkpt lat="43.57135" lon="3.684">
        <ele>142</ele>
        <time>2013-01-10T08:39:24Z</time>
      </trkpt>
      <trkpt lat="43.57139" lon="3.68388">
        <ele>142</ele>
        <time>2013-01-10T08:39:38Z</time>
      </trkpt>
      <trkpt lat="43.57144" lon="3.68376">
        <ele>142</ele>
        <time>2013-01-10T08:39:50Z</time>
      </trkpt>
      <trkpt lat="43.57153" lon="3.68374">
        <ele>142</ele>
        <time>2013-01-10T08:40:00Z</time>
      </trkpt>
      <trkpt lat="43.57162" lon="3.68379">
        <ele>142</ele>
        <time>2013-01-10T08:40:10Z</time>
      </trkpt>
      <trkpt lat="43.57171" lon="3.68381">
        <ele>142</ele>
        <time>2013-01-10T08:40:27Z</time>
      </trkpt>
      <trkpt lat="43.5718" lon="3.68381">
        <ele>142</ele>
        <time>2013-01-10T08:40:38Z</time>
      </trkpt>
      <trkpt lat="43.57185" lon="3.6837">
        <ele>142</ele>
        <time>2013-01-10T08:40:52Z</time>
      </trkpt>
      <trkpt lat="43.57194" lon="3.6837">
        <ele>142</ele>
        <time>2013-01-10T08:41:19Z</time>
      </trkpt>
      <trkpt lat="43.57201" lon="3.68361">
        <ele>142</ele>
        <time>2013-01-10T08:41:37Z</time>
      </trkpt>
      <trkpt lat="43.57208" lon="3.68354">
        <ele>142</ele>
        <time>2013-01-10T08:42:02Z</time>
      </trkpt>
      <trkpt lat="43.57206" lon="3.68342">
        <ele>142</ele>
        <time>2013-01-10T08:42:24Z</time>
      </trkpt>
      <trkpt lat="43.57209" lon="3.6833">
        <ele>142</ele>
        <time>2013-01-10T08:42:41Z</time>
      </trkpt>
      <trkpt lat="43.57215" lon="3.68321">
        <ele>142</ele>
        <time>2013-01-10T08:42:50Z</time>
      </trkpt>
      <trkpt lat="43.57219" lon="3.68308">
        <ele>142</ele>
        <time>2013-01-10T08:43:01Z</time>
      </trkpt>
      <trkpt lat="43.57214" lon="3.68298">
        <ele>142</ele>
        <time>2013-01-10T08:43:12Z</time>
      </trkpt>
      <trkpt lat="43.57206" lon="3.6829">
        <ele>142</ele>
        <time>2013-01-10T08:44:07Z</time>
      </trkpt>
      <trkpt lat="43.57197" lon="3.68285">
        <ele>142</ele>
        <time>2013-01-10T08:44:14Z</time>
      </trkpt>
      <trkpt lat="43.57188" lon="3.68281">
        <ele>142</ele>
        <time>2013-01-10T08:44:22Z</time>
      </trkpt>
      <trkpt lat="43.57178" lon="3.68279">
        <ele>142</ele>
        <time>2013-01-10T08:44:29Z</time>
      </trkpt>
      <trkpt lat="43.57169" lon="3.6828">
        <ele>142</ele>
        <time>2013-01-10T08:44:37Z</time>
      </trkpt>
      <trkpt lat="43.5716" lon="3.68279">
        <ele>142</ele>
        <time>2013-01-10T08:44:45Z</time>
      </trkpt>
      <trkpt lat="43.57151" lon="3.68282">
        <ele>142</ele>
        <time>2013-01-10T08:44:52Z</time>
      </trkpt>
      <trkpt lat="43.57143" lon="3.68279">
        <ele>142</ele>
        <time>2013-01-10T08:45:00Z</time>
      </trkpt>
      <trkpt lat="43.57136" lon="3.6827">
        <ele>142</ele>
        <time>2013-01-10T08:45:12Z</time>
      </trkpt>
      <trkpt lat="43.57137" lon="3.68256">
        <ele>142</ele>
        <time>2013-01-10T08:45:19Z</time>
      </trkpt>
      <trkpt lat="43.57138" lon="3.68243">
        <ele>142</ele>
        <time>2013-01-10T08:45:26Z</time>
      </trkpt>
      <trkpt lat="43.57138" lon="3.6823">
        <ele>142</ele>
        <time>2013-01-10T08:45:33Z</time>
      </trkpt>
      <trkpt lat="43.57138" lon="3.68218">
        <ele>142</ele>
        <time>2013-01-10T08:45:40Z</time>
      </trkpt>
      <trkpt lat="43.57137" lon="3.68205">
        <ele>142</ele>
        <time>2013-01-10T08:46:12Z</time>
      </trkpt>
      <trkpt lat="43.57131" lon="3.68193">
        <ele>142</ele>
        <time>2013-01-10T08:46:20Z</time>
      </trkpt>
      <trkpt lat="43.57126" lon="3.68182">
        <ele>142</ele>
        <time>2013-01-10T08:46:28Z</time>
      </trkpt>
      <trkpt lat="43.57128" lon="3.68169">
        <ele>142</ele>
        <time>2013-01-10T08:46:37Z</time>
      </trkpt>
      <trkpt lat="43.57137" lon="3.68167">
        <ele>142</ele>
        <time>2013-01-10T08:46:45Z</time>
      </trkpt>
      <trkpt lat="43.57146" lon="3.6817">
        <ele>142</ele>
        <time>2013-01-10T08:46:54Z</time>
      </trkpt>
      <trkpt lat="43.57154" lon="3.68177">
        <ele>142</ele>
        <time>2013-01-10T08:47:02Z</time>
      </trkpt>
      <trkpt lat="43.57161" lon="3.68186">
        <ele>142</ele>
        <time>2013-01-10T08:47:09Z</time>
      </trkpt>
      <trkpt lat="43.57167" lon="3.68196">
        <ele>142</ele>
        <time>2013-01-10T08:47:16Z</time>
      </trkpt>
      <trkpt lat="43.57175" lon="3.68202">
        <ele>142</ele>
        <time>2013-01-10T08:47:23Z</time>
      </trkpt>
      <trkpt lat="43.57184" lon="3.68201">
        <ele>142</ele>
        <time>2013-01-10T08:47:29Z</time>
      </trkpt>
      <trkpt lat="43.57193" lon="3.682">
        <ele>142</ele>
        <time>2013-01-10T08:47:36Z</time>
      </trkpt>
      <trkpt lat="43.57199" lon="3.68189">
        <ele>142</ele>
        <time>2013-01-10T08:47:43Z</time>
      </trkpt>
      <trkpt lat="43.57206" lon="3.68181">
        <ele>142</ele>
        <time>2013-01-10T08:47:50Z</time>
      </trkpt>
      <trkpt lat="43.57216" lon="3.68176">
        <ele>142</ele>
        <time>2013-01-10T08:47:58Z</time>
      </trkpt>
      <trkpt lat="43.57225" lon="3.68176">
        <ele>142</ele>
        <time>2013-01-10T08:48:06Z</time>
      </trkpt>
      <trkpt lat="43.57235" lon="3.68176">
        <ele>142</ele>
        <time>2013-01-10T08:48:13Z</time>
      </trkpt>
      <trkpt lat="43.57245" lon="3.6818">
        <ele>142</ele>
        <time>2013-01-10T08:48:21Z</time>
      </trkpt>
      <trkpt lat="43.57254" lon="3.68185">
        <ele>142</ele>
        <time>2013-01-10T08:48:40Z</time>
      </trkpt>
      <trkpt lat="43.57263" lon="3.6819">
        <ele>142</ele>
        <time>2013-01-10T08:48:48Z</time>
      </trkpt>
      <trkpt lat="43.5727" lon="3.68197">
        <ele>142</ele>
        <time>2013-01-10T08:48:55Z</time>
      </trkpt>
      <trkpt lat="43.57278" lon="3.68204">
        <ele>142</ele>
        <time>2013-01-10T08:49:02Z</time>
      </trkpt>
      <trkpt lat="43.57284" lon="3.68213">
        <ele>142</ele>
        <time>2013-01-10T08:49:09Z</time>
      </trkpt>
      <trkpt lat="43.57293" lon="3.68215">
        <ele>142</ele>
        <time>2013-01-10T08:49:16Z</time>
      </trkpt>
      <trkpt lat="43.57303" lon="3.68217">
        <ele>142</ele>
        <time>2013-01-10T08:49:23Z</time>
      </trkpt>
      <trkpt lat="43.5731" lon="3.68223">
        <ele>142</ele>
        <time>2013-01-10T08:49:30Z</time>
      </trkpt>
      <trkpt lat="43.57316" lon="3.68234">
        <ele>142</ele>
        <time>2013-01-10T08:49:37Z</time>
      </trkpt>
      <trkpt lat="43.57323" lon="3.68242">
        <ele>142</ele>
        <time>2013-01-10T08:49:44Z</time>
      </trkpt>
      <trkpt lat="43.57333" lon="3.68246">
        <ele>142</ele>
        <time>2013-01-10T08:49:51Z</time>
      </trkpt>
      <trkpt lat="43.57341" lon="3.6825">
        <ele>142</ele>
        <time>2013-01-10T08:49:58Z</time>
      </trkpt>
      <trkpt lat="43.57348" lon="3.68257">
        <ele>142</ele>
        <time>2013-01-10T08:50:05Z</time>
      </trkpt>
      <trkpt lat="43.57356" lon="3.68264">
        <ele>142</ele>
        <time>2013-01-10T08:50:12Z</time>
      </trkpt>
      <trkpt lat="43.57366" lon="3.68266">
        <ele>142</ele>
        <time>2013-01-10T08:50:20Z</time>
      </trkpt>
      <trkpt lat="43.57375" lon="3.68268">
        <ele>142</ele>
        <time>2013-01-10T08:50:27Z</time>
      </trkpt>
      <trkpt lat="43.57385" lon="3.68269">
        <ele>142</ele>
        <time>2013-01-10T08:50:35Z</time>
      </trkpt>
      <trkpt lat="43.57393" lon="3.68276">
        <ele>142</ele>
        <time>2013-01-10T08:50:43Z</time>
      </trkpt>
      <trkpt lat="43.57401" lon="3.6828">
        <ele>142</ele>
        <time>2013-01-10T08:50:50Z</time>
      </trkpt>
      <trkpt lat="43.5741" lon="3.68284">
        <ele>142</ele>
        <time>2013-01-10T08:50:57Z</time>
      </trkpt>
      <trkpt lat="43.57418" lon="3.6829">
        <ele>142</ele>
        <time>2013-01-10T08:51:04Z</time>
      </trkpt>
      <trkpt lat="43.57425" lon="3.68297">
        <ele>142</ele>
        <time>2013-01-10T08:51:11Z</time>
      </trkpt>
      <trkpt lat="43.57433" lon="3.68306">
        <ele>142</ele>
        <time>2013-01-10T08:51:19Z</time>
      </trkpt>
      <trkpt lat="43.5744" lon="3.68314">
        <ele>142</ele>
        <time>2013-01-10T08:51:27Z</time>
      </trkpt>
      <trkpt lat="43.57448" lon="3.68321">
        <ele>142</ele>
        <time>2013-01-10T08:51:38Z</time>
      </trkpt>
      <trkpt lat="43.57454" lon="3.6833">
        <ele>142</ele>
        <time>2013-01-10T08:51:45Z</time>
      </trkpt>
      <trkpt lat="43.57461" lon="3.68339">
        <ele>142</ele>
        <time>2013-01-10T08:51:53Z</time>
      </trkpt>
      <trkpt lat="43.57468" lon="3.68346">
        <ele>142</ele>
        <time>2013-01-10T08:52:02Z</time>
      </trkpt>
      <trkpt lat="43.57476" lon="3.68354">
        <ele>142</ele>
        <time>2013-01-10T08:52:10Z</time>
      </trkpt>
      <trkpt lat="43.57482" lon="3.68364">
        <ele>142</ele>
        <time>2013-01-10T08:52:17Z</time>
      </trkpt>
      <trkpt lat="43.57483" lon="3.68378">
        <ele>142</ele>
        <time>2013-01-10T08:52:25Z</time>
      </trkpt>
      <trkpt lat="43.57481" lon="3.6839">
        <ele>142</ele>
        <time>2013-01-10T08:52:33Z</time>
      </trkpt>
      <trkpt lat="43.57479" lon="3.68404">
        <ele>142</ele>
        <time>2013-01-10T08:52:41Z</time>
      </trkpt>
      <trkpt lat="43.5748" lon="3.68417">
        <ele>142</ele>
        <time>2013-01-10T08:52:49Z</time>
      </trkpt>
      <trkpt lat="43.57482" lon="3.6843">
        <ele>142</ele>
        <time>2013-01-10T08:52:56Z</time>
      </trkpt>
      <trkpt lat="43.57484" lon="3.68442">
        <ele>142</ele>
        <time>2013-01-10T08:53:04Z</time>
      </trkpt>
      <trkpt lat="43.57489" lon="3.68454">
        <ele>142</ele>
        <time>2013-01-10T08:53:14Z</time>
      </trkpt>
      <trkpt lat="43.57495" lon="3.68464">
        <ele>142</ele>
        <time>2013-01-10T08:53:21Z</time>
      </trkpt>
      <trkpt lat="43.57499" lon="3.68476">
        <ele>142</ele>
        <time>2013-01-10T08:53:29Z</time>
      </trkpt>
      <trkpt lat="43.57504" lon="3.68486">
        <ele>142</ele>
        <time>2013-01-10T08:53:37Z</time>
      </trkpt>
      <trkpt lat="43.5751" lon="3.68496">
        <ele>142</ele>
        <time>2013-01-10T08:55:50Z</time>
      </trkpt>
      <trkpt lat="43.57514" lon="3.68509">
        <ele>142</ele>
        <time>2013-01-10T08:55:58Z</time>
      </trkpt>
      <trkpt lat="43.57511" lon="3.68497">
        <ele>142</ele>
        <time>2013-01-10T08:57:08Z</time>
      </trkpt>
      <trkpt lat="43.57515" lon="3.68485">
        <ele>142</ele>
        <time>2013-01-10T08:57:52Z</time>
      </trkpt>
      <trkpt lat="43.57523" lon="3.68476">
        <ele>142</ele>
        <time>2013-01-10T08:58:01Z</time>
      </trkpt>
      <trkpt lat="43.5753" lon="3.68467">
        <ele>142</ele>
        <time>2013-01-10T08:58:09Z</time>
      </trkpt>
      <trkpt lat="43.57537" lon="3.6846">
        <ele>142</ele>
        <time>2013-01-10T08:58:16Z</time>
      </trkpt>
      <trkpt lat="43.57545" lon="3.68451">
        <ele>142</ele>
        <time>2013-01-10T08:58:24Z</time>
      </trkpt>
      <trkpt lat="43.57552" lon="3.68443">
        <ele>142</ele>
        <time>2013-01-10T08:58:31Z</time>
      </trkpt>
      <trkpt lat="43.57559" lon="3.68436">
        <ele>142</ele>
        <time>2013-01-10T08:58:38Z</time>
      </trkpt>
      <trkpt lat="43.57565" lon="3.68425">
        <ele>142</ele>
        <time>2013-01-10T08:58:46Z</time>
      </trkpt>
      <trkpt lat="43.5757" lon="3.68415">
        <ele>142</ele>
        <time>2013-01-10T08:58:54Z</time>
      </trkpt>
      <trkpt lat="43.57575" lon="3.68405">
        <ele>142</ele>
        <time>2013-01-10T08:59:02Z</time>
      </trkpt>
      <trkpt lat="43.57579" lon="3.68393">
        <ele>142</ele>
        <time>2013-01-10T08:59:10Z</time>
      </trkpt>
      <trkpt lat="43.57582" lon="3.68381">
        <ele>148</ele>
        <time>2013-01-10T08:59:18Z</time>
      </trkpt>
      <trkpt lat="43.57586" lon="3.68369">
        <ele>148</ele>
        <time>2013-01-10T08:59:30Z</time>
      </trkpt>
      <trkpt lat="43.57593" lon="3.68361">
        <ele>143</ele>
        <time>2013-01-10T08:59:41Z</time>
      </trkpt>
      <trkpt lat="43.57602" lon="3.68364">
        <ele>143</ele>
        <time>2013-01-10T08:59:49Z</time>
      </trkpt>
      <trkpt lat="43.57611" lon="3.68364">
        <ele>143</ele>
        <time>2013-01-10T08:59:56Z</time>
      </trkpt>
      <trkpt lat="43.57621" lon="3.68366">
        <ele>143</ele>
        <time>2013-01-10T09:00:03Z</time>
      </trkpt>
      <trkpt lat="43.5763" lon="3.68363">
        <ele>143</ele>
        <time>2013-01-10T09:00:11Z</time>
      </trkpt>
      <trkpt lat="43.57638" lon="3.68357">
        <ele>143</ele>
        <time>2013-01-10T09:00:19Z</time>
      </trkpt>
      <trkpt lat="43.57647" lon="3.68353">
        <ele>143</ele>
        <time>2013-01-10T09:00:26Z</time>
      </trkpt>
      <trkpt lat="43.57655" lon="3.68347">
        <ele>143</ele>
        <time>2013-01-10T09:00:36Z</time>
      </trkpt>
      <trkpt lat="43.57663" lon="3.6834">
        <ele>143</ele>
        <time>2013-01-10T09:00:44Z</time>
      </trkpt>
      <trkpt lat="43.57672" lon="3.68336">
        <ele>143</ele>
        <time>2013-01-10T09:00:52Z</time>
      </trkpt>
      <trkpt lat="43.57679" lon="3.68328">
        <ele>143</ele>
        <time>2013-01-10T09:00:59Z</time>
      </trkpt>
      <trkpt lat="43.57688" lon="3.68322">
        <ele>143</ele>
        <time>2013-01-10T09:01:06Z</time>
      </trkpt>
      <trkpt lat="43.57696" lon="3.68328">
        <ele>143</ele>
        <time>2013-01-10T09:01:15Z</time>
      </trkpt>
      <trkpt lat="43.57695" lon="3.68341">
        <ele>143</ele>
        <time>2013-01-10T09:01:23Z</time>
      </trkpt>
      <trkpt lat="43.5769" lon="3.68351">
        <ele>143</ele>
        <time>2013-01-10T09:01:32Z</time>
      </trkpt>
      <trkpt lat="43.57686" lon="3.68362">
        <ele>137</ele>
        <time>2013-01-10T09:01:40Z</time>
      </trkpt>
      <trkpt lat="43.57681" lon="3.68374">
        <ele>137</ele>
        <time>2013-01-10T09:01:48Z</time>
      </trkpt>
      <trkpt lat="43.57677" lon="3.68386">
        <ele>137</ele>
        <time>2013-01-10T09:01:56Z</time>
      </trkpt>
      <trkpt lat="43.57675" lon="3.68397">
        <ele>137</ele>
        <time>2013-01-10T09:02:03Z</time>
      </trkpt>
      <trkpt lat="43.57672" lon="3.68409">
        <ele>137</ele>
        <time>2013-01-10T09:02:10Z</time>
      </trkpt>
      <trkpt lat="43.5767" lon="3.68422">
        <ele>137</ele>
        <time>2013-01-10T09:02:17Z</time>
      </trkpt>
      <trkpt lat="43.5767" lon="3.68435">
        <ele>137</ele>
        <time>2013-01-10T09:02:25Z</time>
      </trkpt>
      <trkpt lat="43.5767" lon="3.68449">
        <ele>137</ele>
        <time>2013-01-10T09:02:34Z</time>
      </trkpt>
      <trkpt lat="43.57675" lon="3.6846">
        <ele>137</ele>
        <time>2013-01-10T09:02:46Z</time>
      </trkpt>
      <trkpt lat="43.57679" lon="3.68471">
        <ele>137</ele>
        <time>2013-01-10T09:02:56Z</time>
      </trkpt>
      <trkpt lat="43.57687" lon="3.68478">
        <ele>137</ele>
        <time>2013-01-10T09:03:06Z</time>
      </trkpt>
      <trkpt lat="43.57694" lon="3.68487">
        <ele>137</ele>
        <time>2013-01-10T09:03:16Z</time>
      </trkpt>
      <trkpt lat="43.57701" lon="3.68495">
        <ele>137</ele>
        <time>2013-01-10T09:03:25Z</time>
      </trkpt>
      <trkpt lat="43.57707" lon="3.68505">
        <ele>137</ele>
        <time>2013-01-10T09:03:34Z</time>
      </trkpt>
      <trkpt lat="43.57713" lon="3.68514">
        <ele>137</ele>
        <time>2013-01-10T09:03:41Z</time>
      </trkpt>
      <trkpt lat="43.5772" lon="3.68523">
        <ele>137</ele>
        <time>2013-01-10T09:03:50Z</time>
      </trkpt>
      <trkpt lat="43.57724" lon="3.68535">
        <ele>137</ele>
        <time>2013-01-10T09:03:59Z</time>
      </trkpt>
      <trkpt lat="43.57732" lon="3.68541">
        <ele>137</ele>
        <time>2013-01-10T09:04:07Z</time>
      </trkpt>
      <trkpt lat="43.57739" lon="3.68548">
        <ele>143</ele>
        <time>2013-01-10T09:04:16Z</time>
      </trkpt>
      <trkpt lat="43.57746" lon="3.68559">
        <ele>143</ele>
        <time>2013-01-10T09:04:27Z</time>
      </trkpt>
      <trkpt lat="43.57751" lon="3.68571">
        <ele>143</ele>
        <time>2013-01-10T09:04:36Z</time>
      </trkpt>
      <trkpt lat="43.57751" lon="3.68583">
        <ele>143</ele>
        <time>2013-01-10T09:04:45Z</time>
      </trkpt>
      <trkpt lat="43.57756" lon="3.68594">
        <ele>143</ele>
        <time>2013-01-10T09:04:53Z</time>
      </trkpt>
      <trkpt lat="43.57762" lon="3.68604">
        <ele>143</ele>
        <time>2013-01-10T09:05:02Z</time>
      </trkpt>
      <trkpt lat="43.57766" lon="3.68616">
        <ele>143</ele>
        <time>2013-01-10T09:05:10Z</time>
      </trkpt>
      <trkpt lat="43.5777" lon="3.68627">
        <ele>143</ele>
        <time>2013-01-10T09:05:18Z</time>
      </trkpt>
      <trkpt lat="43.57775" lon="3.68638">
        <ele>143</ele>
        <time>2013-01-10T09:05:28Z</time>
      </trkpt>
      <trkpt lat="43.5778" lon="3.68651">
        <ele>143</ele>
        <time>2013-01-10T09:05:38Z</time>
      </trkpt>
      <trkpt lat="43.57783" lon="3.68662">
        <ele>143</ele>
        <time>2013-01-10T09:05:48Z</time>
      </trkpt>
      <trkpt lat="43.57781" lon="3.68675">
        <ele>143</ele>
        <time>2013-01-10T09:05:56Z</time>
      </trkpt>
      <trkpt lat="43.57783" lon="3.68687">
        <ele>143</ele>
        <time>2013-01-10T09:06:04Z</time>
      </trkpt>
      <trkpt lat="43.57787" lon="3.68699">
        <ele>143</ele>
        <time>2013-01-10T09:06:12Z</time>
      </trkpt>
      <trkpt lat="43.57792" lon="3.68712">
        <ele>143</ele>
        <time>2013-01-10T09:06:20Z</time>
      </trkpt>
      <trkpt lat="43.57796" lon="3.68724">
        <ele>143</ele>
        <time>2013-01-10T09:06:28Z</time>
      </trkpt>
      <trkpt lat="43.57801" lon="3.68734">
        <ele>143</ele>
        <time>2013-01-10T09:06:35Z</time>
      </trkpt>
      <trkpt lat="43.57807" lon="3.68744">
        <ele>143</ele>
        <time>2013-01-10T09:06:42Z</time>
      </trkpt>
      <trkpt lat="43.57812" lon="3.68754">
        <ele>143</ele>
        <time>2013-01-10T09:06:49Z</time>
      </trkpt>
      <trkpt lat="43.57819" lon="3.68764">
        <ele>143</ele>
        <time>2013-01-10T09:06:57Z</time>
      </trkpt>
      <trkpt lat="43.57821" lon="3.68777">
        <ele>137</ele>
        <time>2013-01-10T09:07:05Z</time>
      </trkpt>
      <trkpt lat="43.57825" lon="3.68789">
        <ele>137</ele>
        <time>2013-01-10T09:07:13Z</time>
      </trkpt>
      <trkpt lat="43.57829" lon="3.68801">
        <ele>137</ele>
        <time>2013-01-10T09:07:21Z</time>
      </trkpt>
      <trkpt lat="43.57834" lon="3.68811">
        <ele>137</ele>
        <time>2013-01-10T09:07:29Z</time>
      </trkpt>
      <trkpt lat="43.5784" lon="3.68822">
        <ele>137</ele>
        <time>2013-01-10T09:07:37Z</time>
      </trkpt>
      <trkpt lat="43.57849" lon="3.68824">
        <ele>137</ele>
        <time>2013-01-10T09:07:44Z</time>
      </trkpt>
      <trkpt lat="43.57858" lon="3.68825">
        <ele>137</ele>
        <time>2013-01-10T09:07:51Z</time>
      </trkpt>
      <trkpt lat="43.57867" lon="3.68829">
        <ele>137</ele>
        <time>2013-01-10T09:07:59Z</time>
      </trkpt>
      <trkpt lat="43.57877" lon="3.68829">
        <ele>137</ele>
        <time>2013-01-10T09:08:16Z</time>
      </trkpt>
      <trkpt lat="43.57886" lon="3.68828">
        <ele>137</ele>
        <time>2013-01-10T09:08:24Z</time>
      </trkpt>
      <trkpt lat="43.57896" lon="3.68826">
        <ele>137</ele>
        <time>2013-01-10T09:08:32Z</time>
      </trkpt>
      <trkpt lat="43.57905" lon="3.68825">
        <ele>137</ele>
        <time>2013-01-10T09:08:41Z</time>
      </trkpt>
      <trkpt lat="43.57914" lon="3.68831">
        <ele>137</ele>
        <time>2013-01-10T09:08:49Z</time>
      </trkpt>
      <trkpt lat="43.57921" lon="3.68838">
        <ele>137</ele>
        <time>2013-01-10T09:08:57Z</time>
      </trkpt>
      <trkpt lat="43.5793" lon="3.68845">
        <ele>137</ele>
        <time>2013-01-10T09:09:05Z</time>
      </trkpt>
      <trkpt lat="43.57939" lon="3.68847">
        <ele>137</ele>
        <time>2013-01-10T09:09:12Z</time>
      </trkpt>
      <trkpt lat="43.57948" lon="3.68847">
        <ele>137</ele>
        <time>2013-01-10T09:09:20Z</time>
      </trkpt>
      <trkpt lat="43.57956" lon="3.68843">
        <ele>137</ele>
        <time>2013-01-10T09:09:28Z</time>
      </trkpt>
      <trkpt lat="43.57965" lon="3.68835">
        <ele>137</ele>
        <time>2013-01-10T09:09:36Z</time>
      </trkpt>
      <trkpt lat="43.57971" lon="3.68825">
        <ele>137</ele>
        <time>2013-01-10T09:09:45Z</time>
      </trkpt>
      <trkpt lat="43.57978" lon="3.68816">
        <ele>137</ele>
        <time>2013-01-10T09:09:54Z</time>
      </trkpt>
      <trkpt lat="43.57983" lon="3.68805">
        <ele>143</ele>
        <time>2013-01-10T09:10:03Z</time>
      </trkpt>
      <trkpt lat="43.57991" lon="3.68796">
        <ele>143</ele>
        <time>2013-01-10T09:10:12Z</time>
      </trkpt>
      <trkpt lat="43.57999" lon="3.68791">
        <ele>143</ele>
        <time>2013-01-10T09:10:22Z</time>
      </trkpt>
      <trkpt lat="43.58009" lon="3.68792">
        <ele>143</ele>
        <time>2013-01-10T09:10:32Z</time>
      </trkpt>
      <trkpt lat="43.58018" lon="3.68788">
        <ele>143</ele>
        <time>2013-01-10T09:10:41Z</time>
      </trkpt>
      <trkpt lat="43.58026" lon="3.68781">
        <ele>148</ele>
        <time>2013-01-10T09:10:50Z</time>
      </trkpt>
      <trkpt lat="43.58034" lon="3.68775">
        <ele>148</ele>
        <time>2013-01-10T09:10:58Z</time>
      </trkpt>
      <trkpt lat="43.58043" lon="3.68768">
        <ele>148</ele>
        <time>2013-01-10T09:11:07Z</time>
      </trkpt>
      <trkpt lat="43.58051" lon="3.68765">
        <ele>148</ele>
        <time>2013-01-10T09:11:16Z</time>
      </trkpt>
      <trkpt lat="43.58061" lon="3.68763">
        <ele>148</ele>
        <time>2013-01-10T09:11:25Z</time>
      </trkpt>
      <trkpt lat="43.58069" lon="3.68767">
        <ele>148</ele>
        <time>2013-01-10T09:11:33Z</time>
      </trkpt>
      <trkpt lat="43.58078" lon="3.68766">
        <ele>148</ele>
        <time>2013-01-10T09:11:42Z</time>
      </trkpt>
      <trkpt lat="43.58087" lon="3.68761">
        <ele>148</ele>
        <time>2013-01-10T09:11:50Z</time>
      </trkpt>
      <trkpt lat="43.58094" lon="3.68752">
        <ele>148</ele>
        <time>2013-01-10T09:11:59Z</time>
      </trkpt>
      <trkpt lat="43.58101" lon="3.68745">
        <ele>148</ele>
        <time>2013-01-10T09:12:07Z</time>
      </trkpt>
      <trkpt lat="43.5811" lon="3.68738">
        <ele>148</ele>
        <time>2013-01-10T09:12:16Z</time>
      </trkpt>
      <trkpt lat="43.58118" lon="3.68731">
        <ele>148</ele>
        <time>2013-01-10T09:12:25Z</time>
      </trkpt>
      <trkpt lat="43.58125" lon="3.68723">
        <ele>148</ele>
        <time>2013-01-10T09:12:34Z</time>
      </trkpt>
      <trkpt lat="43.58133" lon="3.68716">
        <ele>154</ele>
        <time>2013-01-10T09:12:43Z</time>
      </trkpt>
      <trkpt lat="43.58141" lon="3.68709">
        <ele>154</ele>
        <time>2013-01-10T09:12:52Z</time>
      </trkpt>
      <trkpt lat="43.58148" lon="3.687">
        <ele>154</ele>
        <time>2013-01-10T09:13:01Z</time>
      </trkpt>
      <trkpt lat="43.58155" lon="3.68692">
        <ele>154</ele>
        <time>2013-01-10T09:13:10Z</time>
      </trkpt>
      <trkpt lat="43.58162" lon="3.68685">
        <ele>154</ele>
        <time>2013-01-10T09:13:18Z</time>
      </trkpt>
      <trkpt lat="43.58169" lon="3.68677">
        <ele>154</ele>
        <time>2013-01-10T09:13:27Z</time>
      </trkpt>
      <trkpt lat="43.58176" lon="3.68667">
        <ele>154</ele>
        <time>2013-01-10T09:14:44Z</time>
      </trkpt>
      <trkpt lat="43.58178" lon="3.68654">
        <ele>154</ele>
        <time>2013-01-10T09:14:54Z</time>
      </trkpt>
      <trkpt lat="43.58179" lon="3.68642">
        <ele>154</ele>
        <time>2013-01-10T09:15:15Z</time>
      </trkpt>
      <trkpt lat="43.5818" lon="3.68628">
        <ele>159</ele>
        <time>2013-01-10T09:15:24Z</time>
      </trkpt>
      <trkpt lat="43.5818" lon="3.68616">
        <ele>159</ele>
        <time>2013-01-10T09:15:34Z</time>
      </trkpt>
      <trkpt lat="43.5818" lon="3.68602">
        <ele>159</ele>
        <time>2013-01-10T09:15:45Z</time>
      </trkpt>
      <trkpt lat="43.58179" lon="3.6859">
        <ele>159</ele>
        <time>2013-01-10T09:15:55Z</time>
      </trkpt>
      <trkpt lat="43.58177" lon="3.68577">
        <ele>159</ele>
        <time>2013-01-10T09:16:07Z</time>
      </trkpt>
      <trkpt lat="43.58173" lon="3.68565">
        <ele>164</ele>
        <time>2013-01-10T09:20:26Z</time>
      </trkpt>
      <trkpt lat="43.58168" lon="3.68555">
        <ele>164</ele>
        <time>2013-01-10T09:20:35Z</time>
      </trkpt>
      <trkpt lat="43.58163" lon="3.68545">
        <ele>164</ele>
        <time>2013-01-10T09:20:43Z</time>
      </trkpt>
      <trkpt lat="43.58157" lon="3.68535">
        <ele>164</ele>
        <time>2013-01-10T09:20:51Z</time>
      </trkpt>
      <trkpt lat="43.58152" lon="3.68525">
        <ele>164</ele>
        <time>2013-01-10T09:21:00Z</time>
      </trkpt>
      <trkpt lat="43.58146" lon="3.68515">
        <ele>164</ele>
        <time>2013-01-10T09:21:08Z</time>
      </trkpt>
      <trkpt lat="43.5814" lon="3.68505">
        <ele>169</ele>
        <time>2013-01-10T09:21:16Z</time>
      </trkpt>
      <trkpt lat="43.58137" lon="3.68493">
        <ele>169</ele>
        <time>2013-01-10T09:21:24Z</time>
      </trkpt>
      <trkpt lat="43.58137" lon="3.6848">
        <ele>169</ele>
        <time>2013-01-10T09:21:32Z</time>
      </trkpt>
      <trkpt lat="43.58135" lon="3.68467">
        <ele>169</ele>
        <time>2013-01-10T09:21:40Z</time>
      </trkpt>
      <trkpt lat="43.58133" lon="3.68454">
        <ele>169</ele>
        <time>2013-01-10T09:21:48Z</time>
      </trkpt>
      <trkpt lat="43.58131" lon="3.68441">
        <ele>169</ele>
        <time>2013-01-10T09:21:56Z</time>
      </trkpt>
      <trkpt lat="43.58128" lon="3.68429">
        <ele>169</ele>
        <time>2013-01-10T09:22:04Z</time>
      </trkpt>
      <trkpt lat="43.58125" lon="3.68417">
        <ele>169</ele>
        <time>2013-01-10T09:22:13Z</time>
      </trkpt>
      <trkpt lat="43.58122" lon="3.68405">
        <ele>169</ele>
        <time>2013-01-10T09:22:23Z</time>
      </trkpt>
      <trkpt lat="43.58116" lon="3.68396">
        <ele>176</ele>
        <time>2013-01-10T09:22:33Z</time>
      </trkpt>
      <trkpt lat="43.58108" lon="3.68387">
        <ele>176</ele>
        <time>2013-01-10T09:22:44Z</time>
      </trkpt>
      <trkpt lat="43.58103" lon="3.68378">
        <ele>176</ele>
        <time>2013-01-10T09:22:55Z</time>
      </trkpt>
      <trkpt lat="43.58101" lon="3.68365">
        <ele>176</ele>
        <time>2013-01-10T09:23:04Z</time>
      </trkpt>
      <trkpt lat="43.58103" lon="3.68352">
        <ele>176</ele>
        <time>2013-01-10T09:23:13Z</time>
      </trkpt>
      <trkpt lat="43.58107" lon="3.68341">
        <ele>176</ele>
        <time>2013-01-10T09:23:22Z</time>
      </trkpt>
      <trkpt lat="43.58109" lon="3.68329">
        <ele>176</ele>
        <time>2013-01-10T09:23:30Z</time>
      </trkpt>
      <trkpt lat="43.58112" lon="3.68317">
        <ele>176</ele>
        <time>2013-01-10T09:23:38Z</time>
      </trkpt>
      <trkpt lat="43.58114" lon="3.68305">
        <ele>176</ele>
        <time>2013-01-10T09:23:47Z</time>
      </trkpt>
      <trkpt lat="43.58116" lon="3.68292">
        <ele>181</ele>
        <time>2013-01-10T09:24:06Z</time>
      </trkpt>
      <trkpt lat="43.58118" lon="3.68279">
        <ele>181</ele>
        <time>2013-01-10T09:24:16Z</time>
      </trkpt>
      <trkpt lat="43.58121" lon="3.68267">
        <ele>181</ele>
        <time>2013-01-10T09:24:26Z</time>
      </trkpt>
      <trkpt lat="43.58125" lon="3.68255">
        <ele>181</ele>
        <time>2013-01-10T09:24:36Z</time>
      </trkpt>
      <trkpt lat="43.58129" lon="3.68244">
        <ele>186</ele>
        <time>2013-01-10T09:24:46Z</time>
      </trkpt>
      <trkpt lat="43.58132" lon="3.68232">
        <ele>186</ele>
        <time>2013-01-10T09:24:58Z</time>
      </trkpt>
      <trkpt lat="43.58137" lon="3.68221">
        <ele>186</ele>
        <time>2013-01-10T09:25:11Z</time>
      </trkpt>
      <trkpt lat="43.58143" lon="3.68212">
        <ele>186</ele>
        <time>2013-01-10T09:25:20Z</time>
      </trkpt>
      <trkpt lat="43.5815" lon="3.68205">
        <ele>186</ele>
        <time>2013-01-10T09:25:29Z</time>
      </trkpt>
      <trkpt lat="43.58157" lon="3.68196">
        <ele>186</ele>
        <time>2013-01-10T09:25:40Z</time>
      </trkpt>
      <trkpt lat="43.58167" lon="3.68191">
        <ele>193</ele>
        <time>2013-01-10T09:25:50Z</time>
      </trkpt>
      <trkpt lat="43.58174" lon="3.68184">
        <ele>193</ele>
        <time>2013-01-10T09:26:00Z</time>
      </trkpt>
      <trkpt lat="43.58183" lon="3.6818">
        <ele>193</ele>
        <time>2013-01-10T09:26:10Z</time>
      </trkpt>
      <trkpt lat="43.58191" lon="3.68175">
        <ele>193</ele>
        <time>2013-01-10T09:26:20Z</time>
      </trkpt>
      <trkpt lat="43.58199" lon="3.68169">
        <ele>193</ele>
        <time>2013-01-10T09:26:29Z</time>
      </trkpt>
      <trkpt lat="43.58208" lon="3.68163">
        <ele>193</ele>
        <time>2013-01-10T09:26:38Z</time>
      </trkpt>
      <trkpt lat="43.58215" lon="3.68155">
        <ele>193</ele>
        <time>2013-01-10T09:26:47Z</time>
      </trkpt>
      <trkpt lat="43.58222" lon="3.68148">
        <ele>193</ele>
        <time>2013-01-10T09:26:56Z</time>
      </trkpt>
      <trkpt lat="43.58229" lon="3.6814">
        <ele>193</ele>
        <time>2013-01-10T09:27:04Z</time>
      </trkpt>
      <trkpt lat="43.58236" lon="3.68131">
        <ele>198</ele>
        <time>2013-01-10T09:27:13Z</time>
      </trkpt>
      <trkpt lat="43.58241" lon="3.68119">
        <ele>198</ele>
        <time>2013-01-10T09:27:22Z</time>
      </trkpt>
      <trkpt lat="43.58243" lon="3.68106">
        <ele>198</ele>
        <time>2013-01-10T09:27:30Z</time>
      </trkpt>
      <trkpt lat="43.58245" lon="3.68094">
        <ele>198</ele>
        <time>2013-01-10T09:27:38Z</time>
      </trkpt>
      <trkpt lat="43.5825" lon="3.68083">
        <ele>198</ele>
        <time>2013-01-10T09:27:46Z</time>
      </trkpt>
      <trkpt lat="43.58256" lon="3.68073">
        <ele>198</ele>
        <time>2013-01-10T09:27:55Z</time>
      </trkpt>
      <trkpt lat="43.58263" lon="3.68064">
        <ele>198</ele>
        <time>2013-01-10T09:28:03Z</time>
      </trkpt>
      <trkpt lat="43.5827" lon="3.68056">
        <ele>198</ele>
        <time>2013-01-10T09:28:12Z</time>
      </trkpt>
      <trkpt lat="43.58275" lon="3.68044">
        <ele>198</ele>
        <time>2013-01-10T09:28:24Z</time>
      </trkpt>
      <trkpt lat="43.58282" lon="3.68037">
        <ele>198</ele>
        <time>2013-01-10T09:28:33Z</time>
      </trkpt>
      <trkpt lat="43.58287" lon="3.68027">
        <ele>198</ele>
        <time>2013-01-10T09:28:42Z</time>
      </trkpt>
      <trkpt lat="43.58293" lon="3.68017">
        <ele>198</ele>
        <time>2013-01-10T09:28:50Z</time>
      </trkpt>
      <trkpt lat="43.58297" lon="3.68007">
        <ele>198</ele>
        <time>2013-01-10T09:28:58Z</time>
      </trkpt>
      <trkpt lat="43.583" lon="3.67994">
        <ele>198</ele>
        <time>2013-01-10T09:29:07Z</time>
      </trkpt>
      <trkpt lat="43.58297" lon="3.67981">
        <ele>205</ele>
        <time>2013-01-10T09:29:17Z</time>
      </trkpt>
      <trkpt lat="43.58293" lon="3.67969">
        <ele>205</ele>
        <time>2013-01-10T09:29:24Z</time>
      </trkpt>
      <trkpt lat="43.58289" lon="3.67957">
        <ele>205</ele>
        <time>2013-01-10T09:29:32Z</time>
      </trkpt>
      <trkpt lat="43.58285" lon="3.67945">
        <ele>205</ele>
        <time>2013-01-10T09:29:39Z</time>
      </trkpt>
      <trkpt lat="43.58283" lon="3.67934">
        <ele>205</ele>
        <time>2013-01-10T09:29:46Z</time>
      </trkpt>
      <trkpt lat="43.5828" lon="3.67922">
        <ele>205</ele>
        <time>2013-01-10T09:29:53Z</time>
      </trkpt>
      <trkpt lat="43.58277" lon="3.6791">
        <ele>205</ele>
        <time>2013-01-10T09:30:01Z</time>
      </trkpt>
      <trkpt lat="43.58275" lon="3.67896">
        <ele>205</ele>
        <time>2013-01-10T09:30:09Z</time>
      </trkpt>
      <trkpt lat="43.58275" lon="3.67883">
        <ele>205</ele>
        <time>2013-01-10T09:30:17Z</time>
      </trkpt>
      <trkpt lat="43.58276" lon="3.67869">
        <ele>205</ele>
        <time>2013-01-10T09:30:25Z</time>
      </trkpt>
      <trkpt lat="43.58282" lon="3.67859">
        <ele>205</ele>
        <time>2013-01-10T09:30:31Z</time>
      </trkpt>
      <trkpt lat="43.58284" lon="3.67847">
        <ele>199</ele>
        <time>2013-01-10T09:31:45Z</time>
      </trkpt>
      <trkpt lat="43.58283" lon="3.67834">
        <ele>199</ele>
        <time>2013-01-10T09:31:52Z</time>
      </trkpt>
      <trkpt lat="43.58285" lon="3.67821">
        <ele>199</ele>
        <time>2013-01-10T09:32:00Z</time>
      </trkpt>
      <trkpt lat="43.58287" lon="3.67807">
        <ele>199</ele>
        <time>2013-01-10T09:32:08Z</time>
      </trkpt>
      <trkpt lat="43.58287" lon="3.67794">
        <ele>199</ele>
        <time>2013-01-10T09:32:16Z</time>
      </trkpt>
      <trkpt lat="43.58286" lon="3.67781">
        <ele>199</ele>
        <time>2013-01-10T09:32:23Z</time>
      </trkpt>
      <trkpt lat="43.58285" lon="3.67769">
        <ele>199</ele>
        <time>2013-01-10T09:32:31Z</time>
      </trkpt>
      <trkpt lat="43.58283" lon="3.67755">
        <ele>199</ele>
        <time>2013-01-10T09:32:40Z</time>
      </trkpt>
      <trkpt lat="43.58282" lon="3.67742">
        <ele>199</ele>
        <time>2013-01-10T09:32:49Z</time>
      </trkpt>
      <trkpt lat="43.5828" lon="3.6773">
        <ele>199</ele>
        <time>2013-01-10T09:32:57Z</time>
      </trkpt>
      <trkpt lat="43.58277" lon="3.67718">
        <ele>208</ele>
        <time>2013-01-10T09:33:09Z</time>
      </trkpt>
      <trkpt lat="43.58274" lon="3.67707">
        <ele>208</ele>
        <time>2013-01-10T09:33:18Z</time>
      </trkpt>
      <trkpt lat="43.58268" lon="3.67697">
        <ele>208</ele>
        <time>2013-01-10T09:33:26Z</time>
      </trkpt>
      <trkpt lat="43.58263" lon="3.67685">
        <ele>208</ele>
        <time>2013-01-10T09:33:36Z</time>
      </trkpt>
      <trkpt lat="43.58259" lon="3.67673">
        <ele>216</ele>
        <time>2013-01-10T09:33:46Z</time>
      </trkpt>
      <trkpt lat="43.58257" lon="3.67661">
        <ele>216</ele>
        <time>2013-01-10T09:33:54Z</time>
      </trkpt>
      <trkpt lat="43.58255" lon="3.67647">
        <ele>216</ele>
        <time>2013-01-10T09:34:02Z</time>
      </trkpt>
      <trkpt lat="43.58251" lon="3.67636">
        <ele>216</ele>
        <time>2013-01-10T09:34:10Z</time>
      </trkpt>
      <trkpt lat="43.58251" lon="3.67623">
        <ele>216</ele>
        <time>2013-01-10T09:34:25Z</time>
      </trkpt>
      <trkpt lat="43.58248" lon="3.67611">
        <ele>209</ele>
        <time>2013-01-10T09:34:33Z</time>
      </trkpt>
      <trkpt lat="43.58248" lon="3.67598">
        <ele>209</ele>
        <time>2013-01-10T09:34:42Z</time>
      </trkpt>
      <trkpt lat="43.58255" lon="3.67589">
        <ele>217</ele>
        <time>2013-01-10T09:34:51Z</time>
      </trkpt>
      <trkpt lat="43.58261" lon="3.67579">
        <ele>212</ele>
        <time>2013-01-10T09:34:59Z</time>
      </trkpt>
      <trkpt lat="43.58267" lon="3.67568">
        <ele>212</ele>
        <time>2013-01-10T09:35:07Z</time>
      </trkpt>
      <trkpt lat="43.58271" lon="3.67557">
        <ele>212</ele>
        <time>2013-01-10T09:35:14Z</time>
      </trkpt>
      <trkpt lat="43.58272" lon="3.67545">
        <ele>212</ele>
        <time>2013-01-10T09:35:21Z</time>
      </trkpt>
      <trkpt lat="43.58274" lon="3.67532">
        <ele>212</ele>
        <time>2013-01-10T09:35:31Z</time>
      </trkpt>
      <trkpt lat="43.58276" lon="3.67519">
        <ele>212</ele>
        <time>2013-01-10T09:35:40Z</time>
      </trkpt>
      <trkpt lat="43.58277" lon="3.67506">
        <ele>212</ele>
        <time>2013-01-10T09:35:51Z</time>
      </trkpt>
      <trkpt lat="43.58277" lon="3.67493">
        <ele>212</ele>
        <time>2013-01-10T09:35:59Z</time>
      </trkpt>
      <trkpt lat="43.58277" lon="3.67479">
        <ele>212</ele>
        <time>2013-01-10T09:36:08Z</time>
      </trkpt>
      <trkpt lat="43.58279" lon="3.67466">
        <ele>212</ele>
        <time>2013-01-10T09:36:18Z</time>
      </trkpt>
      <trkpt lat="43.58282" lon="3.67453">
        <ele>218</ele>
        <time>2013-01-10T09:36:26Z</time>
      </trkpt>
      <trkpt lat="43.58286" lon="3.67442">
        <ele>218</ele>
        <time>2013-01-10T09:36:36Z</time>
      </trkpt>
      <trkpt lat="43.58285" lon="3.6743">
        <ele>218</ele>
        <time>2013-01-10T09:36:46Z</time>
      </trkpt>
      <trkpt lat="43.58287" lon="3.67416">
        <ele>218</ele>
        <time>2013-01-10T09:36:53Z</time>
      </trkpt>
      <trkpt lat="43.58283" lon="3.67405">
        <ele>218</ele>
        <time>2013-01-10T09:37:03Z</time>
      </trkpt>
      <trkpt lat="43.58281" lon="3.67393">
        <ele>224</ele>
        <time>2013-01-10T09:37:11Z</time>
      </trkpt>
      <trkpt lat="43.58275" lon="3.67383">
        <ele>224</ele>
        <time>2013-01-10T09:37:20Z</time>
      </trkpt>
      <trkpt lat="43.58268" lon="3.67376">
        <ele>224</ele>
        <time>2013-01-10T09:37:29Z</time>
      </trkpt>
      <trkpt lat="43.58265" lon="3.67363">
        <ele>224</ele>
        <time>2013-01-10T09:37:38Z</time>
      </trkpt>
      <trkpt lat="43.58263" lon="3.67352">
        <ele>224</ele>
        <time>2013-01-10T09:37:45Z</time>
      </trkpt>
      <trkpt lat="43.58264" lon="3.67338">
        <ele>224</ele>
        <time>2013-01-10T09:37:53Z</time>
      </trkpt>
      <trkpt lat="43.58263" lon="3.67326">
        <ele>224</ele>
        <time>2013-01-10T09:38:01Z</time>
      </trkpt>
      <trkpt lat="43.58263" lon="3.67313">
        <ele>224</ele>
        <time>2013-01-10T09:38:10Z</time>
      </trkpt>
      <trkpt lat="43.58265" lon="3.67301">
        <ele>224</ele>
        <time>2013-01-10T09:38:20Z</time>
      </trkpt>
      <trkpt lat="43.58264" lon="3.67287">
        <ele>224</ele>
        <time>2013-01-10T09:38:30Z</time>
      </trkpt>
      <trkpt lat="43.58268" lon="3.67274">
        <ele>224</ele>
        <time>2013-01-10T09:38:37Z</time>
      </trkpt>
      <trkpt lat="43.58266" lon="3.67262">
        <ele>224</ele>
        <time>2013-01-10T09:38:47Z</time>
      </trkpt>
      <trkpt lat="43.58263" lon="3.6725">
        <ele>230</ele>
        <time>2013-01-10T09:38:57Z</time>
      </trkpt>
      <trkpt lat="43.58262" lon="3.67238">
        <ele>230</ele>
        <time>2013-01-10T09:39:06Z</time>
      </trkpt>
      <trkpt lat="43.58261" lon="3.67224">
        <ele>235</ele>
        <time>2013-01-10T09:39:15Z</time>
      </trkpt>
      <trkpt lat="43.58259" lon="3.67209">
        <ele>235</ele>
        <time>2013-01-10T09:39:26Z</time>
      </trkpt>
      <trkpt lat="43.58256" lon="3.67196">
        <ele>235</ele>
        <time>2013-01-10T09:39:33Z</time>
      </trkpt>
      <trkpt lat="43.58251" lon="3.67185">
        <ele>235</ele>
        <time>2013-01-10T09:39:41Z</time>
      </trkpt>
      <trkpt lat="43.58251" lon="3.67171">
        <ele>235</ele>
        <time>2013-01-10T09:39:50Z</time>
      </trkpt>
      <trkpt lat="43.5825" lon="3.67159">
        <ele>235</ele>
        <time>2013-01-10T09:39:57Z</time>
      </trkpt>
      <trkpt lat="43.58246" lon="3.67145">
        <ele>228</ele>
        <time>2013-01-10T09:40:04Z</time>
      </trkpt>
      <trkpt lat="43.58246" lon="3.67133">
        <ele>228</ele>
        <time>2013-01-10T09:40:11Z</time>
      </trkpt>
      <trkpt lat="43.58248" lon="3.67119">
        <ele>221</ele>
        <time>2013-01-10T09:40:18Z</time>
      </trkpt>
      <trkpt lat="43.5825" lon="3.67106">
        <ele>221</ele>
        <time>2013-01-10T09:40:25Z</time>
      </trkpt>
      <trkpt lat="43.58254" lon="3.67096">
        <ele>221</ele>
        <time>2013-01-10T09:40:32Z</time>
      </trkpt>
      <trkpt lat="43.58261" lon="3.67086">
        <ele>221</ele>
        <time>2013-01-10T09:40:40Z</time>
      </trkpt>
      <trkpt lat="43.58269" lon="3.6708">
        <ele>221</ele>
        <time>2013-01-10T09:40:51Z</time>
      </trkpt>
      <trkpt lat="43.5827" lon="3.67067">
        <ele>221</ele>
        <time>2013-01-10T09:41:00Z</time>
      </trkpt>
      <trkpt lat="43.58269" lon="3.67054">
        <ele>221</ele>
        <time>2013-01-10T09:41:07Z</time>
      </trkpt>
      <trkpt lat="43.58266" lon="3.67043">
        <ele>229</ele>
        <time>2013-01-10T09:41:19Z</time>
      </trkpt>
      <trkpt lat="43.58257" lon="3.67038">
        <ele>229</ele>
        <time>2013-01-10T09:41:26Z</time>
      </trkpt>
      <trkpt lat="43.58247" lon="3.67037">
        <ele>229</ele>
        <time>2013-01-10T09:41:54Z</time>
      </trkpt>
      <trkpt lat="43.58236" lon="3.67036">
        <ele>222</ele>
        <time>2013-01-10T09:42:00Z</time>
      </trkpt>
      <trkpt lat="43.58227" lon="3.67036">
        <ele>222</ele>
        <time>2013-01-10T09:42:09Z</time>
      </trkpt>
      <trkpt lat="43.58218" lon="3.67032">
        <ele>222</ele>
        <time>2013-01-10T09:44:09Z</time>
      </trkpt>
      <trkpt lat="43.58209" lon="3.67028">
        <ele>222</ele>
        <time>2013-01-10T09:47:11Z</time>
      </trkpt>
      <trkpt lat="43.58203" lon="3.67018">
        <ele>222</ele>
        <time>2013-01-10T09:47:19Z</time>
      </trkpt>
      <trkpt lat="43.58196" lon="3.67007">
        <ele>222</ele>
        <time>2013-01-10T09:47:27Z</time>
      </trkpt>
      <trkpt lat="43.58189" lon="3.66998">
        <ele>222</ele>
        <time>2013-01-10T09:47:36Z</time>
      </trkpt>
      <trkpt lat="43.58182" lon="3.66989">
        <ele>222</ele>
        <time>2013-01-10T09:47:43Z</time>
      </trkpt>
      <trkpt lat="43.58176" lon="3.66979">
        <ele>222</ele>
        <time>2013-01-10T09:47:52Z</time>
      </trkpt>
      <trkpt lat="43.58169" lon="3.66968">
        <ele>222</ele>
        <time>2013-01-10T09:48:00Z</time>
      </trkpt>
      <trkpt lat="43.58163" lon="3.66958">
        <ele>222</ele>
        <time>2013-01-10T09:48:08Z</time>
      </trkpt>
      <trkpt lat="43.58157" lon="3.66949">
        <ele>222</ele>
        <time>2013-01-10T09:48:15Z</time>
      </trkpt>
      <trkpt lat="43.5815" lon="3.66939">
        <ele>222</ele>
        <time>2013-01-10T09:48:22Z</time>
      </trkpt>
      <trkpt lat="43.58148" lon="3.66927">
        <ele>222</ele>
        <time>2013-01-10T09:48:31Z</time>
      </trkpt>
      <trkpt lat="43.5814" lon="3.66918">
        <ele>222</ele>
        <time>2013-01-10T09:48:38Z</time>
      </trkpt>
      <trkpt lat="43.58134" lon="3.66908">
        <ele>222</ele>
        <time>2013-01-10T09:48:45Z</time>
      </trkpt>
      <trkpt lat="43.58127" lon="3.66897">
        <ele>222</ele>
        <time>2013-01-10T09:48:54Z</time>
      </trkpt>
      <trkpt lat="43.5812" lon="3.66888">
        <ele>222</ele>
        <time>2013-01-10T09:49:02Z</time>
      </trkpt>
      <trkpt lat="43.58114" lon="3.66877">
        <ele>222</ele>
        <time>2013-01-10T09:49:11Z</time>
      </trkpt>
      <trkpt lat="43.58108" lon="3.66867">
        <ele>222</ele>
        <time>2013-01-10T09:49:18Z</time>
      </trkpt>
      <trkpt lat="43.58103" lon="3.66855">
        <ele>222</ele>
        <time>2013-01-10T09:49:25Z</time>
      </trkpt>
      <trkpt lat="43.58096" lon="3.66848">
        <ele>222</ele>
        <time>2013-01-10T09:49:32Z</time>
      </trkpt>
      <trkpt lat="43.5809" lon="3.66839">
        <ele>222</ele>
        <time>2013-01-10T09:49:40Z</time>
      </trkpt>
      <trkpt lat="43.58083" lon="3.66829">
        <ele>222</ele>
        <time>2013-01-10T09:49:50Z</time>
      </trkpt>
      <trkpt lat="43.58076" lon="3.6682">
        <ele>222</ele>
        <time>2013-01-10T09:49:57Z</time>
      </trkpt>
      <trkpt lat="43.58069" lon="3.66812">
        <ele>222</ele>
        <time>2013-01-10T09:50:04Z</time>
      </trkpt>
      <trkpt lat="43.58061" lon="3.66804">
        <ele>222</ele>
        <time>2013-01-10T09:50:12Z</time>
      </trkpt>
      <trkpt lat="43.58056" lon="3.66793">
        <ele>222</ele>
        <time>2013-01-10T09:50:20Z</time>
      </trkpt>
      <trkpt lat="43.58065" lon="3.66798">
        <ele>222</ele>
        <time>2013-01-10T09:51:31Z</time>
      </trkpt>
      <trkpt lat="43.58073" lon="3.66802">
        <ele>222</ele>
        <time>2013-01-10T09:51:39Z</time>
      </trkpt>
      <trkpt lat="43.58081" lon="3.66809">
        <ele>222</ele>
        <time>2013-01-10T09:51:46Z</time>
      </trkpt>
      <trkpt lat="43.58088" lon="3.66816">
        <ele>222</ele>
        <time>2013-01-10T09:52:00Z</time>
      </trkpt>
      <trkpt lat="43.58095" lon="3.66824">
        <ele>222</ele>
        <time>2013-01-10T09:52:08Z</time>
      </trkpt>
      <trkpt lat="43.58103" lon="3.6683">
        <ele>222</ele>
        <time>2013-01-10T09:52:15Z</time>
      </trkpt>
      <trkpt lat="43.5811" lon="3.6684">
        <ele>228</ele>
        <time>2013-01-10T09:52:22Z</time>
      </trkpt>
      <trkpt lat="43.58118" lon="3.66845">
        <ele>228</ele>
        <time>2013-01-10T09:52:29Z</time>
      </trkpt>
      <trkpt lat="43.58125" lon="3.66853">
        <ele>228</ele>
        <time>2013-01-10T09:52:35Z</time>
      </trkpt>
      <trkpt lat="43.58133" lon="3.66859">
        <ele>228</ele>
        <time>2013-01-10T09:52:42Z</time>
      </trkpt>
      <trkpt lat="43.58142" lon="3.66866">
        <ele>228</ele>
        <time>2013-01-10T09:52:49Z</time>
      </trkpt>
      <trkpt lat="43.5815" lon="3.66872">
        <ele>228</ele>
        <time>2013-01-10T09:52:56Z</time>
      </trkpt>
      <trkpt lat="43.58159" lon="3.66877">
        <ele>228</ele>
        <time>2013-01-10T09:53:03Z</time>
      </trkpt>
      <trkpt lat="43.58167" lon="3.66883">
        <ele>228</ele>
        <time>2013-01-10T09:53:10Z</time>
      </trkpt>
      <trkpt lat="43.58173" lon="3.66892">
        <ele>228</ele>
        <time>2013-01-10T09:53:18Z</time>
      </trkpt>
      <trkpt lat="43.5818" lon="3.66899">
        <ele>228</ele>
        <time>2013-01-10T09:53:25Z</time>
      </trkpt>
      <trkpt lat="43.58188" lon="3.66905">
        <ele>228</ele>
        <time>2013-01-10T09:53:32Z</time>
      </trkpt>
      <trkpt lat="43.58197" lon="3.66911">
        <ele>228</ele>
        <time>2013-01-10T09:53:39Z</time>
      </trkpt>
      <trkpt lat="43.58206" lon="3.66913">
        <ele>228</ele>
        <time>2013-01-10T09:53:47Z</time>
      </trkpt>
      <trkpt lat="43.58216" lon="3.66912">
        <ele>228</ele>
        <time>2013-01-10T09:53:55Z</time>
      </trkpt>
      <trkpt lat="43.58225" lon="3.66912">
        <ele>228</ele>
        <time>2013-01-10T09:54:03Z</time>
      </trkpt>
      <trkpt lat="43.58234" lon="3.66908">
        <ele>228</ele>
        <time>2013-01-10T09:54:12Z</time>
      </trkpt>
      <trkpt lat="43.58242" lon="3.66903">
        <ele>233</ele>
        <time>2013-01-10T09:54:20Z</time>
      </trkpt>
      <trkpt lat="43.5825" lon="3.66897">
        <ele>233</ele>
        <time>2013-01-10T09:54:29Z</time>
      </trkpt>
      <trkpt lat="43.58257" lon="3.6689">
        <ele>233</ele>
        <time>2013-01-10T09:54:37Z</time>
      </trkpt>
      <trkpt lat="43.58262" lon="3.66879">
        <ele>240</ele>
        <time>2013-01-10T09:54:49Z</time>
      </trkpt>
      <trkpt lat="43.58267" lon="3.66868">
        <ele>240</ele>
        <time>2013-01-10T09:54:56Z</time>
      </trkpt>
      <trkpt lat="43.58268" lon="3.66854">
        <ele>240</ele>
        <time>2013-01-10T09:55:05Z</time>
      </trkpt>
      <trkpt lat="43.58268" lon="3.66841">
        <ele>240</ele>
        <time>2013-01-10T09:55:13Z</time>
      </trkpt>
      <trkpt lat="43.58265" lon="3.66829">
        <ele>240</ele>
        <time>2013-01-10T09:55:21Z</time>
      </trkpt>
      <trkpt lat="43.58264" lon="3.66815">
        <ele>240</ele>
        <time>2013-01-10T09:55:35Z</time>
      </trkpt>
      <trkpt lat="43.58261" lon="3.66802">
        <ele>240</ele>
        <time>2013-01-10T09:55:43Z</time>
      </trkpt>
      <trkpt lat="43.58256" lon="3.66791">
        <ele>245</ele>
        <time>2013-01-10T09:55:51Z</time>
      </trkpt>
      <trkpt lat="43.58252" lon="3.66779">
        <ele>245</ele>
        <time>2013-01-10T09:55:59Z</time>
      </trkpt>
      <trkpt lat="43.58248" lon="3.66767">
        <ele>245</ele>
        <time>2013-01-10T09:56:06Z</time>
      </trkpt>
      <trkpt lat="43.58245" lon="3.66755">
        <ele>245</ele>
        <time>2013-01-10T09:56:13Z</time>
      </trkpt>
      <trkpt lat="43.5824" lon="3.66744">
        <ele>245</ele>
        <time>2013-01-10T09:56:21Z</time>
      </trkpt>
      <trkpt lat="43.58235" lon="3.66733">
        <ele>245</ele>
        <time>2013-01-10T09:56:30Z</time>
      </trkpt>
      <trkpt lat="43.58227" lon="3.66723">
        <ele>245</ele>
        <time>2013-01-10T09:56:39Z</time>
      </trkpt>
      <trkpt lat="43.5822" lon="3.66713">
        <ele>245</ele>
        <time>2013-01-10T09:56:47Z</time>
      </trkpt>
      <trkpt lat="43.58213" lon="3.66704">
        <ele>245</ele>
        <time>2013-01-10T09:56:55Z</time>
      </trkpt>
      <trkpt lat="43.5821" lon="3.66691">
        <ele>245</ele>
        <time>2013-01-10T09:57:03Z</time>
      </trkpt>
      <trkpt lat="43.58206" lon="3.6668">
        <ele>245</ele>
        <time>2013-01-10T09:57:11Z</time>
      </trkpt>
      <trkpt lat="43.58203" lon="3.66668">
        <ele>245</ele>
        <time>2013-01-10T09:57:18Z</time>
      </trkpt>
      <trkpt lat="43.58203" lon="3.66655">
        <ele>245</ele>
        <time>2013-01-10T09:57:27Z</time>
      </trkpt>
      <trkpt lat="43.58202" lon="3.66642">
        <ele>254</ele>
        <time>2013-01-10T09:57:35Z</time>
      </trkpt>
      <trkpt lat="43.58199" lon="3.6663">
        <ele>254</ele>
        <time>2013-01-10T09:57:42Z</time>
      </trkpt>
      <trkpt lat="43.58197" lon="3.66619">
        <ele>254</ele>
        <time>2013-01-10T09:57:49Z</time>
      </trkpt>
      <trkpt lat="43.58199" lon="3.66606">
        <ele>259</ele>
        <time>2013-01-10T09:57:56Z</time>
      </trkpt>
      <trkpt lat="43.58195" lon="3.66595">
        <ele>259</ele>
        <time>2013-01-10T09:58:03Z</time>
      </trkpt>
      <trkpt lat="43.58187" lon="3.66587">
        <ele>253</ele>
        <time>2013-01-10T09:58:09Z</time>
      </trkpt>
      <trkpt lat="43.5818" lon="3.66578">
        <ele>245</ele>
        <time>2013-01-10T09:58:20Z</time>
      </trkpt>
      <trkpt lat="43.58178" lon="3.66567">
        <ele>245</ele>
        <time>2013-01-10T09:58:29Z</time>
      </trkpt>
      <trkpt lat="43.5818" lon="3.66553">
        <ele>258</ele>
        <time>2013-01-10T09:58:40Z</time>
      </trkpt>
      <trkpt lat="43.58176" lon="3.66541">
        <ele>264</ele>
        <time>2013-01-10T09:58:50Z</time>
      </trkpt>
      <trkpt lat="43.58174" lon="3.66527">
        <ele>264</ele>
        <time>2013-01-10T09:58:59Z</time>
      </trkpt>
      <trkpt lat="43.58173" lon="3.66514">
        <ele>264</ele>
        <time>2013-01-10T09:59:07Z</time>
      </trkpt>
      <trkpt lat="43.58172" lon="3.66502">
        <ele>264</ele>
        <time>2013-01-10T09:59:15Z</time>
      </trkpt>
      <trkpt lat="43.58171" lon="3.66488">
        <ele>264</ele>
        <time>2013-01-10T09:59:24Z</time>
      </trkpt>
      <trkpt lat="43.58167" lon="3.66476">
        <ele>264</ele>
        <time>2013-01-10T09:59:32Z</time>
      </trkpt>
      <trkpt lat="43.58165" lon="3.66461">
        <ele>264</ele>
        <time>2013-01-10T09:59:40Z</time>
      </trkpt>
      <trkpt lat="43.58163" lon="3.66448">
        <ele>259</ele>
        <time>2013-01-10T09:59:48Z</time>
      </trkpt>
      <trkpt lat="43.5816" lon="3.66435">
        <ele>259</ele>
        <time>2013-01-10T09:59:56Z</time>
      </trkpt>
      <trkpt lat="43.58157" lon="3.66424">
        <ele>259</ele>
        <time>2013-01-10T10:00:04Z</time>
      </trkpt>
      <trkpt lat="43.58155" lon="3.66411">
        <ele>259</ele>
        <time>2013-01-10T10:00:12Z</time>
      </trkpt>
      <trkpt lat="43.58151" lon="3.66399">
        <ele>259</ele>
        <time>2013-01-10T10:00:21Z</time>
      </trkpt>
      <trkpt lat="43.58148" lon="3.66388">
        <ele>259</ele>
        <time>2013-01-10T10:00:28Z</time>
      </trkpt>
      <trkpt lat="43.58143" lon="3.66378">
        <ele>259</ele>
        <time>2013-01-10T10:00:36Z</time>
      </trkpt>
      <trkpt lat="43.58139" lon="3.66365">
        <ele>265</ele>
        <time>2013-01-10T10:00:44Z</time>
      </trkpt>
      <trkpt lat="43.58137" lon="3.66354">
        <ele>265</ele>
        <time>2013-01-10T10:00:51Z</time>
      </trkpt>
      <trkpt lat="43.58134" lon="3.66342">
        <ele>265</ele>
        <time>2013-01-10T10:00:58Z</time>
      </trkpt>
      <trkpt lat="43.58133" lon="3.66329">
        <ele>265</ele>
        <time>2013-01-10T10:01:06Z</time>
      </trkpt>
      <trkpt lat="43.58131" lon="3.66317">
        <ele>265</ele>
        <time>2013-01-10T10:01:13Z</time>
      </trkpt>
      <trkpt lat="43.58127" lon="3.66305">
        <ele>265</ele>
        <time>2013-01-10T10:01:20Z</time>
      </trkpt>
      <trkpt lat="43.58123" lon="3.66293">
        <ele>270</ele>
        <time>2013-01-10T10:01:29Z</time>
      </trkpt>
      <trkpt lat="43.58117" lon="3.66285">
        <ele>270</ele>
        <time>2013-01-10T10:01:34Z</time>
      </trkpt>
      <trkpt lat="43.5811" lon="3.66276">
        <ele>264</ele>
        <time>2013-01-10T10:01:40Z</time>
      </trkpt>
      <trkpt lat="43.58103" lon="3.66267">
        <ele>264</ele>
        <time>2013-01-10T10:01:47Z</time>
      </trkpt>
      <trkpt lat="43.58095" lon="3.66258">
        <ele>264</ele>
        <time>2013-01-10T10:01:54Z</time>
      </trkpt>
      <trkpt lat="43.58088" lon="3.66251">
        <ele>264</ele>
        <time>2013-01-10T10:02:01Z</time>
      </trkpt>
      <trkpt lat="43.58084" lon="3.6624">
        <ele>264</ele>
        <time>2013-01-10T10:02:09Z</time>
      </trkpt>
      <trkpt lat="43.58078" lon="3.6623">
        <ele>264</ele>
        <time>2013-01-10T10:02:16Z</time>
      </trkpt>
      <trkpt lat="43.58081" lon="3.66216">
        <ele>264</ele>
        <time>2013-01-10T10:02:35Z</time>
      </trkpt>
      <trkpt lat="43.58072" lon="3.66218">
        <ele>271</ele>
        <time>2013-01-10T10:03:00Z</time>
      </trkpt>
      <trkpt lat="43.58063" lon="3.66213">
        <ele>265</ele>
        <time>2013-01-10T10:03:08Z</time>
      </trkpt>
      <trkpt lat="43.58059" lon="3.66197">
        <ele>265</ele>
        <time>2013-01-10T10:03:21Z</time>
      </trkpt>
      <trkpt lat="43.58052" lon="3.66187">
        <ele>265</ele>
        <time>2013-01-10T10:03:31Z</time>
      </trkpt>
      <trkpt lat="43.58043" lon="3.66182">
        <ele>265</ele>
        <time>2013-01-10T10:03:40Z</time>
      </trkpt>
      <trkpt lat="43.58034" lon="3.66179">
        <ele>265</ele>
        <time>2013-01-10T10:03:51Z</time>
      </trkpt>
      <trkpt lat="43.58035" lon="3.66165">
        <ele>271</ele>
        <time>2013-01-10T10:04:07Z</time>
      </trkpt>
      <trkpt lat="43.58026" lon="3.66161">
        <ele>271</ele>
        <time>2013-01-10T10:04:16Z</time>
      </trkpt>
      <trkpt lat="43.58022" lon="3.6615">
        <ele>271</ele>
        <time>2013-01-10T10:04:27Z</time>
      </trkpt>
      <trkpt lat="43.58012" lon="3.66145">
        <ele>271</ele>
        <time>2013-01-10T10:04:36Z</time>
      </trkpt>
      <trkpt lat="43.58012" lon="3.66133">
        <ele>271</ele>
        <time>2013-01-10T10:04:48Z</time>
      </trkpt>
      <trkpt lat="43.58019" lon="3.66124">
        <ele>271</ele>
        <time>2013-01-10T10:05:19Z</time>
      </trkpt>
      <trkpt lat="43.58011" lon="3.66129">
        <ele>277</ele>
        <time>2013-01-10T10:05:36Z</time>
      </trkpt>
      <trkpt lat="43.58001" lon="3.66128">
        <ele>277</ele>
        <time>2013-01-10T10:06:00Z</time>
      </trkpt>
      <trkpt lat="43.57993" lon="3.66123">
        <ele>271</ele>
        <time>2013-01-10T10:06:12Z</time>
      </trkpt>
      <trkpt lat="43.57987" lon="3.66113">
        <ele>271</ele>
        <time>2013-01-10T10:06:19Z</time>
      </trkpt>
      <trkpt lat="43.57982" lon="3.66102">
        <ele>271</ele>
        <time>2013-01-10T10:06:27Z</time>
      </trkpt>
      <trkpt lat="43.57977" lon="3.66092">
        <ele>271</ele>
        <time>2013-01-10T10:06:42Z</time>
      </trkpt>
      <trkpt lat="43.57968" lon="3.66092">
        <ele>271</ele>
        <time>2013-01-10T10:07:23Z</time>
      </trkpt>
      <trkpt lat="43.5796" lon="3.66096">
        <ele>271</ele>
        <time>2013-01-10T10:07:32Z</time>
      </trkpt>
      <trkpt lat="43.57951" lon="3.66092">
        <ele>277</ele>
        <time>2013-01-10T10:07:45Z</time>
      </trkpt>
      <trkpt lat="43.57946" lon="3.66082">
        <ele>283</ele>
        <time>2013-01-10T10:08:04Z</time>
      </trkpt>
      <trkpt lat="43.57936" lon="3.66084">
        <ele>283</ele>
        <time>2013-01-10T10:08:47Z</time>
      </trkpt>
      <trkpt lat="43.57945" lon="3.66084">
        <ele>283</ele>
        <time>2013-01-10T10:09:26Z</time>
      </trkpt>
      <trkpt lat="43.5795" lon="3.66074">
        <ele>283</ele>
        <time>2013-01-10T10:09:52Z</time>
      </trkpt>
      <trkpt lat="43.57943" lon="3.66081">
        <ele>276</ele>
        <time>2013-01-10T10:12:16Z</time>
      </trkpt>
      <trkpt lat="43.57951" lon="3.66073">
        <ele>281</ele>
        <time>2013-01-10T10:12:53Z</time>
      </trkpt>
      <trkpt lat="43.57955" lon="3.6606">
        <ele>281</ele>
        <time>2013-01-10T10:13:04Z</time>
      </trkpt>
      <trkpt lat="43.57953" lon="3.66045">
        <ele>275</ele>
        <time>2013-01-10T10:13:11Z</time>
      </trkpt>
      <trkpt lat="43.57949" lon="3.66032">
        <ele>287</ele>
        <time>2013-01-10T10:13:40Z</time>
      </trkpt>
      <trkpt lat="43.57948" lon="3.66019">
        <ele>287</ele>
        <time>2013-01-10T10:13:54Z</time>
      </trkpt>
      <trkpt lat="43.57946" lon="3.66006">
        <ele>287</ele>
        <time>2013-01-10T10:14:06Z</time>
      </trkpt>
      <trkpt lat="43.57943" lon="3.65993">
        <ele>287</ele>
        <time>2013-01-10T10:14:20Z</time>
      </trkpt>
      <trkpt lat="43.57935" lon="3.65987">
        <ele>287</ele>
        <time>2013-01-10T10:14:29Z</time>
      </trkpt>
      <trkpt lat="43.57928" lon="3.65978">
        <ele>287</ele>
        <time>2013-01-10T10:14:52Z</time>
      </trkpt>
      <trkpt lat="43.57921" lon="3.6597">
        <ele>287</ele>
        <time>2013-01-10T10:15:03Z</time>
      </trkpt>
      <trkpt lat="43.57916" lon="3.65959">
        <ele>287</ele>
        <time>2013-01-10T10:15:22Z</time>
      </trkpt>
      <trkpt lat="43.57912" lon="3.65949">
        <ele>293</ele>
        <time>2013-01-10T10:15:39Z</time>
      </trkpt>
      <trkpt lat="43.57907" lon="3.65938">
        <ele>288</ele>
        <time>2013-01-10T10:15:54Z</time>
      </trkpt>
      <trkpt lat="43.57903" lon="3.65924">
        <ele>288</ele>
        <time>2013-01-10T10:16:09Z</time>
      </trkpt>
      <trkpt lat="43.57896" lon="3.65915">
        <ele>288</ele>
        <time>2013-01-10T10:16:27Z</time>
      </trkpt>
      <trkpt lat="43.57889" lon="3.65906">
        <ele>288</ele>
        <time>2013-01-10T10:16:40Z</time>
      </trkpt>
      <trkpt lat="43.57886" lon="3.65895">
        <ele>288</ele>
        <time>2013-01-10T10:16:49Z</time>
      </trkpt>
      <trkpt lat="43.57886" lon="3.65882">
        <ele>288</ele>
        <time>2013-01-10T10:17:05Z</time>
      </trkpt>
      <trkpt lat="43.57884" lon="3.65869">
        <ele>288</ele>
        <time>2013-01-10T10:17:20Z</time>
      </trkpt>
      <trkpt lat="43.57883" lon="3.65857">
        <ele>288</ele>
        <time>2013-01-10T10:17:31Z</time>
      </trkpt>
      <trkpt lat="43.57884" lon="3.65844">
        <ele>288</ele>
        <time>2013-01-10T10:17:52Z</time>
      </trkpt>
      <trkpt lat="43.5789" lon="3.65834">
        <ele>288</ele>
        <time>2013-01-10T10:18:11Z</time>
      </trkpt>
      <trkpt lat="43.57894" lon="3.65822">
        <ele>288</ele>
        <time>2013-01-10T10:18:19Z</time>
      </trkpt>
      <trkpt lat="43.57894" lon="3.65809">
        <ele>288</ele>
        <time>2013-01-10T10:18:32Z</time>
      </trkpt>
      <trkpt lat="43.5789" lon="3.65798">
        <ele>288</ele>
        <time>2013-01-10T10:18:41Z</time>
      </trkpt>
      <trkpt lat="43.57888" lon="3.65785">
        <ele>288</ele>
        <time>2013-01-10T10:18:49Z</time>
      </trkpt>
      <trkpt lat="43.57889" lon="3.65772">
        <ele>288</ele>
        <time>2013-01-10T10:19:00Z</time>
      </trkpt>
      <trkpt lat="43.57893" lon="3.6576">
        <ele>288</ele>
        <time>2013-01-10T10:19:10Z</time>
      </trkpt>
      <trkpt lat="43.57899" lon="3.65749">
        <ele>288</ele>
        <time>2013-01-10T10:19:25Z</time>
      </trkpt>
      <trkpt lat="43.57907" lon="3.65743">
        <ele>288</ele>
        <time>2013-01-10T10:19:37Z</time>
      </trkpt>
      <trkpt lat="43.57916" lon="3.65738">
        <ele>288</ele>
        <time>2013-01-10T10:19:45Z</time>
      </trkpt>
      <trkpt lat="43.57925" lon="3.65739">
        <ele>288</ele>
        <time>2013-01-10T10:19:52Z</time>
      </trkpt>
      <trkpt lat="43.5793" lon="3.65729">
        <ele>288</ele>
        <time>2013-01-10T10:19:57Z</time>
      </trkpt>
      <trkpt lat="43.57935" lon="3.65719">
        <ele>288</ele>
        <time>2013-01-10T10:20:04Z</time>
      </trkpt>
      <trkpt lat="43.5794" lon="3.65706">
        <ele>288</ele>
        <time>2013-01-10T10:20:11Z</time>
      </trkpt>
      <trkpt lat="43.57943" lon="3.65693">
        <ele>288</ele>
        <time>2013-01-10T10:20:19Z</time>
      </trkpt>
      <trkpt lat="43.57943" lon="3.6568">
        <ele>288</ele>
        <time>2013-01-10T10:20:27Z</time>
      </trkpt>
      <trkpt lat="43.57945" lon="3.65667">
        <ele>288</ele>
        <time>2013-01-10T10:20:35Z</time>
      </trkpt>
      <trkpt lat="43.57945" lon="3.65654">
        <ele>288</ele>
        <time>2013-01-10T10:20:42Z</time>
      </trkpt>
      <trkpt lat="43.57943" lon="3.6564">
        <ele>288</ele>
        <time>2013-01-10T10:20:50Z</time>
      </trkpt>
      <trkpt lat="43.57936" lon="3.65631">
        <ele>288</ele>
        <time>2013-01-10T10:21:00Z</time>
      </trkpt>
      <trkpt lat="43.57927" lon="3.65631">
        <ele>288</ele>
        <time>2013-01-10T10:21:14Z</time>
      </trkpt>
      <trkpt lat="43.57936" lon="3.65631">
        <ele>288</ele>
        <time>2013-01-10T10:22:25Z</time>
      </trkpt>
      <trkpt lat="43.57945" lon="3.65622">
        <ele>288</ele>
        <time>2013-01-10T10:22:34Z</time>
      </trkpt>
      <trkpt lat="43.57947" lon="3.65608">
        <ele>288</ele>
        <time>2013-01-10T10:22:39Z</time>
      </trkpt>
      <trkpt lat="43.57945" lon="3.65595">
        <ele>288</ele>
        <time>2013-01-10T10:22:45Z</time>
      </trkpt>
      <trkpt lat="43.57944" lon="3.65581">
        <ele>288</ele>
        <time>2013-01-10T10:22:51Z</time>
      </trkpt>
      <trkpt lat="43.57945" lon="3.65568">
        <ele>288</ele>
        <time>2013-01-10T10:22:58Z</time>
      </trkpt>
      <trkpt lat="43.57945" lon="3.65555">
        <ele>288</ele>
        <time>2013-01-10T10:23:04Z</time>
      </trkpt>
      <trkpt lat="43.57943" lon="3.65543">
        <ele>283</ele>
        <time>2013-01-10T10:23:10Z</time>
      </trkpt>
      <trkpt lat="43.57941" lon="3.65528">
        <ele>283</ele>
        <time>2013-01-10T10:23:17Z</time>
      </trkpt>
      <trkpt lat="43.57941" lon="3.65516">
        <ele>283</ele>
        <time>2013-01-10T10:23:24Z</time>
      </trkpt>
      <trkpt lat="43.57942" lon="3.65502">
        <ele>283</ele>
        <time>2013-01-10T10:23:31Z</time>
      </trkpt>
      <trkpt lat="43.57942" lon="3.6549">
        <ele>283</ele>
        <time>2013-01-10T10:23:38Z</time>
      </trkpt>
      <trkpt lat="43.57935" lon="3.65482">
        <ele>283</ele>
        <time>2013-01-10T10:25:28Z</time>
      </trkpt>
      <trkpt lat="43.57933" lon="3.6547">
        <ele>283</ele>
        <time>2013-01-10T10:28:22Z</time>
      </trkpt>
      <trkpt lat="43.57932" lon="3.65455">
        <ele>283</ele>
        <time>2013-01-10T10:28:31Z</time>
      </trkpt>
      <trkpt lat="43.5793" lon="3.65443">
        <ele>283</ele>
        <time>2013-01-10T10:28:40Z</time>
      </trkpt>
      <trkpt lat="43.5793" lon="3.6543">
        <ele>283</ele>
        <time>2013-01-10T10:28:46Z</time>
      </trkpt>
      <trkpt lat="43.5793" lon="3.65418">
        <ele>283</ele>
        <time>2013-01-10T10:28:53Z</time>
      </trkpt>
      <trkpt lat="43.5793" lon="3.65405">
        <ele>283</ele>
        <time>2013-01-10T10:29:00Z</time>
      </trkpt>
      <trkpt lat="43.5793" lon="3.65392">
        <ele>283</ele>
        <time>2013-01-10T10:29:07Z</time>
      </trkpt>
      <trkpt lat="43.57929" lon="3.65379">
        <ele>283</ele>
        <time>2013-01-10T10:29:14Z</time>
      </trkpt>
      <trkpt lat="43.57928" lon="3.65366">
        <ele>283</ele>
        <time>2013-01-10T10:29:21Z</time>
      </trkpt>
      <trkpt lat="43.57928" lon="3.65353">
        <ele>283</ele>
        <time>2013-01-10T10:29:29Z</time>
      </trkpt>
      <trkpt lat="43.57927" lon="3.65339">
        <ele>283</ele>
        <time>2013-01-10T10:29:36Z</time>
      </trkpt>
      <trkpt lat="43.57926" lon="3.65327">
        <ele>283</ele>
        <time>2013-01-10T10:29:43Z</time>
      </trkpt>
      <trkpt lat="43.57926" lon="3.65314">
        <ele>283</ele>
        <time>2013-01-10T10:29:49Z</time>
      </trkpt>
      <trkpt lat="43.57927" lon="3.65301">
        <ele>283</ele>
        <time>2013-01-10T10:29:56Z</time>
      </trkpt>
      <trkpt lat="43.57927" lon="3.65287">
        <ele>283</ele>
        <time>2013-01-10T10:30:04Z</time>
      </trkpt>
      <trkpt lat="43.57926" lon="3.65275">
        <ele>283</ele>
        <time>2013-01-10T10:30:11Z</time>
      </trkpt>
      <trkpt lat="43.57924" lon="3.65261">
        <ele>283</ele>
        <time>2013-01-10T10:30:18Z</time>
      </trkpt>
      <trkpt lat="43.57924" lon="3.65249">
        <ele>283</ele>
        <time>2013-01-10T10:30:25Z</time>
      </trkpt>
      <trkpt lat="43.57924" lon="3.65235">
        <ele>283</ele>
        <time>2013-01-10T10:30:32Z</time>
      </trkpt>
      <trkpt lat="43.57928" lon="3.65223">
        <ele>283</ele>
        <time>2013-01-10T10:30:39Z</time>
      </trkpt>
      <trkpt lat="43.57931" lon="3.6521">
        <ele>283</ele>
        <time>2013-01-10T10:30:46Z</time>
      </trkpt>
      <trkpt lat="43.57931" lon="3.65197">
        <ele>283</ele>
        <time>2013-01-10T10:30:53Z</time>
      </trkpt>
      <trkpt lat="43.5793" lon="3.65184">
        <ele>283</ele>
        <time>2013-01-10T10:31:00Z</time>
      </trkpt>
      <trkpt lat="43.5793" lon="3.65171">
        <ele>283</ele>
        <time>2013-01-10T10:31:07Z</time>
      </trkpt>
      <trkpt lat="43.5793" lon="3.65157">
        <ele>283</ele>
        <time>2013-01-10T10:31:15Z</time>
      </trkpt>
      <trkpt lat="43.57931" lon="3.65144">
        <ele>283</ele>
        <time>2013-01-10T10:31:24Z</time>
      </trkpt>
      <trkpt lat="43.57931" lon="3.6513">
        <ele>283</ele>
        <time>2013-01-10T10:31:31Z</time>
      </trkpt>
      <trkpt lat="43.57931" lon="3.65116">
        <ele>289</ele>
        <time>2013-01-10T10:31:39Z</time>
      </trkpt>
      <trkpt lat="43.57931" lon="3.65102">
        <ele>289</ele>
        <time>2013-01-10T10:31:47Z</time>
      </trkpt>
      <trkpt lat="43.57931" lon="3.6509">
        <ele>289</ele>
        <time>2013-01-10T10:31:54Z</time>
      </trkpt>
      <trkpt lat="43.57931" lon="3.65076">
        <ele>289</ele>
        <time>2013-01-10T10:32:02Z</time>
      </trkpt>
      <trkpt lat="43.57931" lon="3.65064">
        <ele>289</ele>
        <time>2013-01-10T10:32:09Z</time>
      </trkpt>
      <trkpt lat="43.57931" lon="3.6505">
        <ele>289</ele>
        <time>2013-01-10T10:32:16Z</time>
      </trkpt>
      <trkpt lat="43.5793" lon="3.65038">
        <ele>289</ele>
        <time>2013-01-10T10:32:23Z</time>
      </trkpt>
      <trkpt lat="43.57928" lon="3.65023">
        <ele>289</ele>
        <time>2013-01-10T10:32:31Z</time>
      </trkpt>
      <trkpt lat="43.57928" lon="3.6501">
        <ele>289</ele>
        <time>2013-01-10T10:32:38Z</time>
      </trkpt>
      <trkpt lat="43.57928" lon="3.64997">
        <ele>289</ele>
        <time>2013-01-10T10:32:45Z</time>
      </trkpt>
      <trkpt lat="43.57931" lon="3.64984">
        <ele>289</ele>
        <time>2013-01-10T10:32:52Z</time>
      </trkpt>
      <trkpt lat="43.57931" lon="3.6497">
        <ele>289</ele>
        <time>2013-01-10T10:33:00Z</time>
      </trkpt>
      <trkpt lat="43.5793" lon="3.64958">
        <ele>289</ele>
        <time>2013-01-10T10:33:07Z</time>
      </trkpt>
      <trkpt lat="43.57928" lon="3.64946">
        <ele>289</ele>
        <time>2013-01-10T10:33:15Z</time>
      </trkpt>
      <trkpt lat="43.57928" lon="3.64933">
        <ele>289</ele>
        <time>2013-01-10T10:33:24Z</time>
      </trkpt>
      <trkpt lat="43.57926" lon="3.64919">
        <ele>289</ele>
        <time>2013-01-10T10:33:31Z</time>
      </trkpt>
      <trkpt lat="43.57925" lon="3.64906">
        <ele>289</ele>
        <time>2013-01-10T10:33:39Z</time>
      </trkpt>
      <trkpt lat="43.57923" lon="3.64892">
        <ele>289</ele>
        <time>2013-01-10T10:33:46Z</time>
      </trkpt>
      <trkpt lat="43.57922" lon="3.6488">
        <ele>289</ele>
        <time>2013-01-10T10:33:53Z</time>
      </trkpt>
      <trkpt lat="43.57922" lon="3.64866">
        <ele>289</ele>
        <time>2013-01-10T10:34:01Z</time>
      </trkpt>
      <trkpt lat="43.57922" lon="3.64853">
        <ele>289</ele>
        <time>2013-01-10T10:34:09Z</time>
      </trkpt>
      <trkpt lat="43.57919" lon="3.6484">
        <ele>289</ele>
        <time>2013-01-10T10:34:17Z</time>
      </trkpt>
      <trkpt lat="43.57918" lon="3.64827">
        <ele>289</ele>
        <time>2013-01-10T10:34:25Z</time>
      </trkpt>
      <trkpt lat="43.5792" lon="3.64814">
        <ele>289</ele>
        <time>2013-01-10T10:34:34Z</time>
      </trkpt>
      <trkpt lat="43.5792" lon="3.64801">
        <ele>289</ele>
        <time>2013-01-10T10:34:56Z</time>
      </trkpt>
      <trkpt lat="43.57916" lon="3.6479">
        <ele>289</ele>
        <time>2013-01-10T10:35:04Z</time>
      </trkpt>
      <trkpt lat="43.57912" lon="3.64777">
        <ele>289</ele>
        <time>2013-01-10T10:35:12Z</time>
      </trkpt>
      <trkpt lat="43.57908" lon="3.64765">
        <ele>289</ele>
        <time>2013-01-10T10:35:19Z</time>
      </trkpt>
      <trkpt lat="43.57906" lon="3.64752">
        <ele>289</ele>
        <time>2013-01-10T10:35:26Z</time>
      </trkpt>
      <trkpt lat="43.57904" lon="3.64739">
        <ele>289</ele>
        <time>2013-01-10T10:35:34Z</time>
      </trkpt>
      <trkpt lat="43.579" lon="3.64726">
        <ele>289</ele>
        <time>2013-01-10T10:35:41Z</time>
      </trkpt>
      <trkpt lat="43.57896" lon="3.64713">
        <ele>289</ele>
        <time>2013-01-10T10:35:48Z</time>
      </trkpt>
      <trkpt lat="43.57895" lon="3.647">
        <ele>289</ele>
        <time>2013-01-10T10:35:56Z</time>
      </trkpt>
      <trkpt lat="43.57893" lon="3.64687">
        <ele>289</ele>
        <time>2013-01-10T10:36:03Z</time>
      </trkpt>
      <trkpt lat="43.57892" lon="3.64674">
        <ele>289</ele>
        <time>2013-01-10T10:36:10Z</time>
      </trkpt>
      <trkpt lat="43.5789" lon="3.6466">
        <ele>289</ele>
        <time>2013-01-10T10:36:18Z</time>
      </trkpt>
      <trkpt lat="43.57889" lon="3.64648">
        <ele>289</ele>
        <time>2013-01-10T10:36:25Z</time>
      </trkpt>
      <trkpt lat="43.57888" lon="3.64635">
        <ele>289</ele>
        <time>2013-01-10T10:36:31Z</time>
      </trkpt>
      <trkpt lat="43.57888" lon="3.64623">
        <ele>289</ele>
        <time>2013-01-10T10:36:38Z</time>
      </trkpt>
      <trkpt lat="43.57888" lon="3.6461">
        <ele>289</ele>
        <time>2013-01-10T10:36:45Z</time>
      </trkpt>
      <trkpt lat="43.57889" lon="3.64597">
        <ele>289</ele>
        <time>2013-01-10T10:36:53Z</time>
      </trkpt>
      <trkpt lat="43.57886" lon="3.64585">
        <ele>289</ele>
        <time>2013-01-10T10:37:00Z</time>
      </trkpt>
      <trkpt lat="43.57887" lon="3.64571">
        <ele>289</ele>
        <time>2013-01-10T10:37:07Z</time>
      </trkpt>
      <trkpt lat="43.57887" lon="3.64558">
        <ele>289</ele>
        <time>2013-01-10T10:37:14Z</time>
      </trkpt>
      <trkpt lat="43.57887" lon="3.64545">
        <ele>289</ele>
        <time>2013-01-10T10:37:20Z</time>
      </trkpt>
      <trkpt lat="43.57886" lon="3.64533">
        <ele>284</ele>
        <time>2013-01-10T10:37:27Z</time>
      </trkpt>
      <trkpt lat="43.57887" lon="3.64519">
        <ele>284</ele>
        <time>2013-01-10T10:37:35Z</time>
      </trkpt>
      <trkpt lat="43.57888" lon="3.64507">
        <ele>284</ele>
        <time>2013-01-10T10:37:42Z</time>
      </trkpt>
      <trkpt lat="43.57888" lon="3.64494">
        <ele>284</ele>
        <time>2013-01-10T10:37:48Z</time>
      </trkpt>
      <trkpt lat="43.57886" lon="3.6448">
        <ele>284</ele>
        <time>2013-01-10T10:38:22Z</time>
      </trkpt>
      <trkpt lat="43.57887" lon="3.64466">
        <ele>284</ele>
        <time>2013-01-10T10:38:28Z</time>
      </trkpt>
      <trkpt lat="43.5789" lon="3.64454">
        <ele>284</ele>
        <time>2013-01-10T10:38:34Z</time>
      </trkpt>
      <trkpt lat="43.57892" lon="3.64441">
        <ele>284</ele>
        <time>2013-01-10T10:38:40Z</time>
      </trkpt>
      <trkpt lat="43.57894" lon="3.64427">
        <ele>284</ele>
        <time>2013-01-10T10:38:47Z</time>
      </trkpt>
      <trkpt lat="43.57895" lon="3.64414">
        <ele>284</ele>
        <time>2013-01-10T10:38:54Z</time>
      </trkpt>
      <trkpt lat="43.57898" lon="3.64402">
        <ele>284</ele>
        <time>2013-01-10T10:39:01Z</time>
      </trkpt>
      <trkpt lat="43.57898" lon="3.64389">
        <ele>284</ele>
        <time>2013-01-10T10:39:08Z</time>
      </trkpt>
      <trkpt lat="43.57897" lon="3.64376">
        <ele>284</ele>
        <time>2013-01-10T10:39:15Z</time>
      </trkpt>
      <trkpt lat="43.57898" lon="3.64363">
        <ele>284</ele>
        <time>2013-01-10T10:39:23Z</time>
      </trkpt>
      <trkpt lat="43.57898" lon="3.6435">
        <ele>284</ele>
        <time>2013-01-10T10:39:30Z</time>
      </trkpt>
      <trkpt lat="43.57899" lon="3.64338">
        <ele>284</ele>
        <time>2013-01-10T10:39:37Z</time>
      </trkpt>
      <trkpt lat="43.57899" lon="3.64324">
        <ele>284</ele>
        <time>2013-01-10T10:39:44Z</time>
      </trkpt>
      <trkpt lat="43.57899" lon="3.64312">
        <ele>284</ele>
        <time>2013-01-10T10:39:51Z</time>
      </trkpt>
      <trkpt lat="43.57899" lon="3.64297">
        <ele>284</ele>
        <time>2013-01-10T10:39:59Z</time>
      </trkpt>
      <trkpt lat="43.57898" lon="3.64283">
        <ele>284</ele>
        <time>2013-01-10T10:40:07Z</time>
      </trkpt>
      <trkpt lat="43.57896" lon="3.6427">
        <ele>284</ele>
        <time>2013-01-10T10:40:14Z</time>
      </trkpt>
      <trkpt lat="43.57896" lon="3.64257">
        <ele>284</ele>
        <time>2013-01-10T10:40:22Z</time>
      </trkpt>
      <trkpt lat="43.57894" lon="3.64244">
        <ele>284</ele>
        <time>2013-01-10T10:40:30Z</time>
      </trkpt>
      <trkpt lat="43.57892" lon="3.64231">
        <ele>284</ele>
        <time>2013-01-10T10:40:39Z</time>
      </trkpt>
      <trkpt lat="43.57891" lon="3.64218">
        <ele>284</ele>
        <time>2013-01-10T10:40:46Z</time>
      </trkpt>
      <trkpt lat="43.57888" lon="3.64207">
        <ele>284</ele>
        <time>2013-01-10T10:40:53Z</time>
      </trkpt>
      <trkpt lat="43.57885" lon="3.64193">
        <ele>284</ele>
        <time>2013-01-10T10:41:01Z</time>
      </trkpt>
      <trkpt lat="43.57884" lon="3.64181">
        <ele>284</ele>
        <time>2013-01-10T10:41:09Z</time>
      </trkpt>
      <trkpt lat="43.57884" lon="3.64168">
        <ele>284</ele>
        <time>2013-01-10T10:41:16Z</time>
      </trkpt>
      <trkpt lat="43.57886" lon="3.64156">
        <ele>284</ele>
        <time>2013-01-10T10:41:24Z</time>
      </trkpt>
      <trkpt lat="43.57887" lon="3.64143">
        <ele>292</ele>
        <time>2013-01-10T10:41:32Z</time>
      </trkpt>
      <trkpt lat="43.57888" lon="3.64129">
        <ele>292</ele>
        <time>2013-01-10T10:41:38Z</time>
      </trkpt>
      <trkpt lat="43.57888" lon="3.64117">
        <ele>292</ele>
        <time>2013-01-10T10:41:46Z</time>
      </trkpt>
      <trkpt lat="43.5789" lon="3.64103">
        <ele>292</ele>
        <time>2013-01-10T10:41:55Z</time>
      </trkpt>
      <trkpt lat="43.57889" lon="3.64091">
        <ele>292</ele>
        <time>2013-01-10T10:42:02Z</time>
      </trkpt>
      <trkpt lat="43.57888" lon="3.64078">
        <ele>292</ele>
        <time>2013-01-10T10:42:09Z</time>
      </trkpt>
      <trkpt lat="43.57889" lon="3.64065">
        <ele>292</ele>
        <time>2013-01-10T10:42:16Z</time>
      </trkpt>
      <trkpt lat="43.57888" lon="3.64052">
        <ele>292</ele>
        <time>2013-01-10T10:42:24Z</time>
      </trkpt>
      <trkpt lat="43.57886" lon="3.64039">
        <ele>292</ele>
        <time>2013-01-10T10:42:33Z</time>
      </trkpt>
      <trkpt lat="43.57881" lon="3.64029">
        <ele>292</ele>
        <time>2013-01-10T10:42:42Z</time>
      </trkpt>
      <trkpt lat="43.57872" lon="3.6403">
        <ele>292</ele>
        <time>2013-01-10T10:42:52Z</time>
      </trkpt>
      <trkpt lat="43.57863" lon="3.64031">
        <ele>292</ele>
        <time>2013-01-10T10:42:59Z</time>
      </trkpt>
      <trkpt lat="43.57854" lon="3.6404">
        <ele>292</ele>
        <time>2013-01-10T10:43:08Z</time>
      </trkpt>
      <trkpt lat="43.57845" lon="3.64045">
        <ele>292</ele>
        <time>2013-01-10T10:43:17Z</time>
      </trkpt>
      <trkpt lat="43.57837" lon="3.64049">
        <ele>292</ele>
        <time>2013-01-10T10:43:26Z</time>
      </trkpt>
      <trkpt lat="43.57828" lon="3.64054">
        <ele>298</ele>
        <time>2013-01-10T10:43:35Z</time>
      </trkpt>
      <trkpt lat="43.57819" lon="3.64058">
        <ele>298</ele>
        <time>2013-01-10T10:43:46Z</time>
      </trkpt>
      <trkpt lat="43.57811" lon="3.64063">
        <ele>298</ele>
        <time>2013-01-10T10:43:53Z</time>
      </trkpt>
      <trkpt lat="43.57803" lon="3.6407">
        <ele>298</ele>
        <time>2013-01-10T10:44:01Z</time>
      </trkpt>
      <trkpt lat="43.57795" lon="3.64076">
        <ele>303</ele>
        <time>2013-01-10T10:44:11Z</time>
      </trkpt>
      <trkpt lat="43.57788" lon="3.64084">
        <ele>303</ele>
        <time>2013-01-10T10:44:19Z</time>
      </trkpt>
      <trkpt lat="43.57784" lon="3.64096">
        <ele>303</ele>
        <time>2013-01-10T10:44:28Z</time>
      </trkpt>
      <trkpt lat="43.57783" lon="3.64109">
        <ele>303</ele>
        <time>2013-01-10T10:44:35Z</time>
      </trkpt>
      <trkpt lat="43.57779" lon="3.6412">
        <ele>303</ele>
        <time>2013-01-10T10:44:43Z</time>
      </trkpt>
      <trkpt lat="43.57775" lon="3.64132">
        <ele>298</ele>
        <time>2013-01-10T10:44:52Z</time>
      </trkpt>
      <trkpt lat="43.57771" lon="3.64144">
        <ele>298</ele>
        <time>2013-01-10T10:45:02Z</time>
      </trkpt>
      <trkpt lat="43.57773" lon="3.64157">
        <ele>306</ele>
        <time>2013-01-10T10:45:12Z</time>
      </trkpt>
      <trkpt lat="43.57774" lon="3.64171">
        <ele>306</ele>
        <time>2013-01-10T10:45:20Z</time>
      </trkpt>
      <trkpt lat="43.57772" lon="3.64183">
        <ele>306</ele>
        <time>2013-01-10T10:45:28Z</time>
      </trkpt>
      <trkpt lat="43.57768" lon="3.64196">
        <ele>306</ele>
        <time>2013-01-10T10:45:37Z</time>
      </trkpt>
      <trkpt lat="43.57764" lon="3.64208">
        <ele>306</ele>
        <time>2013-01-10T10:45:44Z</time>
      </trkpt>
      <trkpt lat="43.5776" lon="3.64219">
        <ele>306</ele>
        <time>2013-01-10T10:45:51Z</time>
      </trkpt>
      <trkpt lat="43.57757" lon="3.64231">
        <ele>306</ele>
        <time>2013-01-10T10:46:01Z</time>
      </trkpt>
      <trkpt lat="43.57753" lon="3.64243">
        <ele>306</ele>
        <time>2013-01-10T10:46:08Z</time>
      </trkpt>
      <trkpt lat="43.57745" lon="3.6425">
        <ele>306</ele>
        <time>2013-01-10T10:46:16Z</time>
      </trkpt>
      <trkpt lat="43.57736" lon="3.6425">
        <ele>306</ele>
        <time>2013-01-10T10:46:26Z</time>
      </trkpt>
      <trkpt lat="43.57728" lon="3.64258">
        <ele>306</ele>
        <time>2013-01-10T10:46:33Z</time>
      </trkpt>
      <trkpt lat="43.5772" lon="3.64265">
        <ele>306</ele>
        <time>2013-01-10T10:46:39Z</time>
      </trkpt>
      <trkpt lat="43.57715" lon="3.64277">
        <ele>306</ele>
        <time>2013-01-10T10:46:47Z</time>
      </trkpt>
      <trkpt lat="43.57711" lon="3.64288">
        <ele>306</ele>
        <time>2013-01-10T10:46:57Z</time>
      </trkpt>
      <trkpt lat="43.5772" lon="3.64293">
        <ele>306</ele>
        <time>2013-01-10T10:47:04Z</time>
      </trkpt>
      <trkpt lat="43.57728" lon="3.64297">
        <ele>306</ele>
        <time>2013-01-10T10:47:17Z</time>
      </trkpt>
      <trkpt lat="43.57734" lon="3.64307">
        <ele>312</ele>
        <time>2013-01-10T10:47:24Z</time>
      </trkpt>
      <trkpt lat="43.57742" lon="3.64315">
        <ele>312</ele>
        <time>2013-01-10T10:47:28Z</time>
      </trkpt>
      <trkpt lat="43.57736" lon="3.64306">
        <ele>317</ele>
        <time>2013-01-10T10:47:31Z</time>
      </trkpt>
      <trkpt lat="43.57727" lon="3.64301">
        <ele>317</ele>
        <time>2013-01-10T10:47:36Z</time>
      </trkpt>
      <trkpt lat="43.5772" lon="3.64309">
        <ele>317</ele>
        <time>2013-01-10T10:47:50Z</time>
      </trkpt>
      <trkpt lat="43.57722" lon="3.64322">
        <ele>310</ele>
        <time>2013-01-10T10:48:01Z</time>
      </trkpt>
      <trkpt lat="43.57719" lon="3.64334">
        <ele>310</ele>
        <time>2013-01-10T10:48:14Z</time>
      </trkpt>
      <trkpt lat="43.57719" lon="3.64347">
        <ele>310</ele>
        <time>2013-01-10T10:48:50Z</time>
      </trkpt>
      <trkpt lat="43.57715" lon="3.64359">
        <ele>310</ele>
        <time>2013-01-10T10:49:03Z</time>
      </trkpt>
      <trkpt lat="43.57713" lon="3.64372">
        <ele>310</ele>
        <time>2013-01-10T10:50:26Z</time>
      </trkpt>
      <trkpt lat="43.57717" lon="3.64359">
        <ele>310</ele>
        <time>2013-01-10T11:40:56Z</time>
      </trkpt>
      <trkpt lat="43.57721" lon="3.64349">
        <ele>310</ele>
        <time>2013-01-10T11:41:04Z</time>
      </trkpt>
      <trkpt lat="43.57726" lon="3.64338">
        <ele>310</ele>
        <time>2013-01-10T11:41:17Z</time>
      </trkpt>
      <trkpt lat="43.57726" lon="3.64325">
        <ele>310</ele>
        <time>2013-01-10T11:41:37Z</time>
      </trkpt>
      <trkpt lat="43.57734" lon="3.64316">
        <ele>310</ele>
        <time>2013-01-10T11:41:46Z</time>
      </trkpt>
      <trkpt lat="43.57739" lon="3.64306">
        <ele>310</ele>
        <time>2013-01-10T11:41:52Z</time>
      </trkpt>
      <trkpt lat="43.57737" lon="3.64294">
        <ele>310</ele>
        <time>2013-01-10T11:42:03Z</time>
      </trkpt>
      <trkpt lat="43.57727" lon="3.64293">
        <ele>310</ele>
        <time>2013-01-10T11:42:14Z</time>
      </trkpt>
      <trkpt lat="43.57723" lon="3.64305">
        <ele>316</ele>
        <time>2013-01-10T11:43:21Z</time>
      </trkpt>
      <trkpt lat="43.57724" lon="3.64317">
        <ele>316</ele>
        <time>2013-01-10T11:43:28Z</time>
      </trkpt>
      <trkpt lat="43.5772" lon="3.64328">
        <ele>321</ele>
        <time>2013-01-10T11:43:35Z</time>
      </trkpt>
      <trkpt lat="43.57718" lon="3.64341">
        <ele>321</ele>
        <time>2013-01-10T11:43:43Z</time>
      </trkpt>
      <trkpt lat="43.57713" lon="3.64352">
        <ele>321</ele>
        <time>2013-01-10T11:43:52Z</time>
      </trkpt>
      <trkpt lat="43.57713" lon="3.64365">
        <ele>312</ele>
        <time>2013-01-10T11:44:23Z</time>
      </trkpt>
      <trkpt lat="43.57719" lon="3.64354">
        <ele>312</ele>
        <time>2013-01-10T11:44:41Z</time>
      </trkpt>
      <trkpt lat="43.57723" lon="3.64342">
        <ele>312</ele>
        <time>2013-01-10T11:44:48Z</time>
      </trkpt>
      <trkpt lat="43.57727" lon="3.64327">
        <ele>312</ele>
        <time>2013-01-10T11:44:58Z</time>
      </trkpt>
      <trkpt lat="43.57728" lon="3.64314">
        <ele>312</ele>
        <time>2013-01-10T11:45:07Z</time>
      </trkpt>
      <trkpt lat="43.57727" lon="3.64301">
        <ele>312</ele>
        <time>2013-01-10T11:45:17Z</time>
      </trkpt>
      <trkpt lat="43.57719" lon="3.64293">
        <ele>312</ele>
        <time>2013-01-10T11:45:26Z</time>
      </trkpt>
      <trkpt lat="43.57709" lon="3.64296">
        <ele>312</ele>
        <time>2013-01-10T11:45:32Z</time>
      </trkpt>
      <trkpt lat="43.57701" lon="3.64299">
        <ele>319</ele>
        <time>2013-01-10T11:45:41Z</time>
      </trkpt>
      <trkpt lat="43.577" lon="3.64287">
        <ele>314</ele>
        <time>2013-01-10T11:46:45Z</time>
      </trkpt>
      <trkpt lat="43.57697" lon="3.64275">
        <ele>314</ele>
        <time>2013-01-10T11:46:54Z</time>
      </trkpt>
      <trkpt lat="43.57692" lon="3.64264">
        <ele>314</ele>
        <time>2013-01-10T11:47:02Z</time>
      </trkpt>
      <trkpt lat="43.57685" lon="3.64257">
        <ele>314</ele>
        <time>2013-01-10T11:47:12Z</time>
      </trkpt>
      <trkpt lat="43.57677" lon="3.64248">
        <ele>314</ele>
        <time>2013-01-10T11:47:25Z</time>
      </trkpt>
      <trkpt lat="43.57671" lon="3.64238">
        <ele>314</ele>
        <time>2013-01-10T11:47:34Z</time>
      </trkpt>
      <trkpt lat="43.57664" lon="3.64231">
        <ele>307</ele>
        <time>2013-01-10T11:47:42Z</time>
      </trkpt>
      <trkpt lat="43.57655" lon="3.64225">
        <ele>307</ele>
        <time>2013-01-10T11:47:50Z</time>
      </trkpt>
      <trkpt lat="43.57647" lon="3.6422">
        <ele>307</ele>
        <time>2013-01-10T11:47:58Z</time>
      </trkpt>
      <trkpt lat="43.57638" lon="3.64218">
        <ele>302</ele>
        <time>2013-01-10T11:48:05Z</time>
      </trkpt>
      <trkpt lat="43.57628" lon="3.64216">
        <ele>302</ele>
        <time>2013-01-10T11:48:14Z</time>
      </trkpt>
      <trkpt lat="43.57619" lon="3.64216">
        <ele>302</ele>
        <time>2013-01-10T11:48:26Z</time>
      </trkpt>
      <trkpt lat="43.57611" lon="3.64224">
        <ele>302</ele>
        <time>2013-01-10T11:48:34Z</time>
      </trkpt>
      <trkpt lat="43.57604" lon="3.64233">
        <ele>302</ele>
        <time>2013-01-10T11:48:42Z</time>
      </trkpt>
      <trkpt lat="43.57599" lon="3.64244">
        <ele>309</ele>
        <time>2013-01-10T11:48:51Z</time>
      </trkpt>
      <trkpt lat="43.57595" lon="3.64254">
        <ele>309</ele>
        <time>2013-01-10T11:49:00Z</time>
      </trkpt>
      <trkpt lat="43.5759" lon="3.64265">
        <ele>309</ele>
        <time>2013-01-10T11:49:08Z</time>
      </trkpt>
      <trkpt lat="43.57587" lon="3.64277">
        <ele>309</ele>
        <time>2013-01-10T11:49:16Z</time>
      </trkpt>
      <trkpt lat="43.57581" lon="3.64287">
        <ele>309</ele>
        <time>2013-01-10T11:49:24Z</time>
      </trkpt>
      <trkpt lat="43.57577" lon="3.64297">
        <ele>309</ele>
        <time>2013-01-10T11:49:32Z</time>
      </trkpt>
      <trkpt lat="43.57572" lon="3.64308">
        <ele>309</ele>
        <time>2013-01-10T11:49:40Z</time>
      </trkpt>
      <trkpt lat="43.57566" lon="3.64318">
        <ele>309</ele>
        <time>2013-01-10T11:49:48Z</time>
      </trkpt>
      <trkpt lat="43.57561" lon="3.64328">
        <ele>309</ele>
        <time>2013-01-10T11:49:55Z</time>
      </trkpt>
      <trkpt lat="43.57554" lon="3.64337">
        <ele>309</ele>
        <time>2013-01-10T11:50:04Z</time>
      </trkpt>
      <trkpt lat="43.57546" lon="3.64345">
        <ele>309</ele>
        <time>2013-01-10T11:50:13Z</time>
      </trkpt>
      <trkpt lat="43.5754" lon="3.64355">
        <ele>309</ele>
        <time>2013-01-10T11:50:21Z</time>
      </trkpt>
      <trkpt lat="43.57534" lon="3.64365">
        <ele>309</ele>
        <time>2013-01-10T11:50:29Z</time>
      </trkpt>
      <trkpt lat="43.57528" lon="3.64374">
        <ele>309</ele>
        <time>2013-01-10T11:50:36Z</time>
      </trkpt>
      <trkpt lat="43.57521" lon="3.64383">
        <ele>309</ele>
        <time>2013-01-10T11:50:44Z</time>
      </trkpt>
      <trkpt lat="43.57515" lon="3.64393">
        <ele>315</ele>
        <time>2013-01-10T11:50:53Z</time>
      </trkpt>
      <trkpt lat="43.57508" lon="3.64402">
        <ele>315</ele>
        <time>2013-01-10T11:51:03Z</time>
      </trkpt>
      <trkpt lat="43.57501" lon="3.64411">
        <ele>315</ele>
        <time>2013-01-10T11:51:13Z</time>
      </trkpt>
      <trkpt lat="43.57494" lon="3.64418">
        <ele>309</ele>
        <time>2013-01-10T11:51:22Z</time>
      </trkpt>
      <trkpt lat="43.57485" lon="3.64424">
        <ele>309</ele>
        <time>2013-01-10T11:51:31Z</time>
      </trkpt>
      <trkpt lat="43.57476" lon="3.64429">
        <ele>316</ele>
        <time>2013-01-10T11:51:40Z</time>
      </trkpt>
      <trkpt lat="43.57469" lon="3.64436">
        <ele>316</ele>
        <time>2013-01-10T11:51:54Z</time>
      </trkpt>
      <trkpt lat="43.57462" lon="3.64443">
        <ele>316</ele>
        <time>2013-01-10T11:52:02Z</time>
      </trkpt>
      <trkpt lat="43.57453" lon="3.64447">
        <ele>316</ele>
        <time>2013-01-10T11:52:10Z</time>
      </trkpt>
      <trkpt lat="43.57445" lon="3.6444">
        <ele>316</ele>
        <time>2013-01-10T11:52:24Z</time>
      </trkpt>
      <trkpt lat="43.57438" lon="3.64449">
        <ele>310</ele>
        <time>2013-01-10T11:53:21Z</time>
      </trkpt>
      <trkpt lat="43.57429" lon="3.64453">
        <ele>310</ele>
        <time>2013-01-10T11:53:31Z</time>
      </trkpt>
      <trkpt lat="43.5742" lon="3.64454">
        <ele>310</ele>
        <time>2013-01-10T11:53:46Z</time>
      </trkpt>
      <trkpt lat="43.57412" lon="3.64461">
        <ele>320</ele>
        <time>2013-01-10T11:54:14Z</time>
      </trkpt>
      <trkpt lat="43.57407" lon="3.64473">
        <ele>320</ele>
        <time>2013-01-10T11:54:23Z</time>
      </trkpt>
      <trkpt lat="43.57401" lon="3.64482">
        <ele>326</ele>
        <time>2013-01-10T11:54:31Z</time>
      </trkpt>
      <trkpt lat="43.57393" lon="3.6449">
        <ele>326</ele>
        <time>2013-01-10T11:54:42Z</time>
      </trkpt>
      <trkpt lat="43.57385" lon="3.64496">
        <ele>326</ele>
        <time>2013-01-10T11:54:53Z</time>
      </trkpt>
      <trkpt lat="43.57378" lon="3.64505">
        <ele>326</ele>
        <time>2013-01-10T11:55:02Z</time>
      </trkpt>
      <trkpt lat="43.57372" lon="3.64515">
        <ele>326</ele>
        <time>2013-01-10T11:55:10Z</time>
      </trkpt>
      <trkpt lat="43.57365" lon="3.64522">
        <ele>326</ele>
        <time>2013-01-10T11:55:18Z</time>
      </trkpt>
      <trkpt lat="43.57357" lon="3.6453">
        <ele>326</ele>
        <time>2013-01-10T11:55:26Z</time>
      </trkpt>
      <trkpt lat="43.57349" lon="3.64537">
        <ele>326</ele>
        <time>2013-01-10T11:55:34Z</time>
      </trkpt>
      <trkpt lat="43.5734" lon="3.64542">
        <ele>326</ele>
        <time>2013-01-10T11:55:42Z</time>
      </trkpt>
      <trkpt lat="43.57333" lon="3.6455">
        <ele>326</ele>
        <time>2013-01-10T11:55:50Z</time>
      </trkpt>
      <trkpt lat="43.57328" lon="3.64562">
        <ele>326</ele>
        <time>2013-01-10T11:55:58Z</time>
      </trkpt>
      <trkpt lat="43.57327" lon="3.64575">
        <ele>326</ele>
        <time>2013-01-10T11:56:07Z</time>
      </trkpt>
      <trkpt lat="43.57328" lon="3.64588">
        <ele>326</ele>
        <time>2013-01-10T11:56:15Z</time>
      </trkpt>
      <trkpt lat="43.57331" lon="3.646">
        <ele>326</ele>
        <time>2013-01-10T11:56:23Z</time>
      </trkpt>
      <trkpt lat="43.57332" lon="3.64614">
        <ele>326</ele>
        <time>2013-01-10T11:56:32Z</time>
      </trkpt>
      <trkpt lat="43.57335" lon="3.64627">
        <ele>326</ele>
        <time>2013-01-10T11:56:41Z</time>
      </trkpt>
      <trkpt lat="43.57339" lon="3.64638">
        <ele>326</ele>
        <time>2013-01-10T11:56:49Z</time>
      </trkpt>
      <trkpt lat="43.57345" lon="3.64648">
        <ele>326</ele>
        <time>2013-01-10T11:56:57Z</time>
      </trkpt>
      <trkpt lat="43.57352" lon="3.64657">
        <ele>326</ele>
        <time>2013-01-10T11:57:04Z</time>
      </trkpt>
      <trkpt lat="43.57357" lon="3.64667">
        <ele>326</ele>
        <time>2013-01-10T11:57:11Z</time>
      </trkpt>
      <trkpt lat="43.57363" lon="3.64677">
        <ele>326</ele>
        <time>2013-01-10T11:57:18Z</time>
      </trkpt>
      <trkpt lat="43.57368" lon="3.64689">
        <ele>326</ele>
        <time>2013-01-10T11:57:26Z</time>
      </trkpt>
      <trkpt lat="43.57372" lon="3.647">
        <ele>326</ele>
        <time>2013-01-10T11:57:34Z</time>
      </trkpt>
      <trkpt lat="43.57378" lon="3.6471">
        <ele>320</ele>
        <time>2013-01-10T11:57:43Z</time>
      </trkpt>
      <trkpt lat="43.57382" lon="3.64721">
        <ele>320</ele>
        <time>2013-01-10T11:57:52Z</time>
      </trkpt>
      <trkpt lat="43.57389" lon="3.64732">
        <ele>320</ele>
        <time>2013-01-10T11:58:01Z</time>
      </trkpt>
      <trkpt lat="43.57397" lon="3.64739">
        <ele>320</ele>
        <time>2013-01-10T11:58:09Z</time>
      </trkpt>
      <trkpt lat="43.57404" lon="3.64748">
        <ele>320</ele>
        <time>2013-01-10T11:58:17Z</time>
      </trkpt>
      <trkpt lat="43.57412" lon="3.64757">
        <ele>320</ele>
        <time>2013-01-10T11:58:25Z</time>
      </trkpt>
      <trkpt lat="43.57418" lon="3.64767">
        <ele>320</ele>
        <time>2013-01-10T11:58:33Z</time>
      </trkpt>
      <trkpt lat="43.57425" lon="3.64777">
        <ele>320</ele>
        <time>2013-01-10T11:58:42Z</time>
      </trkpt>
      <trkpt lat="43.57431" lon="3.64787">
        <ele>320</ele>
        <time>2013-01-10T11:58:50Z</time>
      </trkpt>
      <trkpt lat="43.57437" lon="3.64798">
        <ele>320</ele>
        <time>2013-01-10T11:58:58Z</time>
      </trkpt>
      <trkpt lat="43.57442" lon="3.64809">
        <ele>320</ele>
        <time>2013-01-10T11:59:05Z</time>
      </trkpt>
      <trkpt lat="43.57444" lon="3.64822">
        <ele>320</ele>
        <time>2013-01-10T11:59:12Z</time>
      </trkpt>
      <trkpt lat="43.57447" lon="3.64835">
        <ele>320</ele>
        <time>2013-01-10T11:59:19Z</time>
      </trkpt>
      <trkpt lat="43.57449" lon="3.64848">
        <ele>320</ele>
        <time>2013-01-10T11:59:27Z</time>
      </trkpt>
      <trkpt lat="43.57453" lon="3.64861">
        <ele>320</ele>
        <time>2013-01-10T11:59:35Z</time>
      </trkpt>
      <trkpt lat="43.57461" lon="3.6487">
        <ele>314</ele>
        <time>2013-01-10T11:59:42Z</time>
      </trkpt>
      <trkpt lat="43.5747" lon="3.64875">
        <ele>314</ele>
        <time>2013-01-10T11:59:50Z</time>
      </trkpt>
      <trkpt lat="43.5748" lon="3.64879">
        <ele>314</ele>
        <time>2013-01-10T11:59:58Z</time>
      </trkpt>
      <trkpt lat="43.57485" lon="3.64889">
        <ele>314</ele>
        <time>2013-01-10T12:00:07Z</time>
      </trkpt>
      <trkpt lat="43.57483" lon="3.64901">
        <ele>314</ele>
        <time>2013-01-10T12:00:16Z</time>
      </trkpt>
      <trkpt lat="43.5748" lon="3.64913">
        <ele>314</ele>
        <time>2013-01-10T12:00:24Z</time>
      </trkpt>
      <trkpt lat="43.57476" lon="3.64924">
        <ele>314</ele>
        <time>2013-01-10T12:00:32Z</time>
      </trkpt>
      <trkpt lat="43.57472" lon="3.64936">
        <ele>319</ele>
        <time>2013-01-10T12:00:39Z</time>
      </trkpt>
      <trkpt lat="43.5747" lon="3.64949">
        <ele>319</ele>
        <time>2013-01-10T12:00:47Z</time>
      </trkpt>
      <trkpt lat="43.57471" lon="3.64961">
        <ele>319</ele>
        <time>2013-01-10T12:00:55Z</time>
      </trkpt>
      <trkpt lat="43.57472" lon="3.64975">
        <ele>319</ele>
        <time>2013-01-10T12:01:02Z</time>
      </trkpt>
      <trkpt lat="43.57472" lon="3.64988">
        <ele>319</ele>
        <time>2013-01-10T12:01:10Z</time>
      </trkpt>
      <trkpt lat="43.57472" lon="3.65002">
        <ele>319</ele>
        <time>2013-01-10T12:01:18Z</time>
      </trkpt>
      <trkpt lat="43.57469" lon="3.65013">
        <ele>319</ele>
        <time>2013-01-10T12:01:25Z</time>
      </trkpt>
      <trkpt lat="43.57466" lon="3.65026">
        <ele>319</ele>
        <time>2013-01-10T12:01:34Z</time>
      </trkpt>
      <trkpt lat="43.57465" lon="3.65039">
        <ele>319</ele>
        <time>2013-01-10T12:01:42Z</time>
      </trkpt>
      <trkpt lat="43.57463" lon="3.65052">
        <ele>319</ele>
        <time>2013-01-10T12:01:50Z</time>
      </trkpt>
      <trkpt lat="43.5746" lon="3.65064">
        <ele>319</ele>
        <time>2013-01-10T12:01:57Z</time>
      </trkpt>
      <trkpt lat="43.57455" lon="3.65074">
        <ele>319</ele>
        <time>2013-01-10T12:02:05Z</time>
      </trkpt>
      <trkpt lat="43.57453" lon="3.65087">
        <ele>319</ele>
        <time>2013-01-10T12:02:14Z</time>
      </trkpt>
      <trkpt lat="43.57448" lon="3.65098">
        <ele>319</ele>
        <time>2013-01-10T12:02:23Z</time>
      </trkpt>
      <trkpt lat="43.57442" lon="3.65107">
        <ele>319</ele>
        <time>2013-01-10T12:02:31Z</time>
      </trkpt>
      <trkpt lat="43.57437" lon="3.65119">
        <ele>319</ele>
        <time>2013-01-10T12:02:39Z</time>
      </trkpt>
      <trkpt lat="43.57434" lon="3.6513">
        <ele>319</ele>
        <time>2013-01-10T12:02:47Z</time>
      </trkpt>
      <trkpt lat="43.5743" lon="3.65142">
        <ele>327</ele>
        <time>2013-01-10T12:02:56Z</time>
      </trkpt>
      <trkpt lat="43.57429" lon="3.65154">
        <ele>327</ele>
        <time>2013-01-10T12:03:05Z</time>
      </trkpt>
      <trkpt lat="43.57429" lon="3.65168">
        <ele>327</ele>
        <time>2013-01-10T12:03:13Z</time>
      </trkpt>
      <trkpt lat="43.57427" lon="3.6518">
        <ele>327</ele>
        <time>2013-01-10T12:03:22Z</time>
      </trkpt>
      <trkpt lat="43.57424" lon="3.65192">
        <ele>327</ele>
        <time>2013-01-10T12:03:31Z</time>
      </trkpt>
      <trkpt lat="43.57421" lon="3.65204">
        <ele>327</ele>
        <time>2013-01-10T12:03:40Z</time>
      </trkpt>
      <trkpt lat="43.57418" lon="3.65216">
        <ele>327</ele>
        <time>2013-01-10T12:03:50Z</time>
      </trkpt>
      <trkpt lat="43.57414" lon="3.65228">
        <ele>319</ele>
        <time>2013-01-10T12:04:13Z</time>
      </trkpt>
      <trkpt lat="43.57417" lon="3.6524">
        <ele>319</ele>
        <time>2013-01-10T12:04:21Z</time>
      </trkpt>
      <trkpt lat="43.5742" lon="3.65251">
        <ele>319</ele>
        <time>2013-01-10T12:04:32Z</time>
      </trkpt>
      <trkpt lat="43.57427" lon="3.65259">
        <ele>314</ele>
        <time>2013-01-10T12:04:43Z</time>
      </trkpt>
      <trkpt lat="43.57434" lon="3.65269">
        <ele>314</ele>
        <time>2013-01-10T12:04:53Z</time>
      </trkpt>
      <trkpt lat="43.57436" lon="3.65281">
        <ele>314</ele>
        <time>2013-01-10T12:05:02Z</time>
      </trkpt>
      <trkpt lat="43.57434" lon="3.65294">
        <ele>314</ele>
        <time>2013-01-10T12:05:11Z</time>
      </trkpt>
      <trkpt lat="43.57431" lon="3.65305">
        <ele>314</ele>
        <time>2013-01-10T12:05:20Z</time>
      </trkpt>
      <trkpt lat="43.57427" lon="3.65317">
        <ele>307</ele>
        <time>2013-01-10T12:05:28Z</time>
      </trkpt>
      <trkpt lat="43.57422" lon="3.65328">
        <ele>307</ele>
        <time>2013-01-10T12:05:37Z</time>
      </trkpt>
      <trkpt lat="43.57423" lon="3.65341">
        <ele>307</ele>
        <time>2013-01-10T12:05:46Z</time>
      </trkpt>
      <trkpt lat="43.5742" lon="3.65354">
        <ele>307</ele>
        <time>2013-01-10T12:05:55Z</time>
      </trkpt>
      <trkpt lat="43.57425" lon="3.65365">
        <ele>307</ele>
        <time>2013-01-10T12:06:02Z</time>
      </trkpt>
      <trkpt lat="43.57434" lon="3.65371">
        <ele>307</ele>
        <time>2013-01-10T12:06:10Z</time>
      </trkpt>
      <trkpt lat="43.57444" lon="3.65372">
        <ele>307</ele>
        <time>2013-01-10T12:06:18Z</time>
      </trkpt>
      <trkpt lat="43.57453" lon="3.65375">
        <ele>307</ele>
        <time>2013-01-10T12:06:26Z</time>
      </trkpt>
      <trkpt lat="43.57455" lon="3.65387">
        <ele>307</ele>
        <time>2013-01-10T12:06:39Z</time>
      </trkpt>
      <trkpt lat="43.57452" lon="3.65399">
        <ele>307</ele>
        <time>2013-01-10T12:06:50Z</time>
      </trkpt>
      <trkpt lat="43.57449" lon="3.6541">
        <ele>307</ele>
        <time>2013-01-10T12:06:58Z</time>
      </trkpt>
      <trkpt lat="43.57445" lon="3.65422">
        <ele>301</ele>
        <time>2013-01-10T12:07:06Z</time>
      </trkpt>
      <trkpt lat="43.57442" lon="3.65435">
        <ele>301</ele>
        <time>2013-01-10T12:07:14Z</time>
      </trkpt>
      <trkpt lat="43.57438" lon="3.65447">
        <ele>296</ele>
        <time>2013-01-10T12:07:22Z</time>
      </trkpt>
      <trkpt lat="43.57435" lon="3.65459">
        <ele>296</ele>
        <time>2013-01-10T12:07:29Z</time>
      </trkpt>
      <trkpt lat="43.57438" lon="3.65471">
        <ele>296</ele>
        <time>2013-01-10T12:07:36Z</time>
      </trkpt>
      <trkpt lat="43.57438" lon="3.65484">
        <ele>296</ele>
        <time>2013-01-10T12:07:44Z</time>
      </trkpt>
      <trkpt lat="43.5744" lon="3.65498">
        <ele>302</ele>
        <time>2013-01-10T12:07:51Z</time>
      </trkpt>
      <trkpt lat="43.57441" lon="3.65511">
        <ele>302</ele>
        <time>2013-01-10T12:07:59Z</time>
      </trkpt>
      <trkpt lat="43.57442" lon="3.65524">
        <ele>307</ele>
        <time>2013-01-10T12:08:06Z</time>
      </trkpt>
      <trkpt lat="43.57442" lon="3.65537">
        <ele>307</ele>
        <time>2013-01-10T12:08:14Z</time>
      </trkpt>
      <trkpt lat="43.57442" lon="3.65551">
        <ele>307</ele>
        <time>2013-01-10T12:08:22Z</time>
      </trkpt>
      <trkpt lat="43.57442" lon="3.65564">
        <ele>307</ele>
        <time>2013-01-10T12:08:30Z</time>
      </trkpt>
      <trkpt lat="43.57444" lon="3.65578">
        <ele>307</ele>
        <time>2013-01-10T12:08:38Z</time>
      </trkpt>
      <trkpt lat="43.57444" lon="3.6559">
        <ele>307</ele>
        <time>2013-01-10T12:08:46Z</time>
      </trkpt>
      <trkpt lat="43.57444" lon="3.65604">
        <ele>307</ele>
        <time>2013-01-10T12:08:54Z</time>
      </trkpt>
      <trkpt lat="43.57444" lon="3.65616">
        <ele>307</ele>
        <time>2013-01-10T12:09:02Z</time>
      </trkpt>
      <trkpt lat="43.57445" lon="3.65629">
        <ele>314</ele>
        <time>2013-01-10T12:09:10Z</time>
      </trkpt>
      <trkpt lat="43.57445" lon="3.65642">
        <ele>314</ele>
        <time>2013-01-10T12:09:18Z</time>
      </trkpt>
      <trkpt lat="43.57445" lon="3.65655">
        <ele>314</ele>
        <time>2013-01-10T12:09:26Z</time>
      </trkpt>
      <trkpt lat="43.57446" lon="3.65667">
        <ele>314</ele>
        <time>2013-01-10T12:09:34Z</time>
      </trkpt>
      <trkpt lat="43.57447" lon="3.6568">
        <ele>314</ele>
        <time>2013-01-10T12:09:42Z</time>
      </trkpt>
      <trkpt lat="43.57448" lon="3.65693">
        <ele>314</ele>
        <time>2013-01-10T12:09:51Z</time>
      </trkpt>
      <trkpt lat="43.57448" lon="3.65707">
        <ele>314</ele>
        <time>2013-01-10T12:10:00Z</time>
      </trkpt>
      <trkpt lat="43.57449" lon="3.65719">
        <ele>320</ele>
        <time>2013-01-10T12:10:08Z</time>
      </trkpt>
      <trkpt lat="43.57451" lon="3.65733">
        <ele>320</ele>
        <time>2013-01-10T12:10:17Z</time>
      </trkpt>
      <trkpt lat="43.57453" lon="3.65746">
        <ele>320</ele>
        <time>2013-01-10T12:10:25Z</time>
      </trkpt>
      <trkpt lat="43.57455" lon="3.65757">
        <ele>320</ele>
        <time>2013-01-10T12:10:33Z</time>
      </trkpt>
      <trkpt lat="43.57457" lon="3.6577">
        <ele>320</ele>
        <time>2013-01-10T12:10:41Z</time>
      </trkpt>
      <trkpt lat="43.57459" lon="3.65783">
        <ele>320</ele>
        <time>2013-01-10T12:10:49Z</time>
      </trkpt>
      <trkpt lat="43.57458" lon="3.65797">
        <ele>320</ele>
        <time>2013-01-10T12:10:58Z</time>
      </trkpt>
      <trkpt lat="43.57455" lon="3.65809">
        <ele>320</ele>
        <time>2013-01-10T12:11:06Z</time>
      </trkpt>
      <trkpt lat="43.57451" lon="3.65821">
        <ele>320</ele>
        <time>2013-01-10T12:11:15Z</time>
      </trkpt>
      <trkpt lat="43.57448" lon="3.65833">
        <ele>320</ele>
        <time>2013-01-10T12:11:23Z</time>
      </trkpt>
      <trkpt lat="43.57442" lon="3.65843">
        <ele>320</ele>
        <time>2013-01-10T12:11:31Z</time>
      </trkpt>
      <trkpt lat="43.57438" lon="3.65853">
        <ele>315</ele>
        <time>2013-01-10T12:11:39Z</time>
      </trkpt>
      <trkpt lat="43.57432" lon="3.65863">
        <ele>315</ele>
        <time>2013-01-10T12:11:47Z</time>
      </trkpt>
      <trkpt lat="43.57427" lon="3.65874">
        <ele>315</ele>
        <time>2013-01-10T12:11:57Z</time>
      </trkpt>
      <trkpt lat="43.57422" lon="3.65886">
        <ele>315</ele>
        <time>2013-01-10T12:12:05Z</time>
      </trkpt>
      <trkpt lat="43.57418" lon="3.65897">
        <ele>315</ele>
        <time>2013-01-10T12:12:12Z</time>
      </trkpt>
      <trkpt lat="43.57416" lon="3.6591">
        <ele>315</ele>
        <time>2013-01-10T12:12:20Z</time>
      </trkpt>
      <trkpt lat="43.57414" lon="3.65923">
        <ele>315</ele>
        <time>2013-01-10T12:12:28Z</time>
      </trkpt>
      <trkpt lat="43.57414" lon="3.65936">
        <ele>315</ele>
        <time>2013-01-10T12:12:35Z</time>
      </trkpt>
      <trkpt lat="43.57414" lon="3.65949">
        <ele>315</ele>
        <time>2013-01-10T12:12:43Z</time>
      </trkpt>
      <trkpt lat="43.57415" lon="3.65962">
        <ele>315</ele>
        <time>2013-01-10T12:12:52Z</time>
      </trkpt>
      <trkpt lat="43.57417" lon="3.65975">
        <ele>315</ele>
        <time>2013-01-10T12:13:01Z</time>
      </trkpt>
      <trkpt lat="43.57418" lon="3.65988">
        <ele>315</ele>
        <time>2013-01-10T12:13:09Z</time>
      </trkpt>
      <trkpt lat="43.57421" lon="3.66">
        <ele>315</ele>
        <time>2013-01-10T12:13:16Z</time>
      </trkpt>
      <trkpt lat="43.57425" lon="3.66011">
        <ele>315</ele>
        <time>2013-01-10T12:13:24Z</time>
      </trkpt>
      <trkpt lat="43.5743" lon="3.66022">
        <ele>315</ele>
        <time>2013-01-10T12:13:39Z</time>
      </trkpt>
      <trkpt lat="43.57433" lon="3.66035">
        <ele>315</ele>
        <time>2013-01-10T12:13:56Z</time>
      </trkpt>
      <trkpt lat="43.57423" lon="3.66033">
        <ele>315</ele>
        <time>2013-01-10T12:15:20Z</time>
      </trkpt>
      <trkpt lat="43.57416" lon="3.66043">
        <ele>315</ele>
        <time>2013-01-10T12:15:51Z</time>
      </trkpt>
      <trkpt lat="43.57412" lon="3.66055">
        <ele>315</ele>
        <time>2013-01-10T12:16:00Z</time>
      </trkpt>
      <trkpt lat="43.5741" lon="3.66068">
        <ele>315</ele>
        <time>2013-01-10T12:16:08Z</time>
      </trkpt>
      <trkpt lat="43.57405" lon="3.6608">
        <ele>315</ele>
        <time>2013-01-10T12:16:17Z</time>
      </trkpt>
      <trkpt lat="43.57402" lon="3.66091">
        <ele>315</ele>
        <time>2013-01-10T12:16:28Z</time>
      </trkpt>
      <trkpt lat="43.57399" lon="3.66103">
        <ele>315</ele>
        <time>2013-01-10T12:16:38Z</time>
      </trkpt>
      <trkpt lat="43.57397" lon="3.66116">
        <ele>306</ele>
        <time>2013-01-10T12:17:18Z</time>
      </trkpt>
      <trkpt lat="43.57393" lon="3.66127">
        <ele>306</ele>
        <time>2013-01-10T12:17:51Z</time>
      </trkpt>
      <trkpt lat="43.5739" lon="3.66139">
        <ele>306</ele>
        <time>2013-01-10T12:18:01Z</time>
      </trkpt>
      <trkpt lat="43.57388" lon="3.66152">
        <ele>306</ele>
        <time>2013-01-10T12:18:12Z</time>
      </trkpt>
      <trkpt lat="43.57391" lon="3.66163">
        <ele>306</ele>
        <time>2013-01-10T12:18:21Z</time>
      </trkpt>
      <trkpt lat="43.57393" lon="3.66176">
        <ele>306</ele>
        <time>2013-01-10T12:18:30Z</time>
      </trkpt>
      <trkpt lat="43.57397" lon="3.66187">
        <ele>306</ele>
        <time>2013-01-10T12:18:39Z</time>
      </trkpt>
      <trkpt lat="43.57404" lon="3.66196">
        <ele>300</ele>
        <time>2013-01-10T12:18:47Z</time>
      </trkpt>
      <trkpt lat="43.5741" lon="3.66205">
        <ele>300</ele>
        <time>2013-01-10T12:18:56Z</time>
      </trkpt>
      <trkpt lat="43.57417" lon="3.66215">
        <ele>300</ele>
        <time>2013-01-10T12:19:05Z</time>
      </trkpt>
      <trkpt lat="43.57421" lon="3.66226">
        <ele>300</ele>
        <time>2013-01-10T12:19:13Z</time>
      </trkpt>
      <trkpt lat="43.57427" lon="3.66236">
        <ele>300</ele>
        <time>2013-01-10T12:19:21Z</time>
      </trkpt>
      <trkpt lat="43.57427" lon="3.66249">
        <ele>300</ele>
        <time>2013-01-10T12:19:29Z</time>
      </trkpt>
      <trkpt lat="43.57427" lon="3.66261">
        <ele>300</ele>
        <time>2013-01-10T12:19:39Z</time>
      </trkpt>
      <trkpt lat="43.57425" lon="3.66274">
        <ele>300</ele>
        <time>2013-01-10T12:19:47Z</time>
      </trkpt>
      <trkpt lat="43.57419" lon="3.66285">
        <ele>300</ele>
        <time>2013-01-10T12:19:55Z</time>
      </trkpt>
      <trkpt lat="43.57414" lon="3.66295">
        <ele>300</ele>
        <time>2013-01-10T12:20:02Z</time>
      </trkpt>
      <trkpt lat="43.57408" lon="3.66305">
        <ele>300</ele>
        <time>2013-01-10T12:20:10Z</time>
      </trkpt>
      <trkpt lat="43.57403" lon="3.66316">
        <ele>300</ele>
        <time>2013-01-10T12:20:17Z</time>
      </trkpt>
      <trkpt lat="43.57397" lon="3.66325">
        <ele>300</ele>
        <time>2013-01-10T12:20:25Z</time>
      </trkpt>
      <trkpt lat="43.57389" lon="3.66332">
        <ele>300</ele>
        <time>2013-01-10T12:20:32Z</time>
      </trkpt>
      <trkpt lat="43.5738" lon="3.66335">
        <ele>300</ele>
        <time>2013-01-10T12:20:39Z</time>
      </trkpt>
      <trkpt lat="43.5737" lon="3.66335">
        <ele>300</ele>
        <time>2013-01-10T12:20:47Z</time>
      </trkpt>
      <trkpt lat="43.57361" lon="3.66335">
        <ele>300</ele>
        <time>2013-01-10T12:20:55Z</time>
      </trkpt>
      <trkpt lat="43.57352" lon="3.66331">
        <ele>293</ele>
        <time>2013-01-10T12:21:02Z</time>
      </trkpt>
      <trkpt lat="43.57342" lon="3.66329">
        <ele>293</ele>
        <time>2013-01-10T12:21:10Z</time>
      </trkpt>
      <trkpt lat="43.57334" lon="3.66322">
        <ele>293</ele>
        <time>2013-01-10T12:21:18Z</time>
      </trkpt>
      <trkpt lat="43.57325" lon="3.66317">
        <ele>293</ele>
        <time>2013-01-10T12:21:27Z</time>
      </trkpt>
      <trkpt lat="43.57316" lon="3.6631">
        <ele>293</ele>
        <time>2013-01-10T12:21:33Z</time>
      </trkpt>
      <trkpt lat="43.57308" lon="3.66303">
        <ele>293</ele>
        <time>2013-01-10T12:21:39Z</time>
      </trkpt>
      <trkpt lat="43.57298" lon="3.66298">
        <ele>293</ele>
        <time>2013-01-10T12:21:42Z</time>
      </trkpt>
      <trkpt lat="43.57288" lon="3.66291">
        <ele>293</ele>
        <time>2013-01-10T12:21:46Z</time>
      </trkpt>
      <trkpt lat="43.57279" lon="3.66288">
        <ele>293</ele>
        <time>2013-01-10T12:21:50Z</time>
      </trkpt>
      <trkpt lat="43.57273" lon="3.66279">
        <ele>293</ele>
        <time>2013-01-10T12:22:18Z</time>
      </trkpt>
      <trkpt lat="43.57265" lon="3.66272">
        <ele>293</ele>
        <time>2013-01-10T12:22:27Z</time>
      </trkpt>
      <trkpt lat="43.57257" lon="3.66264">
        <ele>293</ele>
        <time>2013-01-10T12:22:35Z</time>
      </trkpt>
      <trkpt lat="43.5725" lon="3.66256">
        <ele>293</ele>
        <time>2013-01-10T12:22:44Z</time>
      </trkpt>
      <trkpt lat="43.57242" lon="3.66249">
        <ele>293</ele>
        <time>2013-01-10T12:22:52Z</time>
      </trkpt>
      <trkpt lat="43.57233" lon="3.66243">
        <ele>293</ele>
        <time>2013-01-10T12:23:00Z</time>
      </trkpt>
      <trkpt lat="43.57223" lon="3.6624">
        <ele>293</ele>
        <time>2013-01-10T12:23:08Z</time>
      </trkpt>
      <trkpt lat="43.57214" lon="3.6624">
        <ele>293</ele>
        <time>2013-01-10T12:23:15Z</time>
      </trkpt>
      <trkpt lat="43.57205" lon="3.66241">
        <ele>293</ele>
        <time>2013-01-10T12:23:23Z</time>
      </trkpt>
      <trkpt lat="43.57196" lon="3.66247">
        <ele>293</ele>
        <time>2013-01-10T12:23:31Z</time>
      </trkpt>
      <trkpt lat="43.57188" lon="3.66254">
        <ele>293</ele>
        <time>2013-01-10T12:23:39Z</time>
      </trkpt>
      <trkpt lat="43.57181" lon="3.66261">
        <ele>293</ele>
        <time>2013-01-10T12:23:47Z</time>
      </trkpt>
      <trkpt lat="43.57174" lon="3.6627">
        <ele>288</ele>
        <time>2013-01-10T12:23:55Z</time>
      </trkpt>
      <trkpt lat="43.57167" lon="3.66279">
        <ele>288</ele>
        <time>2013-01-10T12:24:04Z</time>
      </trkpt>
      <trkpt lat="43.5716" lon="3.66288">
        <ele>288</ele>
        <time>2013-01-10T12:24:14Z</time>
      </trkpt>
      <trkpt lat="43.57153" lon="3.66298">
        <ele>288</ele>
        <time>2013-01-10T12:24:24Z</time>
      </trkpt>
      <trkpt lat="43.57148" lon="3.66308">
        <ele>288</ele>
        <time>2013-01-10T12:24:33Z</time>
      </trkpt>
      <trkpt lat="43.57145" lon="3.66321">
        <ele>288</ele>
        <time>2013-01-10T12:24:43Z</time>
      </trkpt>
      <trkpt lat="43.57146" lon="3.66334">
        <ele>283</ele>
        <time>2013-01-10T12:24:55Z</time>
      </trkpt>
      <trkpt lat="43.57148" lon="3.66346">
        <ele>283</ele>
        <time>2013-01-10T12:28:25Z</time>
      </trkpt>
      <trkpt lat="43.57152" lon="3.66357">
        <ele>283</ele>
        <time>2013-01-10T12:28:34Z</time>
      </trkpt>
      <trkpt lat="43.57156" lon="3.66369">
        <ele>283</ele>
        <time>2013-01-10T12:28:42Z</time>
      </trkpt>
      <trkpt lat="43.5716" lon="3.66381">
        <ele>283</ele>
        <time>2013-01-10T12:28:53Z</time>
      </trkpt>
      <trkpt lat="43.57164" lon="3.66391">
        <ele>283</ele>
        <time>2013-01-10T12:29:02Z</time>
      </trkpt>
      <trkpt lat="43.57168" lon="3.66403">
        <ele>276</ele>
        <time>2013-01-10T12:29:13Z</time>
      </trkpt>
      <trkpt lat="43.57172" lon="3.66415">
        <ele>276</ele>
        <time>2013-01-10T12:29:23Z</time>
      </trkpt>
      <trkpt lat="43.57176" lon="3.66426">
        <ele>276</ele>
        <time>2013-01-10T12:29:31Z</time>
      </trkpt>
      <trkpt lat="43.5718" lon="3.66438">
        <ele>276</ele>
        <time>2013-01-10T12:29:40Z</time>
      </trkpt>
      <trkpt lat="43.57184" lon="3.6645">
        <ele>276</ele>
        <time>2013-01-10T12:29:48Z</time>
      </trkpt>
      <trkpt lat="43.57187" lon="3.66461">
        <ele>276</ele>
        <time>2013-01-10T12:29:55Z</time>
      </trkpt>
      <trkpt lat="43.57192" lon="3.66473">
        <ele>276</ele>
        <time>2013-01-10T12:30:03Z</time>
      </trkpt>
      <trkpt lat="43.57194" lon="3.66485">
        <ele>270</ele>
        <time>2013-01-10T12:30:11Z</time>
      </trkpt>
      <trkpt lat="43.57197" lon="3.66497">
        <ele>270</ele>
        <time>2013-01-10T12:30:18Z</time>
      </trkpt>
      <trkpt lat="43.57201" lon="3.66509">
        <ele>270</ele>
        <time>2013-01-10T12:30:26Z</time>
      </trkpt>
      <trkpt lat="43.57204" lon="3.66521">
        <ele>270</ele>
        <time>2013-01-10T12:30:34Z</time>
      </trkpt>
      <trkpt lat="43.57207" lon="3.66532">
        <ele>270</ele>
        <time>2013-01-10T12:30:41Z</time>
      </trkpt>
      <trkpt lat="43.57211" lon="3.66544">
        <ele>270</ele>
        <time>2013-01-10T12:30:49Z</time>
      </trkpt>
      <trkpt lat="43.57214" lon="3.66556">
        <ele>270</ele>
        <time>2013-01-10T12:30:56Z</time>
      </trkpt>
      <trkpt lat="43.57216" lon="3.66567">
        <ele>264</ele>
        <time>2013-01-10T12:31:03Z</time>
      </trkpt>
      <trkpt lat="43.5722" lon="3.66579">
        <ele>264</ele>
        <time>2013-01-10T12:31:11Z</time>
      </trkpt>
      <trkpt lat="43.57222" lon="3.66592">
        <ele>264</ele>
        <time>2013-01-10T12:31:19Z</time>
      </trkpt>
      <trkpt lat="43.57225" lon="3.66603">
        <ele>264</ele>
        <time>2013-01-10T12:31:27Z</time>
      </trkpt>
      <trkpt lat="43.57229" lon="3.66616">
        <ele>264</ele>
        <time>2013-01-10T12:31:35Z</time>
      </trkpt>
      <trkpt lat="43.57233" lon="3.66629">
        <ele>264</ele>
        <time>2013-01-10T12:31:43Z</time>
      </trkpt>
      <trkpt lat="43.57236" lon="3.66641">
        <ele>264</ele>
        <time>2013-01-10T12:31:51Z</time>
      </trkpt>
      <trkpt lat="43.57239" lon="3.66654">
        <ele>264</ele>
        <time>2013-01-10T12:31:59Z</time>
      </trkpt>
      <trkpt lat="43.57242" lon="3.66666">
        <ele>258</ele>
        <time>2013-01-10T12:32:07Z</time>
      </trkpt>
      <trkpt lat="43.57244" lon="3.66679">
        <ele>258</ele>
        <time>2013-01-10T12:32:15Z</time>
      </trkpt>
      <trkpt lat="43.57246" lon="3.66691">
        <ele>258</ele>
        <time>2013-01-10T12:32:23Z</time>
      </trkpt>
      <trkpt lat="43.57247" lon="3.66704">
        <ele>258</ele>
        <time>2013-01-10T12:32:31Z</time>
      </trkpt>
      <trkpt lat="43.57238" lon="3.66707">
        <ele>258</ele>
        <time>2013-01-10T12:32:56Z</time>
      </trkpt>
      <trkpt lat="43.57232" lon="3.66697">
        <ele>252</ele>
        <time>2013-01-10T12:33:07Z</time>
      </trkpt>
      <trkpt lat="43.57226" lon="3.66687">
        <ele>247</ele>
        <time>2013-01-10T12:33:17Z</time>
      </trkpt>
      <trkpt lat="43.57222" lon="3.66676">
        <ele>247</ele>
        <time>2013-01-10T12:33:26Z</time>
      </trkpt>
      <trkpt lat="43.57216" lon="3.66666">
        <ele>247</ele>
        <time>2013-01-10T12:33:34Z</time>
      </trkpt>
      <trkpt lat="43.57211" lon="3.66656">
        <ele>247</ele>
        <time>2013-01-10T12:33:43Z</time>
      </trkpt>
      <trkpt lat="43.57206" lon="3.66646">
        <ele>247</ele>
        <time>2013-01-10T12:33:51Z</time>
      </trkpt>
      <trkpt lat="43.57201" lon="3.66635">
        <ele>247</ele>
        <time>2013-01-10T12:34:00Z</time>
      </trkpt>
      <trkpt lat="43.57195" lon="3.66625">
        <ele>247</ele>
        <time>2013-01-10T12:34:08Z</time>
      </trkpt>
      <trkpt lat="43.57188" lon="3.66616">
        <ele>247</ele>
        <time>2013-01-10T12:34:17Z</time>
      </trkpt>
      <trkpt lat="43.57181" lon="3.66607">
        <ele>247</ele>
        <time>2013-01-10T12:34:25Z</time>
      </trkpt>
      <trkpt lat="43.57174" lon="3.666">
        <ele>247</ele>
        <time>2013-01-10T12:34:33Z</time>
      </trkpt>
      <trkpt lat="43.57166" lon="3.66592">
        <ele>240</ele>
        <time>2013-01-10T12:34:42Z</time>
      </trkpt>
      <trkpt lat="43.57159" lon="3.66584">
        <ele>240</ele>
        <time>2013-01-10T12:34:51Z</time>
      </trkpt>
      <trkpt lat="43.57151" lon="3.66577">
        <ele>240</ele>
        <time>2013-01-10T12:35:00Z</time>
      </trkpt>
      <trkpt lat="43.57142" lon="3.66571">
        <ele>240</ele>
        <time>2013-01-10T12:35:09Z</time>
      </trkpt>
      <trkpt lat="43.57133" lon="3.66565">
        <ele>240</ele>
        <time>2013-01-10T12:35:18Z</time>
      </trkpt>
      <trkpt lat="43.57125" lon="3.66559">
        <ele>240</ele>
        <time>2013-01-10T12:35:26Z</time>
      </trkpt>
      <trkpt lat="43.57116" lon="3.66554">
        <ele>234</ele>
        <time>2013-01-10T12:35:34Z</time>
      </trkpt>
      <trkpt lat="43.57108" lon="3.66548">
        <ele>234</ele>
        <time>2013-01-10T12:35:42Z</time>
      </trkpt>
      <trkpt lat="43.571" lon="3.66541">
        <ele>234</ele>
        <time>2013-01-10T12:35:49Z</time>
      </trkpt>
      <trkpt lat="43.57093" lon="3.66532">
        <ele>234</ele>
        <time>2013-01-10T12:35:58Z</time>
      </trkpt>
      <trkpt lat="43.57088" lon="3.66522">
        <ele>234</ele>
        <time>2013-01-10T12:36:08Z</time>
      </trkpt>
      <trkpt lat="43.57083" lon="3.66512">
        <ele>227</ele>
        <time>2013-01-10T12:36:16Z</time>
      </trkpt>
      <trkpt lat="43.57074" lon="3.66513">
        <ele>227</ele>
        <time>2013-01-10T12:36:25Z</time>
      </trkpt>
      <trkpt lat="43.57073" lon="3.66526">
        <ele>227</ele>
        <time>2013-01-10T12:36:33Z</time>
      </trkpt>
      <trkpt lat="43.57075" lon="3.66539">
        <ele>227</ele>
        <time>2013-01-10T12:36:42Z</time>
      </trkpt>
      <trkpt lat="43.57077" lon="3.66551">
        <ele>227</ele>
        <time>2013-01-10T12:36:50Z</time>
      </trkpt>
      <trkpt lat="43.5708" lon="3.66563">
        <ele>227</ele>
        <time>2013-01-10T12:36:57Z</time>
      </trkpt>
      <trkpt lat="43.57084" lon="3.66576">
        <ele>227</ele>
        <time>2013-01-10T12:37:06Z</time>
      </trkpt>
      <trkpt lat="43.57089" lon="3.66587">
        <ele>227</ele>
        <time>2013-01-10T12:37:16Z</time>
      </trkpt>
      <trkpt lat="43.57095" lon="3.66598">
        <ele>227</ele>
        <time>2013-01-10T12:37:25Z</time>
      </trkpt>
      <trkpt lat="43.57101" lon="3.66608">
        <ele>222</ele>
        <time>2013-01-10T12:37:34Z</time>
      </trkpt>
      <trkpt lat="43.57107" lon="3.66618">
        <ele>222</ele>
        <time>2013-01-10T12:37:42Z</time>
      </trkpt>
      <trkpt lat="43.57112" lon="3.66628">
        <ele>222</ele>
        <time>2013-01-10T12:37:50Z</time>
      </trkpt>
      <trkpt lat="43.57117" lon="3.66639">
        <ele>222</ele>
        <time>2013-01-10T12:37:59Z</time>
      </trkpt>
      <trkpt lat="43.57122" lon="3.6665">
        <ele>222</ele>
        <time>2013-01-10T12:38:08Z</time>
      </trkpt>
      <trkpt lat="43.57124" lon="3.66663">
        <ele>216</ele>
        <time>2013-01-10T12:38:18Z</time>
      </trkpt>
      <trkpt lat="43.57115" lon="3.66659">
        <ele>210</ele>
        <time>2013-01-10T12:38:30Z</time>
      </trkpt>
      <trkpt lat="43.57107" lon="3.66651">
        <ele>210</ele>
        <time>2013-01-10T12:38:38Z</time>
      </trkpt>
      <trkpt lat="43.57099" lon="3.66645">
        <ele>210</ele>
        <time>2013-01-10T12:38:45Z</time>
      </trkpt>
      <trkpt lat="43.57092" lon="3.66638">
        <ele>210</ele>
        <time>2013-01-10T12:38:53Z</time>
      </trkpt>
      <trkpt lat="43.57082" lon="3.66632">
        <ele>210</ele>
        <time>2013-01-10T12:39:02Z</time>
      </trkpt>
      <trkpt lat="43.57074" lon="3.66626">
        <ele>210</ele>
        <time>2013-01-10T12:39:10Z</time>
      </trkpt>
      <trkpt lat="43.57065" lon="3.6662">
        <ele>210</ele>
        <time>2013-01-10T12:39:18Z</time>
      </trkpt>
      <trkpt lat="43.57056" lon="3.66613">
        <ele>210</ele>
        <time>2013-01-10T12:39:26Z</time>
      </trkpt>
      <trkpt lat="43.57047" lon="3.66608">
        <ele>210</ele>
        <time>2013-01-10T12:39:34Z</time>
      </trkpt>
      <trkpt lat="43.57039" lon="3.66603">
        <ele>210</ele>
        <time>2013-01-10T12:39:42Z</time>
      </trkpt>
      <trkpt lat="43.57031" lon="3.66595">
        <ele>201</ele>
        <time>2013-01-10T12:39:51Z</time>
      </trkpt>
      <trkpt lat="43.57024" lon="3.66585">
        <ele>201</ele>
        <time>2013-01-10T12:40:00Z</time>
      </trkpt>
      <trkpt lat="43.57018" lon="3.66576">
        <ele>201</ele>
        <time>2013-01-10T12:40:09Z</time>
      </trkpt>
      <trkpt lat="43.57014" lon="3.66563">
        <ele>201</ele>
        <time>2013-01-10T12:40:18Z</time>
      </trkpt>
      <trkpt lat="43.57011" lon="3.66551">
        <ele>196</ele>
        <time>2013-01-10T12:40:26Z</time>
      </trkpt>
      <trkpt lat="43.57009" lon="3.66539">
        <ele>196</ele>
        <time>2013-01-10T12:40:34Z</time>
      </trkpt>
      <trkpt lat="43.57007" lon="3.66525">
        <ele>196</ele>
        <time>2013-01-10T12:40:44Z</time>
      </trkpt>
      <trkpt lat="43.57004" lon="3.66513">
        <ele>196</ele>
        <time>2013-01-10T12:40:53Z</time>
      </trkpt>
      <trkpt lat="43.57003" lon="3.665">
        <ele>190</ele>
        <time>2013-01-10T12:41:01Z</time>
      </trkpt>
      <trkpt lat="43.57" lon="3.66488">
        <ele>190</ele>
        <time>2013-01-10T12:41:09Z</time>
      </trkpt>
      <trkpt lat="43.56991" lon="3.66485">
        <ele>190</ele>
        <time>2013-01-10T12:41:16Z</time>
      </trkpt>
      <trkpt lat="43.56987" lon="3.66497">
        <ele>190</ele>
        <time>2013-01-10T12:41:24Z</time>
      </trkpt>
      <trkpt lat="43.56986" lon="3.6651">
        <ele>190</ele>
        <time>2013-01-10T12:41:32Z</time>
      </trkpt>
      <trkpt lat="43.56983" lon="3.66522">
        <ele>190</ele>
        <time>2013-01-10T12:41:40Z</time>
      </trkpt>
      <trkpt lat="43.5698" lon="3.66534">
        <ele>190</ele>
        <time>2013-01-10T12:41:48Z</time>
      </trkpt>
      <trkpt lat="43.56977" lon="3.66546">
        <ele>190</ele>
        <time>2013-01-10T12:41:56Z</time>
      </trkpt>
      <trkpt lat="43.56973" lon="3.66559">
        <ele>190</ele>
        <time>2013-01-10T12:42:05Z</time>
      </trkpt>
      <trkpt lat="43.56971" lon="3.66571">
        <ele>190</ele>
        <time>2013-01-10T12:42:13Z</time>
      </trkpt>
      <trkpt lat="43.56969" lon="3.66584">
        <ele>190</ele>
        <time>2013-01-10T12:42:21Z</time>
      </trkpt>
      <trkpt lat="43.56968" lon="3.66597">
        <ele>190</ele>
        <time>2013-01-10T12:42:29Z</time>
      </trkpt>
      <trkpt lat="43.56968" lon="3.66611">
        <ele>190</ele>
        <time>2013-01-10T12:42:38Z</time>
      </trkpt>
      <trkpt lat="43.56968" lon="3.66623">
        <ele>184</ele>
        <time>2013-01-10T12:42:47Z</time>
      </trkpt>
      <trkpt lat="43.56969" lon="3.66636">
        <ele>184</ele>
        <time>2013-01-10T12:42:55Z</time>
      </trkpt>
      <trkpt lat="43.56971" lon="3.66649">
        <ele>184</ele>
        <time>2013-01-10T12:43:03Z</time>
      </trkpt>
      <trkpt lat="43.56975" lon="3.66661">
        <ele>184</ele>
        <time>2013-01-10T12:43:12Z</time>
      </trkpt>
      <trkpt lat="43.56981" lon="3.66671">
        <ele>184</ele>
        <time>2013-01-10T12:43:21Z</time>
      </trkpt>
      <trkpt lat="43.56987" lon="3.66681">
        <ele>178</ele>
        <time>2013-01-10T12:43:30Z</time>
      </trkpt>
      <trkpt lat="43.56994" lon="3.6669">
        <ele>178</ele>
        <time>2013-01-10T12:43:40Z</time>
      </trkpt>
      <trkpt lat="43.56994" lon="3.66702">
        <ele>178</ele>
        <time>2013-01-10T12:43:51Z</time>
      </trkpt>
      <trkpt lat="43.56984" lon="3.66703">
        <ele>172</ele>
        <time>2013-01-10T12:44:02Z</time>
      </trkpt>
      <trkpt lat="43.56976" lon="3.667">
        <ele>172</ele>
        <time>2013-01-10T12:44:12Z</time>
      </trkpt>
      <trkpt lat="43.56967" lon="3.66698">
        <ele>172</ele>
        <time>2013-01-10T12:44:20Z</time>
      </trkpt>
      <trkpt lat="43.56958" lon="3.66694">
        <ele>166</ele>
        <time>2013-01-10T12:44:28Z</time>
      </trkpt>
      <trkpt lat="43.56949" lon="3.66692">
        <ele>166</ele>
        <time>2013-01-10T12:44:36Z</time>
      </trkpt>
      <trkpt lat="43.5694" lon="3.66689">
        <ele>166</ele>
        <time>2013-01-10T12:44:44Z</time>
      </trkpt>
      <trkpt lat="43.56931" lon="3.66684">
        <ele>166</ele>
        <time>2013-01-10T12:44:53Z</time>
      </trkpt>
      <trkpt lat="43.56922" lon="3.66681">
        <ele>166</ele>
        <time>2013-01-10T12:45:01Z</time>
      </trkpt>
      <trkpt lat="43.56914" lon="3.66675">
        <ele>166</ele>
        <time>2013-01-10T12:45:09Z</time>
      </trkpt>
      <trkpt lat="43.56905" lon="3.66669">
        <ele>166</ele>
        <time>2013-01-10T12:45:18Z</time>
      </trkpt>
      <trkpt lat="43.56898" lon="3.66662">
        <ele>166</ele>
        <time>2013-01-10T12:45:27Z</time>
      </trkpt>
      <trkpt lat="43.56892" lon="3.66652">
        <ele>166</ele>
        <time>2013-01-10T12:45:36Z</time>
      </trkpt>
      <trkpt lat="43.56887" lon="3.66641">
        <ele>159</ele>
        <time>2013-01-10T12:45:45Z</time>
      </trkpt>
      <trkpt lat="43.56883" lon="3.66629">
        <ele>159</ele>
        <time>2013-01-10T12:45:53Z</time>
      </trkpt>
      <trkpt lat="43.56881" lon="3.66617">
        <ele>159</ele>
        <time>2013-01-10T12:46:01Z</time>
      </trkpt>
      <trkpt lat="43.56881" lon="3.66604">
        <ele>159</ele>
        <time>2013-01-10T12:46:09Z</time>
      </trkpt>
      <trkpt lat="43.56881" lon="3.66592">
        <ele>159</ele>
        <time>2013-01-10T12:46:18Z</time>
      </trkpt>
      <trkpt lat="43.56884" lon="3.66579">
        <ele>159</ele>
        <time>2013-01-10T12:46:27Z</time>
      </trkpt>
      <trkpt lat="43.56879" lon="3.66569">
        <ele>153</ele>
        <time>2013-01-10T12:46:35Z</time>
      </trkpt>
      <trkpt lat="43.5687" lon="3.66574">
        <ele>153</ele>
        <time>2013-01-10T12:46:42Z</time>
      </trkpt>
      <trkpt lat="43.56863" lon="3.66584">
        <ele>153</ele>
        <time>2013-01-10T12:46:50Z</time>
      </trkpt>
      <trkpt lat="43.56856" lon="3.66593">
        <ele>153</ele>
        <time>2013-01-10T12:46:58Z</time>
      </trkpt>
      <trkpt lat="43.56849" lon="3.66602">
        <ele>153</ele>
        <time>2013-01-10T12:47:06Z</time>
      </trkpt>
      <trkpt lat="43.56842" lon="3.66612">
        <ele>153</ele>
        <time>2013-01-10T12:47:14Z</time>
      </trkpt>
      <trkpt lat="43.56836" lon="3.6662">
        <ele>148</ele>
        <time>2013-01-10T12:47:22Z</time>
      </trkpt>
      <trkpt lat="43.56831" lon="3.66632">
        <ele>148</ele>
        <time>2013-01-10T12:47:31Z</time>
      </trkpt>
      <trkpt lat="43.56826" lon="3.66643">
        <ele>148</ele>
        <time>2013-01-10T12:48:08Z</time>
      </trkpt>
      <trkpt lat="43.56826" lon="3.66656">
        <ele>148</ele>
        <time>2013-01-10T12:48:16Z</time>
      </trkpt>
      <trkpt lat="43.5683" lon="3.66644">
        <ele>148</ele>
        <time>2013-01-10T12:50:51Z</time>
      </trkpt>
      <trkpt lat="43.56824" lon="3.66655">
        <ele>148</ele>
        <time>2013-01-10T12:57:05Z</time>
      </trkpt>
      <trkpt lat="43.56824" lon="3.66667">
        <ele>148</ele>
        <time>2013-01-10T12:57:12Z</time>
      </trkpt>
      <trkpt lat="43.56825" lon="3.66681">
        <ele>148</ele>
        <time>2013-01-10T12:57:20Z</time>
      </trkpt>
      <trkpt lat="43.56824" lon="3.66693">
        <ele>148</ele>
        <time>2013-01-10T12:57:27Z</time>
      </trkpt>
      <trkpt lat="43.56824" lon="3.66707">
        <ele>148</ele>
        <time>2013-01-10T12:57:34Z</time>
      </trkpt>
      <trkpt lat="43.56826" lon="3.66718">
        <ele>148</ele>
        <time>2013-01-10T12:57:41Z</time>
      </trkpt>
      <trkpt lat="43.5683" lon="3.6673">
        <ele>148</ele>
        <time>2013-01-10T12:57:46Z</time>
      </trkpt>
      <trkpt lat="43.56832" lon="3.66742">
        <ele>148</ele>
        <time>2013-01-10T12:57:53Z</time>
      </trkpt>
      <trkpt lat="43.56836" lon="3.66753">
        <ele>148</ele>
        <time>2013-01-10T12:58:00Z</time>
      </trkpt>
      <trkpt lat="43.56839" lon="3.66765">
        <ele>142</ele>
        <time>2013-01-10T12:58:07Z</time>
      </trkpt>
      <trkpt lat="43.56838" lon="3.66779">
        <ele>142</ele>
        <time>2013-01-10T12:58:14Z</time>
      </trkpt>
      <trkpt lat="43.56838" lon="3.66792">
        <ele>142</ele>
        <time>2013-01-10T12:58:21Z</time>
      </trkpt>
      <trkpt lat="43.56844" lon="3.66803">
        <ele>142</ele>
        <time>2013-01-10T12:58:28Z</time>
      </trkpt>
      <trkpt lat="43.56849" lon="3.66814">
        <ele>142</ele>
        <time>2013-01-10T12:58:35Z</time>
      </trkpt>
      <trkpt lat="43.56851" lon="3.66825">
        <ele>142</ele>
        <time>2013-01-10T12:58:43Z</time>
      </trkpt>
      <trkpt lat="43.56852" lon="3.66839">
        <ele>142</ele>
        <time>2013-01-10T12:58:51Z</time>
      </trkpt>
      <trkpt lat="43.56851" lon="3.66852">
        <ele>142</ele>
        <time>2013-01-10T12:58:59Z</time>
      </trkpt>
      <trkpt lat="43.56853" lon="3.66866">
        <ele>142</ele>
        <time>2013-01-10T12:59:07Z</time>
      </trkpt>
      <trkpt lat="43.56854" lon="3.66878">
        <ele>142</ele>
        <time>2013-01-10T12:59:14Z</time>
      </trkpt>
      <trkpt lat="43.56854" lon="3.66892">
        <ele>142</ele>
        <time>2013-01-10T12:59:22Z</time>
      </trkpt>
      <trkpt lat="43.56856" lon="3.66904">
        <ele>142</ele>
        <time>2013-01-10T12:59:29Z</time>
      </trkpt>
      <trkpt lat="43.56859" lon="3.66917">
        <ele>142</ele>
        <time>2013-01-10T12:59:36Z</time>
      </trkpt>
      <trkpt lat="43.5686" lon="3.66931">
        <ele>142</ele>
        <time>2013-01-10T12:59:44Z</time>
      </trkpt>
      <trkpt lat="43.56862" lon="3.66944">
        <ele>142</ele>
        <time>2013-01-10T12:59:51Z</time>
      </trkpt>
      <trkpt lat="43.56863" lon="3.66956">
        <ele>142</ele>
        <time>2013-01-10T12:59:59Z</time>
      </trkpt>
      <trkpt lat="43.56864" lon="3.66969">
        <ele>142</ele>
        <time>2013-01-10T13:00:06Z</time>
      </trkpt>
      <trkpt lat="43.56864" lon="3.66982">
        <ele>142</ele>
        <time>2013-01-10T13:00:13Z</time>
      </trkpt>
      <trkpt lat="43.56864" lon="3.66995">
        <ele>142</ele>
        <time>2013-01-10T13:00:20Z</time>
      </trkpt>
      <trkpt lat="43.56862" lon="3.67009">
        <ele>142</ele>
        <time>2013-01-10T13:00:29Z</time>
      </trkpt>
      <trkpt lat="43.56858" lon="3.6702">
        <ele>142</ele>
        <time>2013-01-10T13:00:37Z</time>
      </trkpt>
      <trkpt lat="43.56854" lon="3.67032">
        <ele>142</ele>
        <time>2013-01-10T13:00:45Z</time>
      </trkpt>
      <trkpt lat="43.56849" lon="3.67043">
        <ele>142</ele>
        <time>2013-01-10T13:00:54Z</time>
      </trkpt>
      <trkpt lat="43.56843" lon="3.67053">
        <ele>142</ele>
        <time>2013-01-10T13:01:03Z</time>
      </trkpt>
      <trkpt lat="43.56839" lon="3.67064">
        <ele>136</ele>
        <time>2013-01-10T13:01:10Z</time>
      </trkpt>
      <trkpt lat="43.56845" lon="3.67074">
        <ele>136</ele>
        <time>2013-01-10T13:01:17Z</time>
      </trkpt>
      <trkpt lat="43.56853" lon="3.67083">
        <ele>136</ele>
        <time>2013-01-10T13:01:25Z</time>
      </trkpt>
      <trkpt lat="43.56858" lon="3.67094">
        <ele>136</ele>
        <time>2013-01-10T13:01:32Z</time>
      </trkpt>
      <trkpt lat="43.56864" lon="3.67104">
        <ele>136</ele>
        <time>2013-01-10T13:01:40Z</time>
      </trkpt>
      <trkpt lat="43.5687" lon="3.67114">
        <ele>136</ele>
        <time>2013-01-10T13:01:48Z</time>
      </trkpt>
      <trkpt lat="43.56867" lon="3.67125">
        <ele>141</ele>
        <time>2013-01-10T13:01:59Z</time>
      </trkpt>
      <trkpt lat="43.56865" lon="3.67139">
        <ele>141</ele>
        <time>2013-01-10T13:02:06Z</time>
      </trkpt>
      <trkpt lat="43.56862" lon="3.6715">
        <ele>141</ele>
        <time>2013-01-10T13:02:13Z</time>
      </trkpt>
      <trkpt lat="43.56854" lon="3.67159">
        <ele>136</ele>
        <time>2013-01-10T13:02:21Z</time>
      </trkpt>
      <trkpt lat="43.56847" lon="3.67166">
        <ele>136</ele>
        <time>2013-01-10T13:02:28Z</time>
      </trkpt>
      <trkpt lat="43.56846" lon="3.6718">
        <ele>136</ele>
        <time>2013-01-10T13:02:35Z</time>
      </trkpt>
      <trkpt lat="43.56854" lon="3.67186">
        <ele>136</ele>
        <time>2013-01-10T13:02:50Z</time>
      </trkpt>
      <trkpt lat="43.56862" lon="3.67193">
        <ele>136</ele>
        <time>2013-01-10T13:02:58Z</time>
      </trkpt>
      <trkpt lat="43.5687" lon="3.67201">
        <ele>136</ele>
        <time>2013-01-10T13:03:06Z</time>
      </trkpt>
      <trkpt lat="43.5687" lon="3.67214">
        <ele>136</ele>
        <time>2013-01-10T13:03:16Z</time>
      </trkpt>
      <trkpt lat="43.56873" lon="3.67226">
        <ele>136</ele>
        <time>2013-01-10T13:03:46Z</time>
      </trkpt>
      <trkpt lat="43.5688" lon="3.67236">
        <ele>136</ele>
        <time>2013-01-10T13:03:57Z</time>
      </trkpt>
      <trkpt lat="43.56888" lon="3.67243">
        <ele>136</ele>
        <time>2013-01-10T13:04:05Z</time>
      </trkpt>
      <trkpt lat="43.56896" lon="3.67249">
        <ele>136</ele>
        <time>2013-01-10T13:04:13Z</time>
      </trkpt>
      <trkpt lat="43.56903" lon="3.67256">
        <ele>136</ele>
        <time>2013-01-10T13:04:21Z</time>
      </trkpt>
      <trkpt lat="43.56912" lon="3.67262">
        <ele>136</ele>
        <time>2013-01-10T13:04:30Z</time>
      </trkpt>
      <trkpt lat="43.5692" lon="3.67267">
        <ele>136</ele>
        <time>2013-01-10T13:04:40Z</time>
      </trkpt>
      <trkpt lat="43.5693" lon="3.67271">
        <ele>136</ele>
        <time>2013-01-10T13:04:48Z</time>
      </trkpt>
      <trkpt lat="43.56937" lon="3.67277">
        <ele>136</ele>
        <time>2013-01-10T13:04:56Z</time>
      </trkpt>
      <trkpt lat="43.56945" lon="3.67283">
        <ele>136</ele>
        <time>2013-01-10T13:05:04Z</time>
      </trkpt>
      <trkpt lat="43.56951" lon="3.67294">
        <ele>136</ele>
        <time>2013-01-10T13:05:12Z</time>
      </trkpt>
      <trkpt lat="43.56956" lon="3.67304">
        <ele>136</ele>
        <time>2013-01-10T13:05:19Z</time>
      </trkpt>
      <trkpt lat="43.56963" lon="3.67313">
        <ele>136</ele>
        <time>2013-01-10T13:05:26Z</time>
      </trkpt>
      <trkpt lat="43.56971" lon="3.67319">
        <ele>136</ele>
        <time>2013-01-10T13:05:33Z</time>
      </trkpt>
      <trkpt lat="43.5698" lon="3.67325">
        <ele>136</ele>
        <time>2013-01-10T13:05:41Z</time>
      </trkpt>
      <trkpt lat="43.56987" lon="3.67333">
        <ele>136</ele>
        <time>2013-01-10T13:05:48Z</time>
      </trkpt>
      <trkpt lat="43.56995" lon="3.6734">
        <ele>136</ele>
        <time>2013-01-10T13:05:56Z</time>
      </trkpt>
      <trkpt lat="43.57002" lon="3.67348">
        <ele>136</ele>
        <time>2013-01-10T13:06:04Z</time>
      </trkpt>
      <trkpt lat="43.57009" lon="3.67358">
        <ele>136</ele>
        <time>2013-01-10T13:06:12Z</time>
      </trkpt>
      <trkpt lat="43.57014" lon="3.67369">
        <ele>136</ele>
        <time>2013-01-10T13:06:20Z</time>
      </trkpt>
      <trkpt lat="43.57019" lon="3.6738">
        <ele>136</ele>
        <time>2013-01-10T13:06:28Z</time>
      </trkpt>
      <trkpt lat="43.57026" lon="3.6739">
        <ele>136</ele>
        <time>2013-01-10T13:06:36Z</time>
      </trkpt>
      <trkpt lat="43.57033" lon="3.67399">
        <ele>142</ele>
        <time>2013-01-10T13:06:44Z</time>
      </trkpt>
      <trkpt lat="43.57041" lon="3.67407">
        <ele>142</ele>
        <time>2013-01-10T13:06:52Z</time>
      </trkpt>
      <trkpt lat="43.57049" lon="3.67414">
        <ele>142</ele>
        <time>2013-01-10T13:07:14Z</time>
      </trkpt>
      <trkpt lat="43.57054" lon="3.67424">
        <ele>142</ele>
        <time>2013-01-10T13:07:22Z</time>
      </trkpt>
      <trkpt lat="43.5706" lon="3.67434">
        <ele>142</ele>
        <time>2013-01-10T13:07:30Z</time>
      </trkpt>
      <trkpt lat="43.57066" lon="3.67445">
        <ele>142</ele>
        <time>2013-01-10T13:07:38Z</time>
      </trkpt>
      <trkpt lat="43.57071" lon="3.67456">
        <ele>142</ele>
        <time>2013-01-10T13:07:46Z</time>
      </trkpt>
      <trkpt lat="43.57074" lon="3.67468">
        <ele>142</ele>
        <time>2013-01-10T13:07:55Z</time>
      </trkpt>
      <trkpt lat="43.57077" lon="3.67479">
        <ele>142</ele>
        <time>2013-01-10T13:08:03Z</time>
      </trkpt>
      <trkpt lat="43.57084" lon="3.67487">
        <ele>142</ele>
        <time>2013-01-10T13:08:11Z</time>
      </trkpt>
      <trkpt lat="43.57094" lon="3.67493">
        <ele>142</ele>
        <time>2013-01-10T13:08:19Z</time>
      </trkpt>
      <trkpt lat="43.57097" lon="3.67504">
        <ele>142</ele>
        <time>2013-01-10T13:09:01Z</time>
      </trkpt>
      <trkpt lat="43.57091" lon="3.67514">
        <ele>142</ele>
        <time>2013-01-10T13:09:31Z</time>
      </trkpt>
      <trkpt lat="43.57086" lon="3.67525">
        <ele>142</ele>
        <time>2013-01-10T13:09:39Z</time>
      </trkpt>
      <trkpt lat="43.57081" lon="3.67536">
        <ele>136</ele>
        <time>2013-01-10T13:09:46Z</time>
      </trkpt>
      <trkpt lat="43.57077" lon="3.67548">
        <ele>136</ele>
        <time>2013-01-10T13:09:55Z</time>
      </trkpt>
      <trkpt lat="43.57074" lon="3.6756">
        <ele>130</ele>
        <time>2013-01-10T13:10:02Z</time>
      </trkpt>
      <trkpt lat="43.57071" lon="3.67573">
        <ele>130</ele>
        <time>2013-01-10T13:10:10Z</time>
      </trkpt>
      <trkpt lat="43.57065" lon="3.67583">
        <ele>130</ele>
        <time>2013-01-10T13:10:18Z</time>
      </trkpt>
      <trkpt lat="43.5706" lon="3.67593">
        <ele>130</ele>
        <time>2013-01-10T13:10:25Z</time>
      </trkpt>
      <trkpt lat="43.57055" lon="3.67605">
        <ele>130</ele>
        <time>2013-01-10T13:10:32Z</time>
      </trkpt>
      <trkpt lat="43.57047" lon="3.67615">
        <ele>130</ele>
        <time>2013-01-10T13:10:41Z</time>
      </trkpt>
      <trkpt lat="43.57039" lon="3.67619">
        <ele>130</ele>
        <time>2013-01-10T13:10:50Z</time>
      </trkpt>
      <trkpt lat="43.5703" lon="3.67622">
        <ele>130</ele>
        <time>2013-01-10T13:10:58Z</time>
      </trkpt>
      <trkpt lat="43.57022" lon="3.67628">
        <ele>130</ele>
        <time>2013-01-10T13:11:06Z</time>
      </trkpt>
      <trkpt lat="43.57017" lon="3.67641">
        <ele>130</ele>
        <time>2013-01-10T13:11:14Z</time>
      </trkpt>
      <trkpt lat="43.57011" lon="3.67652">
        <ele>130</ele>
        <time>2013-01-10T13:11:23Z</time>
      </trkpt>
      <trkpt lat="43.57004" lon="3.67659">
        <ele>130</ele>
        <time>2013-01-10T13:11:30Z</time>
      </trkpt>
      <trkpt lat="43.56998" lon="3.67669">
        <ele>130</ele>
        <time>2013-01-10T13:11:38Z</time>
      </trkpt>
      <trkpt lat="43.56991" lon="3.67678">
        <ele>130</ele>
        <time>2013-01-10T13:11:46Z</time>
      </trkpt>
      <trkpt lat="43.56985" lon="3.67688">
        <ele>130</ele>
        <time>2013-01-10T13:11:53Z</time>
      </trkpt>
      <trkpt lat="43.5698" lon="3.67698">
        <ele>130</ele>
        <time>2013-01-10T13:12:00Z</time>
      </trkpt>
      <trkpt lat="43.56975" lon="3.67707">
        <ele>130</ele>
        <time>2013-01-10T13:12:08Z</time>
      </trkpt>
      <trkpt lat="43.56967" lon="3.67715">
        <ele>130</ele>
        <time>2013-01-10T13:12:18Z</time>
      </trkpt>
      <trkpt lat="43.5696" lon="3.67722">
        <ele>135</ele>
        <time>2013-01-10T13:12:26Z</time>
      </trkpt>
      <trkpt lat="43.56952" lon="3.67729">
        <ele>135</ele>
        <time>2013-01-10T13:12:34Z</time>
      </trkpt>
      <trkpt lat="43.56945" lon="3.67738">
        <ele>135</ele>
        <time>2013-01-10T13:12:42Z</time>
      </trkpt>
      <trkpt lat="43.56937" lon="3.67746">
        <ele>135</ele>
        <time>2013-01-10T13:12:50Z</time>
      </trkpt>
      <trkpt lat="43.5693" lon="3.67755">
        <ele>135</ele>
        <time>2013-01-10T13:12:57Z</time>
      </trkpt>
      <trkpt lat="43.56924" lon="3.67766">
        <ele>135</ele>
        <time>2013-01-10T13:13:07Z</time>
      </trkpt>
      <trkpt lat="43.56925" lon="3.67778">
        <ele>135</ele>
        <time>2013-01-10T13:14:20Z</time>
      </trkpt>
      <trkpt lat="43.56932" lon="3.67786">
        <ele>135</ele>
        <time>2013-01-10T13:14:30Z</time>
      </trkpt>
      <trkpt lat="43.56941" lon="3.67792">
        <ele>135</ele>
        <time>2013-01-10T13:14:38Z</time>
      </trkpt>
      <trkpt lat="43.56949" lon="3.67802">
        <ele>135</ele>
        <time>2013-01-10T13:14:47Z</time>
      </trkpt>
      <trkpt lat="43.56954" lon="3.67812">
        <ele>135</ele>
        <time>2013-01-10T13:15:00Z</time>
      </trkpt>
      <trkpt lat="43.5696" lon="3.67822">
        <ele>135</ele>
        <time>2013-01-10T13:15:08Z</time>
      </trkpt>
      <trkpt lat="43.56963" lon="3.67835">
        <ele>135</ele>
        <time>2013-01-10T13:15:16Z</time>
      </trkpt>
      <trkpt lat="43.56961" lon="3.67848">
        <ele>135</ele>
        <time>2013-01-10T13:15:25Z</time>
      </trkpt>
      <trkpt lat="43.56956" lon="3.67859">
        <ele>135</ele>
        <time>2013-01-10T13:15:32Z</time>
      </trkpt>
      <trkpt lat="43.56953" lon="3.67871">
        <ele>135</ele>
        <time>2013-01-10T13:15:39Z</time>
      </trkpt>
      <trkpt lat="43.56947" lon="3.67881">
        <ele>135</ele>
        <time>2013-01-10T13:15:46Z</time>
      </trkpt>
      <trkpt lat="43.5694" lon="3.67888">
        <ele>135</ele>
        <time>2013-01-10T13:15:53Z</time>
      </trkpt>
      <trkpt lat="43.56932" lon="3.67895">
        <ele>135</ele>
        <time>2013-01-10T13:16:01Z</time>
      </trkpt>
      <trkpt lat="43.56924" lon="3.67902">
        <ele>135</ele>
        <time>2013-01-10T13:16:08Z</time>
      </trkpt>
      <trkpt lat="43.56917" lon="3.67912">
        <ele>135</ele>
        <time>2013-01-10T13:16:17Z</time>
      </trkpt>
      <trkpt lat="43.56911" lon="3.67922">
        <ele>135</ele>
        <time>2013-01-10T13:16:26Z</time>
      </trkpt>
      <trkpt lat="43.56906" lon="3.67932">
        <ele>141</ele>
        <time>2013-01-10T13:16:34Z</time>
      </trkpt>
      <trkpt lat="43.569" lon="3.67942">
        <ele>141</ele>
        <time>2013-01-10T13:16:42Z</time>
      </trkpt>
      <trkpt lat="43.56894" lon="3.67952">
        <ele>141</ele>
        <time>2013-01-10T13:16:49Z</time>
      </trkpt>
      <trkpt lat="43.56888" lon="3.67963">
        <ele>141</ele>
        <time>2013-01-10T13:16:57Z</time>
      </trkpt>
      <trkpt lat="43.56882" lon="3.67973">
        <ele>141</ele>
        <time>2013-01-10T13:17:04Z</time>
      </trkpt>
      <trkpt lat="43.56877" lon="3.67984">
        <ele>141</ele>
        <time>2013-01-10T13:17:11Z</time>
      </trkpt>
      <trkpt lat="43.56872" lon="3.67995">
        <ele>135</ele>
        <time>2013-01-10T13:17:18Z</time>
      </trkpt>
      <trkpt lat="43.56868" lon="3.68007">
        <ele>135</ele>
        <time>2013-01-10T13:17:25Z</time>
      </trkpt>
      <trkpt lat="43.56863" lon="3.68017">
        <ele>135</ele>
        <time>2013-01-10T13:17:33Z</time>
      </trkpt>
      <trkpt lat="43.56865" lon="3.6803">
        <ele>135</ele>
        <time>2013-01-10T13:17:56Z</time>
      </trkpt>
      <trkpt lat="43.56869" lon="3.68042">
        <ele>135</ele>
        <time>2013-01-10T13:18:03Z</time>
      </trkpt>
      <trkpt lat="43.56873" lon="3.68053">
        <ele>135</ele>
        <time>2013-01-10T13:18:11Z</time>
      </trkpt>
      <trkpt lat="43.56877" lon="3.68067">
        <ele>135</ele>
        <time>2013-01-10T13:18:19Z</time>
      </trkpt>
      <trkpt lat="43.56883" lon="3.68077">
        <ele>135</ele>
        <time>2013-01-10T13:18:26Z</time>
      </trkpt>
      <trkpt lat="43.56887" lon="3.68088">
        <ele>135</ele>
        <time>2013-01-10T13:18:33Z</time>
      </trkpt>
      <trkpt lat="43.56894" lon="3.68097">
        <ele>141</ele>
        <time>2013-01-10T13:18:40Z</time>
      </trkpt>
      <trkpt lat="43.56902" lon="3.68104">
        <ele>141</ele>
        <time>2013-01-10T13:18:47Z</time>
      </trkpt>
      <trkpt lat="43.56911" lon="3.68106">
        <ele>141</ele>
        <time>2013-01-10T13:18:54Z</time>
      </trkpt>
      <trkpt lat="43.5692" lon="3.6811">
        <ele>141</ele>
        <time>2013-01-10T13:19:01Z</time>
      </trkpt>
      <trkpt lat="43.56928" lon="3.68114">
        <ele>141</ele>
        <time>2013-01-10T13:19:09Z</time>
      </trkpt>
      <trkpt lat="43.56937" lon="3.68119">
        <ele>141</ele>
        <time>2013-01-10T13:19:17Z</time>
      </trkpt>
      <trkpt lat="43.56946" lon="3.68124">
        <ele>141</ele>
        <time>2013-01-10T13:19:25Z</time>
      </trkpt>
      <trkpt lat="43.56954" lon="3.6813">
        <ele>141</ele>
        <time>2013-01-10T13:19:33Z</time>
      </trkpt>
      <trkpt lat="43.56964" lon="3.68134">
        <ele>141</ele>
        <time>2013-01-10T13:19:40Z</time>
      </trkpt>
      <trkpt lat="43.56973" lon="3.6814">
        <ele>141</ele>
        <time>2013-01-10T13:19:48Z</time>
      </trkpt>
      <trkpt lat="43.56983" lon="3.68144">
        <ele>141</ele>
        <time>2013-01-10T13:19:56Z</time>
      </trkpt>
      <trkpt lat="43.56992" lon="3.68147">
        <ele>141</ele>
        <time>2013-01-10T13:20:03Z</time>
      </trkpt>
      <trkpt lat="43.57001" lon="3.6815">
        <ele>141</ele>
        <time>2013-01-10T13:20:11Z</time>
      </trkpt>
      <trkpt lat="43.57011" lon="3.68149">
        <ele>141</ele>
        <time>2013-01-10T13:20:18Z</time>
      </trkpt>
      <trkpt lat="43.5702" lon="3.68148">
        <ele>134</ele>
        <time>2013-01-10T13:20:25Z</time>
      </trkpt>
      <trkpt lat="43.5703" lon="3.6815">
        <ele>134</ele>
        <time>2013-01-10T13:20:33Z</time>
      </trkpt>
      <trkpt lat="43.57039" lon="3.68157">
        <ele>134</ele>
        <time>2013-01-10T13:20:41Z</time>
      </trkpt>
      <trkpt lat="43.57047" lon="3.6816">
        <ele>134</ele>
        <time>2013-01-10T13:21:01Z</time>
      </trkpt>
      <trkpt lat="43.57056" lon="3.68162">
        <ele>134</ele>
        <time>2013-01-10T13:23:45Z</time>
      </trkpt>
      <trkpt lat="43.57063" lon="3.68152">
        <ele>134</ele>
        <time>2013-01-10T13:24:12Z</time>
      </trkpt>
      <trkpt lat="43.57065" lon="3.6814">
        <ele>134</ele>
        <time>2013-01-10T13:24:22Z</time>
      </trkpt>
      <trkpt lat="43.57074" lon="3.68145">
        <ele>134</ele>
        <time>2013-01-10T13:24:29Z</time>
      </trkpt>
      <trkpt lat="43.57083" lon="3.68149">
        <ele>134</ele>
        <time>2013-01-10T13:24:36Z</time>
      </trkpt>
      <trkpt lat="43.57093" lon="3.6815">
        <ele>134</ele>
        <time>2013-01-10T13:24:43Z</time>
      </trkpt>
      <trkpt lat="43.57101" lon="3.68154">
        <ele>134</ele>
        <time>2013-01-10T13:24:51Z</time>
      </trkpt>
      <trkpt lat="43.57109" lon="3.6816">
        <ele>134</ele>
        <time>2013-01-10T13:25:00Z</time>
      </trkpt>
      <trkpt lat="43.57118" lon="3.68166">
        <ele>134</ele>
        <time>2013-01-10T13:25:09Z</time>
      </trkpt>
      <trkpt lat="43.57128" lon="3.68168">
        <ele>134</ele>
        <time>2013-01-10T13:25:18Z</time>
      </trkpt>
      <trkpt lat="43.57137" lon="3.6817">
        <ele>134</ele>
        <time>2013-01-10T13:25:40Z</time>
      </trkpt>
      <trkpt lat="43.57146" lon="3.68169">
        <ele>134</ele>
        <time>2013-01-10T13:25:49Z</time>
      </trkpt>
      <trkpt lat="43.57154" lon="3.68175">
        <ele>134</ele>
        <time>2013-01-10T13:25:57Z</time>
      </trkpt>
      <trkpt lat="43.57161" lon="3.68182">
        <ele>134</ele>
        <time>2013-01-10T13:26:04Z</time>
      </trkpt>
      <trkpt lat="43.57169" lon="3.68189">
        <ele>128</ele>
        <time>2013-01-10T13:26:11Z</time>
      </trkpt>
      <trkpt lat="43.57175" lon="3.68198">
        <ele>128</ele>
        <time>2013-01-10T13:26:18Z</time>
      </trkpt>
      <trkpt lat="43.57184" lon="3.682">
        <ele>128</ele>
        <time>2013-01-10T13:26:27Z</time>
      </trkpt>
      <trkpt lat="43.57194" lon="3.68199">
        <ele>128</ele>
        <time>2013-01-10T13:26:36Z</time>
      </trkpt>
      <trkpt lat="43.572" lon="3.68188">
        <ele>128</ele>
        <time>2013-01-10T13:26:45Z</time>
      </trkpt>
      <trkpt lat="43.57207" lon="3.6818">
        <ele>128</ele>
        <time>2013-01-10T13:26:52Z</time>
      </trkpt>
      <trkpt lat="43.57216" lon="3.68176">
        <ele>128</ele>
        <time>2013-01-10T13:27:00Z</time>
      </trkpt>
      <trkpt lat="43.57225" lon="3.68176">
        <ele>128</ele>
        <time>2013-01-10T13:27:07Z</time>
      </trkpt>
      <trkpt lat="43.57234" lon="3.68177">
        <ele>128</ele>
        <time>2013-01-10T13:27:14Z</time>
      </trkpt>
      <trkpt lat="43.57244" lon="3.6818">
        <ele>128</ele>
        <time>2013-01-10T13:27:22Z</time>
      </trkpt>
      <trkpt lat="43.57252" lon="3.68185">
        <ele>128</ele>
        <time>2013-01-10T13:27:29Z</time>
      </trkpt>
      <trkpt lat="43.57261" lon="3.68191">
        <ele>133</ele>
        <time>2013-01-10T13:27:38Z</time>
      </trkpt>
      <trkpt lat="43.57271" lon="3.68196">
        <ele>133</ele>
        <time>2013-01-10T13:27:47Z</time>
      </trkpt>
      <trkpt lat="43.57278" lon="3.68204">
        <ele>133</ele>
        <time>2013-01-10T13:27:54Z</time>
      </trkpt>
      <trkpt lat="43.57286" lon="3.68212">
        <ele>133</ele>
        <time>2013-01-10T13:28:01Z</time>
      </trkpt>
      <trkpt lat="43.57294" lon="3.68217">
        <ele>133</ele>
        <time>2013-01-10T13:28:09Z</time>
      </trkpt>
      <trkpt lat="43.57303" lon="3.68217">
        <ele>133</ele>
        <time>2013-01-10T13:28:16Z</time>
      </trkpt>
      <trkpt lat="43.57312" lon="3.68221">
        <ele>133</ele>
        <time>2013-01-10T13:28:23Z</time>
      </trkpt>
      <trkpt lat="43.57317" lon="3.68232">
        <ele>133</ele>
        <time>2013-01-10T13:28:32Z</time>
      </trkpt>
      <trkpt lat="43.57325" lon="3.6824">
        <ele>133</ele>
        <time>2013-01-10T13:28:41Z</time>
      </trkpt>
      <trkpt lat="43.57335" lon="3.68243">
        <ele>133</ele>
        <time>2013-01-10T13:28:48Z</time>
      </trkpt>
      <trkpt lat="43.57344" lon="3.68246">
        <ele>133</ele>
        <time>2013-01-10T13:28:56Z</time>
      </trkpt>
      <trkpt lat="43.57352" lon="3.68254">
        <ele>133</ele>
        <time>2013-01-10T13:29:04Z</time>
      </trkpt>
      <trkpt lat="43.57359" lon="3.68261">
        <ele>133</ele>
        <time>2013-01-10T13:29:12Z</time>
      </trkpt>
      <trkpt lat="43.57366" lon="3.6827">
        <ele>133</ele>
        <time>2013-01-10T13:29:20Z</time>
      </trkpt>
      <trkpt lat="43.57372" lon="3.68279">
        <ele>133</ele>
        <time>2013-01-10T13:29:28Z</time>
      </trkpt>
      <trkpt lat="43.57381" lon="3.68282">
        <ele>133</ele>
        <time>2013-01-10T13:29:36Z</time>
      </trkpt>
      <trkpt lat="43.5739" lon="3.68281">
        <ele>133</ele>
        <time>2013-01-10T13:29:43Z</time>
      </trkpt>
      <trkpt lat="43.574" lon="3.6828">
        <ele>133</ele>
        <time>2013-01-10T13:29:50Z</time>
      </trkpt>
      <trkpt lat="43.5741" lon="3.68281">
        <ele>133</ele>
        <time>2013-01-10T13:29:58Z</time>
      </trkpt>
      <trkpt lat="43.57419" lon="3.68285">
        <ele>133</ele>
        <time>2013-01-10T13:30:06Z</time>
      </trkpt>
      <trkpt lat="43.57427" lon="3.68291">
        <ele>133</ele>
        <time>2013-01-10T13:30:14Z</time>
      </trkpt>
      <trkpt lat="43.57435" lon="3.683">
        <ele>133</ele>
        <time>2013-01-10T13:30:22Z</time>
      </trkpt>
      <trkpt lat="43.57442" lon="3.68308">
        <ele>133</ele>
        <time>2013-01-10T13:30:30Z</time>
      </trkpt>
      <trkpt lat="43.57448" lon="3.68318">
        <ele>133</ele>
        <time>2013-01-10T13:30:38Z</time>
      </trkpt>
      <trkpt lat="43.57455" lon="3.68328">
        <ele>133</ele>
        <time>2013-01-10T13:30:45Z</time>
      </trkpt>
      <trkpt lat="43.57461" lon="3.68337">
        <ele>133</ele>
        <time>2013-01-10T13:30:53Z</time>
      </trkpt>
      <trkpt lat="43.57469" lon="3.68344">
        <ele>133</ele>
        <time>2013-01-10T13:31:01Z</time>
      </trkpt>
      <trkpt lat="43.57476" lon="3.68352">
        <ele>133</ele>
        <time>2013-01-10T13:31:09Z</time>
      </trkpt>
      <trkpt lat="43.5748" lon="3.68364">
        <ele>133</ele>
        <time>2013-01-10T13:31:17Z</time>
      </trkpt>
      <trkpt lat="43.57479" lon="3.68377">
        <ele>133</ele>
        <time>2013-01-10T13:31:26Z</time>
      </trkpt>
      <trkpt lat="43.57476" lon="3.6839">
        <ele>133</ele>
        <time>2013-01-10T13:31:34Z</time>
      </trkpt>
      <trkpt lat="43.57474" lon="3.68402">
        <ele>133</ele>
        <time>2013-01-10T13:31:41Z</time>
      </trkpt>
      <trkpt lat="43.57475" lon="3.68415">
        <ele>133</ele>
        <time>2013-01-10T13:31:49Z</time>
      </trkpt>
      <trkpt lat="43.57478" lon="3.68427">
        <ele>133</ele>
        <time>2013-01-10T13:31:56Z</time>
      </trkpt>
      <trkpt lat="43.5748" lon="3.6844">
        <ele>133</ele>
        <time>2013-01-10T13:32:04Z</time>
      </trkpt>
      <trkpt lat="43.57485" lon="3.68449">
        <ele>133</ele>
        <time>2013-01-10T13:32:11Z</time>
      </trkpt>
      <trkpt lat="43.57491" lon="3.68459">
        <ele>133</ele>
        <time>2013-01-10T13:32:19Z</time>
      </trkpt>
      <trkpt lat="43.57497" lon="3.6847">
        <ele>133</ele>
        <time>2013-01-10T13:32:27Z</time>
      </trkpt>
      <trkpt lat="43.57502" lon="3.68482">
        <ele>133</ele>
        <time>2013-01-10T13:32:36Z</time>
      </trkpt>
      <trkpt lat="43.57505" lon="3.68493">
        <ele>133</ele>
        <time>2013-01-10T13:32:47Z</time>
      </trkpt>
      <trkpt lat="43.57499" lon="3.68503">
        <ele>133</ele>
        <time>2013-01-10T13:33:57Z</time>
      </trkpt>
      <trkpt lat="43.57492" lon="3.68512">
        <ele>133</ele>
        <time>2013-01-10T13:34:07Z</time>
      </trkpt>
      <trkpt lat="43.57485" lon="3.6852">
        <ele>133</ele>
        <time>2013-01-10T13:34:14Z</time>
      </trkpt>
      <trkpt lat="43.57478" lon="3.68529">
        <ele>140</ele>
        <time>2013-01-10T13:34:23Z</time>
      </trkpt>
      <trkpt lat="43.5747" lon="3.68538">
        <ele>140</ele>
        <time>2013-01-10T13:34:32Z</time>
      </trkpt>
      <trkpt lat="43.57463" lon="3.68546">
        <ele>145</ele>
        <time>2013-01-10T13:34:41Z</time>
      </trkpt>
      <trkpt lat="43.57457" lon="3.68556">
        <ele>145</ele>
        <time>2013-01-10T13:34:48Z</time>
      </trkpt>
      <trkpt lat="43.57451" lon="3.68568">
        <ele>139</ele>
        <time>2013-01-10T13:34:57Z</time>
      </trkpt>
      <trkpt lat="43.57447" lon="3.6858">
        <ele>139</ele>
        <time>2013-01-10T13:35:05Z</time>
      </trkpt>
      <trkpt lat="43.57442" lon="3.6859">
        <ele>132</ele>
        <time>2013-01-10T13:35:23Z</time>
      </trkpt>
      <trkpt lat="43.57445" lon="3.68579">
        <ele>132</ele>
        <time>2013-01-10T13:36:46Z</time>
      </trkpt>
      <trkpt lat="43.5745" lon="3.68569">
        <ele>132</ele>
        <time>2013-01-10T13:36:53Z</time>
      </trkpt>
      <trkpt lat="43.57457" lon="3.68558">
        <ele>132</ele>
        <time>2013-01-10T13:37:01Z</time>
      </trkpt>
      <trkpt lat="43.57464" lon="3.68548">
        <ele>132</ele>
        <time>2013-01-10T13:37:13Z</time>
      </trkpt>
      <trkpt lat="43.57471" lon="3.6854">
        <ele>132</ele>
        <time>2013-01-10T13:37:23Z</time>
      </trkpt>
      <trkpt lat="43.57477" lon="3.6853">
        <ele>132</ele>
        <time>2013-01-10T13:37:35Z</time>
      </trkpt>
      <trkpt lat="43.57471" lon="3.6854">
        <ele>132</ele>
        <time>2013-01-10T13:44:18Z</time>
      </trkpt>
      <trkpt lat="43.57463" lon="3.68547">
        <ele>132</ele>
        <time>2013-01-10T13:44:29Z</time>
      </trkpt>
      <trkpt lat="43.57456" lon="3.68556">
        <ele>132</ele>
        <time>2013-01-10T13:44:38Z</time>
      </trkpt>
      <trkpt lat="43.5745" lon="3.68567">
        <ele>137</ele>
        <time>2013-01-10T13:44:47Z</time>
      </trkpt>
      <trkpt lat="43.57444" lon="3.68579">
        <ele>137</ele>
        <time>2013-01-10T13:44:55Z</time>
      </trkpt>
      <trkpt lat="43.5744" lon="3.6859">
        <ele>137</ele>
        <time>2013-01-10T13:45:59Z</time>
      </trkpt>
      <trkpt lat="43.57436" lon="3.68602">
        <ele>137</ele>
        <time>2013-01-10T13:46:10Z</time>
      </trkpt>
      <trkpt lat="43.57429" lon="3.68611">
        <ele>137</ele>
        <time>2013-01-10T13:46:24Z</time>
      </trkpt>
      <trkpt lat="43.57419" lon="3.68616">
        <ele>137</ele>
        <time>2013-01-10T13:46:34Z</time>
      </trkpt>
      <trkpt lat="43.5741" lon="3.68621">
        <ele>137</ele>
        <time>2013-01-10T13:46:42Z</time>
      </trkpt>
      <trkpt lat="43.57401" lon="3.68626">
        <ele>137</ele>
        <time>2013-01-10T13:46:51Z</time>
      </trkpt>
      <trkpt lat="43.57393" lon="3.68632">
        <ele>137</ele>
        <time>2013-01-10T13:47:01Z</time>
      </trkpt>
      <trkpt lat="43.57386" lon="3.68643">
        <ele>137</ele>
        <time>2013-01-10T13:47:10Z</time>
      </trkpt>
      <trkpt lat="43.57382" lon="3.68654">
        <ele>137</ele>
        <time>2013-01-10T13:47:18Z</time>
      </trkpt>
      <trkpt lat="43.57378" lon="3.68666">
        <ele>137</ele>
        <time>2013-01-10T13:47:27Z</time>
      </trkpt>
      <trkpt lat="43.57376" lon="3.68679">
        <ele>137</ele>
        <time>2013-01-10T13:47:34Z</time>
      </trkpt>
      <trkpt lat="43.57372" lon="3.6869">
        <ele>137</ele>
        <time>2013-01-10T13:47:43Z</time>
      </trkpt>
      <trkpt lat="43.57368" lon="3.68702">
        <ele>137</ele>
        <time>2013-01-10T13:47:54Z</time>
      </trkpt>
      <trkpt lat="43.57366" lon="3.68714">
        <ele>137</ele>
        <time>2013-01-10T13:48:02Z</time>
      </trkpt>
      <trkpt lat="43.57359" lon="3.68723">
        <ele>137</ele>
        <time>2013-01-10T13:48:09Z</time>
      </trkpt>
      <trkpt lat="43.57352" lon="3.68731">
        <ele>137</ele>
        <time>2013-01-10T13:48:18Z</time>
      </trkpt>
      <trkpt lat="43.57342" lon="3.68737">
        <ele>137</ele>
        <time>2013-01-10T13:48:26Z</time>
      </trkpt>
      <trkpt lat="43.57335" lon="3.68746">
        <ele>137</ele>
        <time>2013-01-10T13:48:35Z</time>
      </trkpt>
      <trkpt lat="43.57329" lon="3.68756">
        <ele>137</ele>
        <time>2013-01-10T13:48:44Z</time>
      </trkpt>
      <trkpt lat="43.5732" lon="3.68762">
        <ele>137</ele>
        <time>2013-01-10T13:48:53Z</time>
      </trkpt>
      <trkpt lat="43.57313" lon="3.68771">
        <ele>137</ele>
        <time>2013-01-10T13:49:02Z</time>
      </trkpt>
      <trkpt lat="43.57306" lon="3.68779">
        <ele>137</ele>
        <time>2013-01-10T13:49:12Z</time>
      </trkpt>
      <trkpt lat="43.57301" lon="3.6879">
        <ele>137</ele>
        <time>2013-01-10T13:49:21Z</time>
      </trkpt>
      <trkpt lat="43.57296" lon="3.688">
        <ele>137</ele>
        <time>2013-01-10T13:49:28Z</time>
      </trkpt>
      <trkpt lat="43.57289" lon="3.68809">
        <ele>137</ele>
        <time>2013-01-10T13:49:35Z</time>
      </trkpt>
      <trkpt lat="43.57282" lon="3.68817">
        <ele>137</ele>
        <time>2013-01-10T13:49:43Z</time>
      </trkpt>
      <trkpt lat="43.57276" lon="3.68827">
        <ele>132</ele>
        <time>2013-01-10T13:49:51Z</time>
      </trkpt>
      <trkpt lat="43.5727" lon="3.68837">
        <ele>132</ele>
        <time>2013-01-10T13:50:01Z</time>
      </trkpt>
      <trkpt lat="43.57263" lon="3.68847">
        <ele>132</ele>
        <time>2013-01-10T13:50:09Z</time>
      </trkpt>
      <trkpt lat="43.57257" lon="3.68856">
        <ele>132</ele>
        <time>2013-01-10T13:50:18Z</time>
      </trkpt>
      <trkpt lat="43.5725" lon="3.68864">
        <ele>132</ele>
        <time>2013-01-10T13:50:26Z</time>
      </trkpt>
      <trkpt lat="43.57241" lon="3.68871">
        <ele>132</ele>
        <time>2013-01-10T13:50:33Z</time>
      </trkpt>
      <trkpt lat="43.57234" lon="3.68879">
        <ele>132</ele>
        <time>2013-01-10T13:50:41Z</time>
      </trkpt>
      <trkpt lat="43.57226" lon="3.68885">
        <ele>132</ele>
        <time>2013-01-10T13:50:49Z</time>
      </trkpt>
      <trkpt lat="43.57219" lon="3.68895">
        <ele>132</ele>
        <time>2013-01-10T13:50:57Z</time>
      </trkpt>
      <trkpt lat="43.57211" lon="3.68901">
        <ele>132</ele>
        <time>2013-01-10T13:51:04Z</time>
      </trkpt>
      <trkpt lat="43.57203" lon="3.6891">
        <ele>132</ele>
        <time>2013-01-10T13:51:13Z</time>
      </trkpt>
      <trkpt lat="43.57195" lon="3.68917">
        <ele>132</ele>
        <time>2013-01-10T13:51:21Z</time>
      </trkpt>
      <trkpt lat="43.57188" lon="3.68926">
        <ele>132</ele>
        <time>2013-01-10T13:51:28Z</time>
      </trkpt>
      <trkpt lat="43.57179" lon="3.68933">
        <ele>132</ele>
        <time>2013-01-10T13:51:36Z</time>
      </trkpt>
      <trkpt lat="43.57171" lon="3.6894">
        <ele>132</ele>
        <time>2013-01-10T13:51:43Z</time>
      </trkpt>
      <trkpt lat="43.57163" lon="3.68947">
        <ele>132</ele>
        <time>2013-01-10T13:51:52Z</time>
      </trkpt>
      <trkpt lat="43.57154" lon="3.68952">
        <ele>132</ele>
        <time>2013-01-10T13:51:58Z</time>
      </trkpt>
      <trkpt lat="43.57146" lon="3.68961">
        <ele>132</ele>
        <time>2013-01-10T13:52:07Z</time>
      </trkpt>
      <trkpt lat="43.57139" lon="3.68969">
        <ele>132</ele>
        <time>2013-01-10T13:52:15Z</time>
      </trkpt>
      <trkpt lat="43.57133" lon="3.68979">
        <ele>126</ele>
        <time>2013-01-10T13:52:23Z</time>
      </trkpt>
      <trkpt lat="43.57125" lon="3.68987">
        <ele>126</ele>
        <time>2013-01-10T13:52:30Z</time>
      </trkpt>
      <trkpt lat="43.57116" lon="3.68994">
        <ele>126</ele>
        <time>2013-01-10T13:52:39Z</time>
      </trkpt>
      <trkpt lat="43.5711" lon="3.69003">
        <ele>126</ele>
        <time>2013-01-10T13:52:46Z</time>
      </trkpt>
      <trkpt lat="43.57102" lon="3.6901">
        <ele>126</ele>
        <time>2013-01-10T13:52:54Z</time>
      </trkpt>
      <trkpt lat="43.57094" lon="3.69017">
        <ele>126</ele>
        <time>2013-01-10T13:53:01Z</time>
      </trkpt>
      <trkpt lat="43.57084" lon="3.69023">
        <ele>126</ele>
        <time>2013-01-10T13:53:10Z</time>
      </trkpt>
      <trkpt lat="43.57076" lon="3.69027">
        <ele>126</ele>
        <time>2013-01-10T13:53:19Z</time>
      </trkpt>
      <trkpt lat="43.57067" lon="3.69032">
        <ele>126</ele>
        <time>2013-01-10T13:53:27Z</time>
      </trkpt>
      <trkpt lat="43.57058" lon="3.69034">
        <ele>126</ele>
        <time>2013-01-10T13:53:34Z</time>
      </trkpt>
      <trkpt lat="43.57048" lon="3.69035">
        <ele>126</ele>
        <time>2013-01-10T13:53:41Z</time>
      </trkpt>
      <trkpt lat="43.57039" lon="3.69031">
        <ele>126</ele>
        <time>2013-01-10T13:53:48Z</time>
      </trkpt>
      <trkpt lat="43.5703" lon="3.69027">
        <ele>126</ele>
        <time>2013-01-10T13:53:58Z</time>
      </trkpt>
      <trkpt lat="43.57021" lon="3.69026">
        <ele>126</ele>
        <time>2013-01-10T13:54:05Z</time>
      </trkpt>
      <trkpt lat="43.57013" lon="3.6903">
        <ele>126</ele>
        <time>2013-01-10T13:54:13Z</time>
      </trkpt>
      <trkpt lat="43.57004" lon="3.69034">
        <ele>126</ele>
        <time>2013-01-10T13:54:22Z</time>
      </trkpt>
      <trkpt lat="43.57" lon="3.69045">
        <ele>126</ele>
        <time>2013-01-10T13:54:36Z</time>
      </trkpt>
      <trkpt lat="43.56997" lon="3.69058">
        <ele>126</ele>
        <time>2013-01-10T13:54:46Z</time>
      </trkpt>
      <trkpt lat="43.56997" lon="3.6907">
        <ele>126</ele>
        <time>2013-01-10T13:54:54Z</time>
      </trkpt>
      <trkpt lat="43.5699" lon="3.6908">
        <ele>126</ele>
        <time>2013-01-10T13:55:02Z</time>
      </trkpt>
      <trkpt lat="43.56988" lon="3.69094">
        <ele>126</ele>
        <time>2013-01-10T13:55:11Z</time>
      </trkpt>
      <trkpt lat="43.56983" lon="3.69104">
        <ele>126</ele>
        <time>2013-01-10T13:55:18Z</time>
      </trkpt>
      <trkpt lat="43.56979" lon="3.69117">
        <ele>126</ele>
        <time>2013-01-10T13:55:28Z</time>
      </trkpt>
      <trkpt lat="43.56977" lon="3.69129">
        <ele>126</ele>
        <time>2013-01-10T13:55:35Z</time>
      </trkpt>
      <trkpt lat="43.56972" lon="3.69139">
        <ele>126</ele>
        <time>2013-01-10T13:55:42Z</time>
      </trkpt>
      <trkpt lat="43.56967" lon="3.69151">
        <ele>126</ele>
        <time>2013-01-10T13:55:49Z</time>
      </trkpt>
      <trkpt lat="43.56963" lon="3.69163">
        <ele>126</ele>
        <time>2013-01-10T13:55:58Z</time>
      </trkpt>
      <trkpt lat="43.56957" lon="3.69173">
        <ele>126</ele>
        <time>2013-01-10T13:56:06Z</time>
      </trkpt>
      <trkpt lat="43.56952" lon="3.69182">
        <ele>126</ele>
        <time>2013-01-10T13:56:13Z</time>
      </trkpt>
      <trkpt lat="43.56945" lon="3.69191">
        <ele>126</ele>
        <time>2013-01-10T13:56:22Z</time>
      </trkpt>
      <trkpt lat="43.56938" lon="3.692">
        <ele>126</ele>
        <time>2013-01-10T13:56:28Z</time>
      </trkpt>
      <trkpt lat="43.56933" lon="3.6921">
        <ele>126</ele>
        <time>2013-01-10T13:56:36Z</time>
      </trkpt>
      <trkpt lat="43.56926" lon="3.69218">
        <ele>126</ele>
        <time>2013-01-10T13:56:43Z</time>
      </trkpt>
      <trkpt lat="43.56919" lon="3.69226">
        <ele>126</ele>
        <time>2013-01-10T13:56:50Z</time>
      </trkpt>
      <trkpt lat="43.56913" lon="3.69236">
        <ele>126</ele>
        <time>2013-01-10T13:56:59Z</time>
      </trkpt>
      <trkpt lat="43.56907" lon="3.69246">
        <ele>126</ele>
        <time>2013-01-10T13:57:07Z</time>
      </trkpt>
      <trkpt lat="43.56901" lon="3.69256">
        <ele>126</ele>
        <time>2013-01-10T13:57:14Z</time>
      </trkpt>
      <trkpt lat="43.56896" lon="3.69267">
        <ele>126</ele>
        <time>2013-01-10T13:57:22Z</time>
      </trkpt>
      <trkpt lat="43.56891" lon="3.69279">
        <ele>126</ele>
        <time>2013-01-10T13:57:29Z</time>
      </trkpt>
      <trkpt lat="43.56884" lon="3.69288">
        <ele>126</ele>
        <time>2013-01-10T13:57:37Z</time>
      </trkpt>
      <trkpt lat="43.56883" lon="3.693">
        <ele>126</ele>
        <time>2013-01-10T13:57:45Z</time>
      </trkpt>
      <trkpt lat="43.56878" lon="3.69312">
        <ele>126</ele>
        <time>2013-01-10T13:57:54Z</time>
      </trkpt>
      <trkpt lat="43.56872" lon="3.69323">
        <ele>126</ele>
        <time>2013-01-10T13:58:03Z</time>
      </trkpt>
      <trkpt lat="43.56865" lon="3.69332">
        <ele>126</ele>
        <time>2013-01-10T13:58:11Z</time>
      </trkpt>
      <trkpt lat="43.56857" lon="3.69341">
        <ele>121</ele>
        <time>2013-01-10T13:58:19Z</time>
      </trkpt>
      <trkpt lat="43.56849" lon="3.6935">
        <ele>121</ele>
        <time>2013-01-10T13:58:27Z</time>
      </trkpt>
      <trkpt lat="43.56842" lon="3.69359">
        <ele>121</ele>
        <time>2013-01-10T13:58:36Z</time>
      </trkpt>
      <trkpt lat="43.56836" lon="3.69371">
        <ele>126</ele>
        <time>2013-01-10T13:58:43Z</time>
      </trkpt>
      <trkpt lat="43.5683" lon="3.69382">
        <ele>126</ele>
        <time>2013-01-10T13:58:52Z</time>
      </trkpt>
      <trkpt lat="43.56822" lon="3.6939">
        <ele>120</ele>
        <time>2013-01-10T13:58:59Z</time>
      </trkpt>
      <trkpt lat="43.56816" lon="3.69399">
        <ele>120</ele>
        <time>2013-01-10T13:59:06Z</time>
      </trkpt>
      <trkpt lat="43.56808" lon="3.69406">
        <ele>120</ele>
        <time>2013-01-10T13:59:14Z</time>
      </trkpt>
      <trkpt lat="43.56803" lon="3.69416">
        <ele>120</ele>
        <time>2013-01-10T13:59:21Z</time>
      </trkpt>
      <trkpt lat="43.56797" lon="3.69426">
        <ele>120</ele>
        <time>2013-01-10T13:59:29Z</time>
      </trkpt>
      <trkpt lat="43.56791" lon="3.69436">
        <ele>120</ele>
        <time>2013-01-10T13:59:36Z</time>
      </trkpt>
      <trkpt lat="43.56786" lon="3.69447">
        <ele>120</ele>
        <time>2013-01-10T13:59:45Z</time>
      </trkpt>
      <trkpt lat="43.56781" lon="3.69456">
        <ele>120</ele>
        <time>2013-01-10T13:59:53Z</time>
      </trkpt>
      <trkpt lat="43.56775" lon="3.69467">
        <ele>120</ele>
        <time>2013-01-10T14:00:01Z</time>
      </trkpt>
      <trkpt lat="43.56773" lon="3.69479">
        <ele>120</ele>
        <time>2013-01-10T14:00:08Z</time>
      </trkpt>
      <trkpt lat="43.56769" lon="3.69491">
        <ele>115</ele>
        <time>2013-01-10T14:00:16Z</time>
      </trkpt>
      <trkpt lat="43.56766" lon="3.69503">
        <ele>115</ele>
        <time>2013-01-10T14:00:23Z</time>
      </trkpt>
      <trkpt lat="43.56761" lon="3.69516">
        <ele>115</ele>
        <time>2013-01-10T14:00:31Z</time>
      </trkpt>
      <trkpt lat="43.56757" lon="3.69528">
        <ele>115</ele>
        <time>2013-01-10T14:00:39Z</time>
      </trkpt>
      <trkpt lat="43.56755" lon="3.69541">
        <ele>115</ele>
        <time>2013-01-10T14:00:46Z</time>
      </trkpt>
      <trkpt lat="43.56755" lon="3.69554">
        <ele>115</ele>
        <time>2013-01-10T14:00:53Z</time>
      </trkpt>
      <trkpt lat="43.56756" lon="3.69567">
        <ele>110</ele>
        <time>2013-01-10T14:01:00Z</time>
      </trkpt>
      <trkpt lat="43.56757" lon="3.69581">
        <ele>110</ele>
        <time>2013-01-10T14:01:08Z</time>
      </trkpt>
      <trkpt lat="43.56757" lon="3.69594">
        <ele>110</ele>
        <time>2013-01-10T14:01:15Z</time>
      </trkpt>
      <trkpt lat="43.56757" lon="3.69606">
        <ele>110</ele>
        <time>2013-01-10T14:01:24Z</time>
      </trkpt>
      <trkpt lat="43.56755" lon="3.69619">
        <ele>110</ele>
        <time>2013-01-10T14:01:33Z</time>
      </trkpt>
      <trkpt lat="43.5675" lon="3.69631">
        <ele>110</ele>
        <time>2013-01-10T14:01:43Z</time>
      </trkpt>
      <trkpt lat="43.56745" lon="3.69642">
        <ele>110</ele>
        <time>2013-01-10T14:01:51Z</time>
      </trkpt>
      <trkpt lat="43.56742" lon="3.69653">
        <ele>110</ele>
        <time>2013-01-10T14:01:59Z</time>
      </trkpt>
      <trkpt lat="43.56738" lon="3.69664">
        <ele>110</ele>
        <time>2013-01-10T14:02:09Z</time>
      </trkpt>
      <trkpt lat="43.56736" lon="3.69677">
        <ele>110</ele>
        <time>2013-01-10T14:02:44Z</time>
      </trkpt>
      <trkpt lat="43.56733" lon="3.69688">
        <ele>110</ele>
        <time>2013-01-10T14:02:53Z</time>
      </trkpt>
      <trkpt lat="43.5673" lon="3.697">
        <ele>110</ele>
        <time>2013-01-10T14:03:00Z</time>
      </trkpt>
      <trkpt lat="43.56728" lon="3.69712">
        <ele>110</ele>
        <time>2013-01-10T14:03:08Z</time>
      </trkpt>
      <trkpt lat="43.56726" lon="3.69725">
        <ele>110</ele>
        <time>2013-01-10T14:03:16Z</time>
      </trkpt>
      <trkpt lat="43.56726" lon="3.69739">
        <ele>110</ele>
        <time>2013-01-10T14:03:23Z</time>
      </trkpt>
      <trkpt lat="43.56721" lon="3.69751">
        <ele>110</ele>
        <time>2013-01-10T14:03:30Z</time>
      </trkpt>
      <trkpt lat="43.56719" lon="3.69763">
        <ele>110</ele>
        <time>2013-01-10T14:03:37Z</time>
      </trkpt>
      <trkpt lat="43.56715" lon="3.69775">
        <ele>110</ele>
        <time>2013-01-10T14:03:45Z</time>
      </trkpt>
      <trkpt lat="43.5671" lon="3.69787">
        <ele>110</ele>
        <time>2013-01-10T14:03:52Z</time>
      </trkpt>
      <trkpt lat="43.56706" lon="3.698">
        <ele>110</ele>
        <time>2013-01-10T14:03:59Z</time>
      </trkpt>
      <trkpt lat="43.56702" lon="3.69811">
        <ele>110</ele>
        <time>2013-01-10T14:04:07Z</time>
      </trkpt>
      <trkpt lat="43.56698" lon="3.69823">
        <ele>110</ele>
        <time>2013-01-10T14:04:15Z</time>
      </trkpt>
      <trkpt lat="43.56694" lon="3.69836">
        <ele>110</ele>
        <time>2013-01-10T14:04:23Z</time>
      </trkpt>
      <trkpt lat="43.56693" lon="3.69848">
        <ele>110</ele>
        <time>2013-01-10T14:04:30Z</time>
      </trkpt>
      <trkpt lat="43.56693" lon="3.69863">
        <ele>110</ele>
        <time>2013-01-10T14:04:37Z</time>
      </trkpt>
      <trkpt lat="43.56694" lon="3.69876">
        <ele>110</ele>
        <time>2013-01-10T14:04:44Z</time>
      </trkpt>
      <trkpt lat="43.56696" lon="3.69889">
        <ele>104</ele>
        <time>2013-01-10T14:04:51Z</time>
      </trkpt>
      <trkpt lat="43.56698" lon="3.69902">
        <ele>104</ele>
        <time>2013-01-10T14:04:59Z</time>
      </trkpt>
      <trkpt lat="43.567" lon="3.69915">
        <ele>104</ele>
        <time>2013-01-10T14:05:06Z</time>
      </trkpt>
      <trkpt lat="43.56702" lon="3.69927">
        <ele>104</ele>
        <time>2013-01-10T14:05:13Z</time>
      </trkpt>
      <trkpt lat="43.56702" lon="3.69941">
        <ele>104</ele>
        <time>2013-01-10T14:05:21Z</time>
      </trkpt>
      <trkpt lat="43.56701" lon="3.69953">
        <ele>104</ele>
        <time>2013-01-10T14:05:29Z</time>
      </trkpt>
      <trkpt lat="43.567" lon="3.69966">
        <ele>104</ele>
        <time>2013-01-10T14:05:37Z</time>
      </trkpt>
      <trkpt lat="43.56698" lon="3.69977">
        <ele>104</ele>
        <time>2013-01-10T14:05:44Z</time>
      </trkpt>
      <trkpt lat="43.56696" lon="3.6999">
        <ele>104</ele>
        <time>2013-01-10T14:05:52Z</time>
      </trkpt>
      <trkpt lat="43.56692" lon="3.70003">
        <ele>104</ele>
        <time>2013-01-10T14:06:00Z</time>
      </trkpt>
      <trkpt lat="43.56689" lon="3.70014">
        <ele>104</ele>
        <time>2013-01-10T14:06:07Z</time>
      </trkpt>
      <trkpt lat="43.56685" lon="3.70025">
        <ele>104</ele>
        <time>2013-01-10T14:06:15Z</time>
      </trkpt>
      <trkpt lat="43.56679" lon="3.70035">
        <ele>104</ele>
        <time>2013-01-10T14:06:22Z</time>
      </trkpt>
      <trkpt lat="43.56672" lon="3.70044">
        <ele>104</ele>
        <time>2013-01-10T14:06:31Z</time>
      </trkpt>
      <trkpt lat="43.56667" lon="3.70054">
        <ele>104</ele>
        <time>2013-01-10T14:06:38Z</time>
      </trkpt>
      <trkpt lat="43.56661" lon="3.70064">
        <ele>104</ele>
        <time>2013-01-10T14:06:46Z</time>
      </trkpt>
      <trkpt lat="43.56653" lon="3.70073">
        <ele>104</ele>
        <time>2013-01-10T14:06:54Z</time>
      </trkpt>
      <trkpt lat="43.56647" lon="3.70083">
        <ele>104</ele>
        <time>2013-01-10T14:07:03Z</time>
      </trkpt>
      <trkpt lat="43.56642" lon="3.70093">
        <ele>104</ele>
        <time>2013-01-10T14:07:11Z</time>
      </trkpt>
      <trkpt lat="43.56636" lon="3.70103">
        <ele>104</ele>
        <time>2013-01-10T14:07:18Z</time>
      </trkpt>
      <trkpt lat="43.5663" lon="3.70113">
        <ele>104</ele>
        <time>2013-01-10T14:07:26Z</time>
      </trkpt>
      <trkpt lat="43.56623" lon="3.70123">
        <ele>104</ele>
        <time>2013-01-10T14:07:34Z</time>
      </trkpt>
    </trkseg>
  </trk>
</gpx>